<?xml version="1.0" encoding="UTF-8" standalone="no" ?>
<gpx xmlns="http://www.topografix.com/GPX/1/1" creator="www.cicloide.com" version="1.1" xmlns:xsi="http://www.w3.org/2001/XMLSchema-instance" xsi:schemaLocation="http://www.topografix.com/GPX/1/1 http://www.topografix.com/GPX/1/1/gpx.xsd">
  <trk>
    <name>www.cicloide.com 18948</name>
    <desc>www.cicloide.com 18948</desc>
    <trkseg>
      <trkpt lat="41.605768765" lon="2.540340496">
        <ele>113.57</ele>
        <time>2014-07-27T07:36:49Z</time>
      </trkpt>
      <trkpt lat="41.605768681" lon="2.540338904">
        <ele>113.57</ele>
        <time>2014-07-27T07:36:50Z</time>
      </trkpt>
      <trkpt lat="41.605784859" lon="2.540352818">
        <ele>113.57</ele>
        <time>2014-07-27T07:36:58Z</time>
      </trkpt>
      <trkpt lat="41.605871444" lon="2.540387686">
        <ele>112.61</ele>
        <time>2014-07-27T07:37:04Z</time>
      </trkpt>
      <trkpt lat="41.605998597" lon="2.540396906">
        <ele>113.57</ele>
        <time>2014-07-27T07:37:11Z</time>
      </trkpt>
      <trkpt lat="41.606214012" lon="2.540429261">
        <ele>111.65</ele>
        <time>2014-07-27T07:37:18Z</time>
      </trkpt>
      <trkpt lat="41.606420039" lon="2.540539986">
        <ele>111.65</ele>
        <time>2014-07-27T07:37:27Z</time>
      </trkpt>
      <trkpt lat="41.606532189" lon="2.540600922">
        <ele>113.09</ele>
        <time>2014-07-27T07:37:32Z</time>
      </trkpt>
      <trkpt lat="41.606712232" lon="2.540692872">
        <ele>113.57</ele>
        <time>2014-07-27T07:37:40Z</time>
      </trkpt>
      <trkpt lat="41.606891521" lon="2.540775014">
        <ele>114.05</ele>
        <time>2014-07-27T07:37:48Z</time>
      </trkpt>
      <trkpt lat="41.607109115" lon="2.540841902">
        <ele>114.53</ele>
        <time>2014-07-27T07:37:57Z</time>
      </trkpt>
      <trkpt lat="41.607305336" lon="2.540869814">
        <ele>115.01</ele>
        <time>2014-07-27T07:38:05Z</time>
      </trkpt>
      <trkpt lat="41.607513961" lon="2.540873837">
        <ele>115.50</ele>
        <time>2014-07-27T07:38:14Z</time>
      </trkpt>
      <trkpt lat="41.607603899" lon="2.540874591">
        <ele>115.98</ele>
        <time>2014-07-27T07:38:19Z</time>
      </trkpt>
      <trkpt lat="41.607771202" lon="2.540846009">
        <ele>116.46</ele>
        <time>2014-07-27T07:38:27Z</time>
      </trkpt>
      <trkpt lat="41.607933476" lon="2.540840896">
        <ele>116.94</ele>
        <time>2014-07-27T07:38:34Z</time>
      </trkpt>
      <trkpt lat="41.608114776" lon="2.540823126">
        <ele>117.42</ele>
        <time>2014-07-27T07:38:41Z</time>
      </trkpt>
      <trkpt lat="41.608264812" lon="2.540779289">
        <ele>117.90</ele>
        <time>2014-07-27T07:38:47Z</time>
      </trkpt>
      <trkpt lat="41.608443011" lon="2.540727908">
        <ele>118.38</ele>
        <time>2014-07-27T07:38:55Z</time>
      </trkpt>
      <trkpt lat="41.608615595" lon="2.540709216">
        <ele>118.86</ele>
        <time>2014-07-27T07:39:02Z</time>
      </trkpt>
      <trkpt lat="41.608812737" lon="2.540687926">
        <ele>119.34</ele>
        <time>2014-07-27T07:39:09Z</time>
      </trkpt>
      <trkpt lat="41.609029158" lon="2.540652722">
        <ele>120.30</ele>
        <time>2014-07-27T07:39:17Z</time>
      </trkpt>
      <trkpt lat="41.609230324" lon="2.540620200">
        <ele>120.30</ele>
        <time>2014-07-27T07:39:25Z</time>
      </trkpt>
      <trkpt lat="41.609380108" lon="2.540588768">
        <ele>121.26</ele>
        <time>2014-07-27T07:39:32Z</time>
      </trkpt>
      <trkpt lat="41.609553195" lon="2.540554067">
        <ele>121.74</ele>
        <time>2014-07-27T07:39:39Z</time>
      </trkpt>
      <trkpt lat="41.609702728" lon="2.540529424">
        <ele>121.74</ele>
        <time>2014-07-27T07:39:45Z</time>
      </trkpt>
      <trkpt lat="41.609868438" lon="2.540485503">
        <ele>122.71</ele>
        <time>2014-07-27T07:39:51Z</time>
      </trkpt>
      <trkpt lat="41.610008080" lon="2.540406630">
        <ele>123.19</ele>
        <time>2014-07-27T07:39:57Z</time>
      </trkpt>
      <trkpt lat="41.610167504" lon="2.540323397">
        <ele>123.67</ele>
        <time>2014-07-27T07:40:03Z</time>
      </trkpt>
      <trkpt lat="41.610344027" lon="2.540228346">
        <ele>124.15</ele>
        <time>2014-07-27T07:40:10Z</time>
      </trkpt>
      <trkpt lat="41.610534799" lon="2.540125165">
        <ele>124.63</ele>
        <time>2014-07-27T07:40:17Z</time>
      </trkpt>
      <trkpt lat="41.610707383" lon="2.540026426">
        <ele>125.59</ele>
        <time>2014-07-27T07:40:24Z</time>
      </trkpt>
      <trkpt lat="41.610873428" lon="2.539933220">
        <ele>126.07</ele>
        <time>2014-07-27T07:40:31Z</time>
      </trkpt>
      <trkpt lat="41.611111893" lon="2.539801540">
        <ele>126.55</ele>
        <time>2014-07-27T07:40:41Z</time>
      </trkpt>
      <trkpt lat="41.611348095" lon="2.539674135">
        <ele>127.51</ele>
        <time>2014-07-27T07:40:50Z</time>
      </trkpt>
      <trkpt lat="41.611574239" lon="2.539508006">
        <ele>128.47</ele>
        <time>2014-07-27T07:41:00Z</time>
      </trkpt>
      <trkpt lat="41.611699800" lon="2.539405663">
        <ele>128.47</ele>
        <time>2014-07-27T07:41:06Z</time>
      </trkpt>
      <trkpt lat="41.611846483" lon="2.539229643">
        <ele>129.92</ele>
        <time>2014-07-27T07:41:14Z</time>
      </trkpt>
      <trkpt lat="41.611978331" lon="2.539074578">
        <ele>130.40</ele>
        <time>2014-07-27T07:41:21Z</time>
      </trkpt>
      <trkpt lat="41.612119901" lon="2.538850278">
        <ele>130.88</ele>
        <time>2014-07-27T07:41:29Z</time>
      </trkpt>
      <trkpt lat="41.612210174" lon="2.538647436">
        <ele>131.84</ele>
        <time>2014-07-27T07:41:37Z</time>
      </trkpt>
      <trkpt lat="41.612220316" lon="2.538625308">
        <ele>131.84</ele>
        <time>2014-07-27T07:41:38Z</time>
      </trkpt>
      <trkpt lat="41.612237331" lon="2.538616423">
        <ele>131.84</ele>
        <time>2014-07-27T07:41:41Z</time>
      </trkpt>
      <trkpt lat="41.612207995" lon="2.538618099">
        <ele>131.84</ele>
        <time>2014-07-27T07:41:48Z</time>
      </trkpt>
      <trkpt lat="41.612217885" lon="2.538585074">
        <ele>131.84</ele>
        <time>2014-07-27T07:42:01Z</time>
      </trkpt>
      <trkpt lat="41.612250994" lon="2.538537130">
        <ele>131.84</ele>
        <time>2014-07-27T07:42:05Z</time>
      </trkpt>
      <trkpt lat="41.612272284" lon="2.538481390">
        <ele>131.84</ele>
        <time>2014-07-27T07:42:08Z</time>
      </trkpt>
      <trkpt lat="41.612338920" lon="2.538399331">
        <ele>132.32</ele>
        <time>2014-07-27T07:42:16Z</time>
      </trkpt>
      <trkpt lat="41.612454423" lon="2.538283326">
        <ele>133.28</ele>
        <time>2014-07-27T07:42:23Z</time>
      </trkpt>
      <trkpt lat="41.612625497" lon="2.538074700">
        <ele>134.24</ele>
        <time>2014-07-27T07:42:32Z</time>
      </trkpt>
      <trkpt lat="41.612787184" lon="2.537848137">
        <ele>134.72</ele>
        <time>2014-07-27T07:42:41Z</time>
      </trkpt>
      <trkpt lat="41.612957924" lon="2.537663400">
        <ele>135.68</ele>
        <time>2014-07-27T07:42:49Z</time>
      </trkpt>
      <trkpt lat="41.613133022" lon="2.537441615">
        <ele>136.16</ele>
        <time>2014-07-27T07:42:57Z</time>
      </trkpt>
      <trkpt lat="41.613338797" lon="2.537203234">
        <ele>137.13</ele>
        <time>2014-07-27T07:43:06Z</time>
      </trkpt>
      <trkpt lat="41.613552703" lon="2.536923278">
        <ele>138.09</ele>
        <time>2014-07-27T07:43:16Z</time>
      </trkpt>
      <trkpt lat="41.613636942" lon="2.536615746">
        <ele>139.05</ele>
        <time>2014-07-27T07:43:25Z</time>
      </trkpt>
      <trkpt lat="41.613719587" lon="2.536361858">
        <ele>139.53</ele>
        <time>2014-07-27T07:43:33Z</time>
      </trkpt>
      <trkpt lat="41.613819751" lon="2.536123142">
        <ele>140.49</ele>
        <time>2014-07-27T07:43:41Z</time>
      </trkpt>
      <trkpt lat="41.613929302" lon="2.535837319">
        <ele>141.45</ele>
        <time>2014-07-27T07:43:50Z</time>
      </trkpt>
      <trkpt lat="41.614024353" lon="2.535550658">
        <ele>142.41</ele>
        <time>2014-07-27T07:43:59Z</time>
      </trkpt>
      <trkpt lat="41.614115632" lon="2.535281934">
        <ele>142.89</ele>
        <time>2014-07-27T07:44:07Z</time>
      </trkpt>
      <trkpt lat="41.614187046" lon="2.535018658">
        <ele>144.34</ele>
        <time>2014-07-27T07:44:15Z</time>
      </trkpt>
      <trkpt lat="41.614267345" lon="2.534775751">
        <ele>145.30</ele>
        <time>2014-07-27T07:44:23Z</time>
      </trkpt>
      <trkpt lat="41.614353511" lon="2.534537789">
        <ele>145.78</ele>
        <time>2014-07-27T07:44:31Z</time>
      </trkpt>
      <trkpt lat="41.614443365" lon="2.534219109">
        <ele>147.22</ele>
        <time>2014-07-27T07:44:41Z</time>
      </trkpt>
      <trkpt lat="41.614513353" lon="2.533953319">
        <ele>148.18</ele>
        <time>2014-07-27T07:44:49Z</time>
      </trkpt>
      <trkpt lat="41.614602285" lon="2.533697838">
        <ele>149.14</ele>
        <time>2014-07-27T07:44:57Z</time>
      </trkpt>
      <trkpt lat="41.614694570" lon="2.533397766">
        <ele>150.10</ele>
        <time>2014-07-27T07:45:06Z</time>
      </trkpt>
      <trkpt lat="41.614773947" lon="2.533164581">
        <ele>150.58</ele>
        <time>2014-07-27T07:45:13Z</time>
      </trkpt>
      <trkpt lat="41.614858939" lon="2.532887895">
        <ele>151.54</ele>
        <time>2014-07-27T07:45:21Z</time>
      </trkpt>
      <trkpt lat="41.614956672" lon="2.532565611">
        <ele>152.51</ele>
        <time>2014-07-27T07:45:31Z</time>
      </trkpt>
      <trkpt lat="41.615041497" lon="2.532294624">
        <ele>152.99</ele>
        <time>2014-07-27T07:45:39Z</time>
      </trkpt>
      <trkpt lat="41.615080892" lon="2.532004526">
        <ele>153.47</ele>
        <time>2014-07-27T07:45:47Z</time>
      </trkpt>
      <trkpt lat="41.615101176" lon="2.531765223">
        <ele>153.95</ele>
        <time>2014-07-27T07:45:54Z</time>
      </trkpt>
      <trkpt lat="41.615108971" lon="2.531425337">
        <ele>154.91</ele>
        <time>2014-07-27T07:46:04Z</time>
      </trkpt>
      <trkpt lat="41.615126238" lon="2.531179663">
        <ele>155.87</ele>
        <time>2014-07-27T07:46:11Z</time>
      </trkpt>
      <trkpt lat="41.615165717" lon="2.530839441">
        <ele>156.35</ele>
        <time>2014-07-27T07:46:20Z</time>
      </trkpt>
      <trkpt lat="41.615201591" lon="2.530433590">
        <ele>157.79</ele>
        <time>2014-07-27T07:46:31Z</time>
      </trkpt>
      <trkpt lat="41.615192204" lon="2.530174589">
        <ele>159.24</ele>
        <time>2014-07-27T07:46:39Z</time>
      </trkpt>
      <trkpt lat="41.615193712" lon="2.529892622">
        <ele>160.20</ele>
        <time>2014-07-27T07:46:47Z</time>
      </trkpt>
      <trkpt lat="41.615201591" lon="2.529561537">
        <ele>161.16</ele>
        <time>2014-07-27T07:46:57Z</time>
      </trkpt>
      <trkpt lat="41.615209554" lon="2.529217627">
        <ele>162.12</ele>
        <time>2014-07-27T07:47:07Z</time>
      </trkpt>
      <trkpt lat="41.615237298" lon="2.528901294">
        <ele>163.08</ele>
        <time>2014-07-27T07:47:16Z</time>
      </trkpt>
      <trkpt lat="41.615306952" lon="2.528509105">
        <ele>163.56</ele>
        <time>2014-07-27T07:47:27Z</time>
      </trkpt>
      <trkpt lat="41.615359339" lon="2.528249014">
        <ele>164.04</ele>
        <time>2014-07-27T07:47:35Z</time>
      </trkpt>
      <trkpt lat="41.615411139" lon="2.528020691">
        <ele>165.00</ele>
        <time>2014-07-27T07:47:42Z</time>
      </trkpt>
      <trkpt lat="41.615467130" lon="2.527721290">
        <ele>165.96</ele>
        <time>2014-07-27T07:47:51Z</time>
      </trkpt>
      <trkpt lat="41.615508872" lon="2.527499840">
        <ele>166.45</ele>
        <time>2014-07-27T07:47:58Z</time>
      </trkpt>
      <trkpt lat="41.615563606" lon="2.527251819">
        <ele>167.41</ele>
        <time>2014-07-27T07:48:06Z</time>
      </trkpt>
      <trkpt lat="41.615607778" lon="2.526975971">
        <ele>168.37</ele>
        <time>2014-07-27T07:48:15Z</time>
      </trkpt>
      <trkpt lat="41.615616747" lon="2.526787713">
        <ele>169.33</ele>
        <time>2014-07-27T07:48:21Z</time>
      </trkpt>
      <trkpt lat="41.615592691" lon="2.526562072">
        <ele>170.77</ele>
        <time>2014-07-27T07:48:28Z</time>
      </trkpt>
      <trkpt lat="41.615565450" lon="2.526320255">
        <ele>171.25</ele>
        <time>2014-07-27T07:48:35Z</time>
      </trkpt>
      <trkpt lat="41.615536029" lon="2.526087154">
        <ele>171.25</ele>
        <time>2014-07-27T07:48:42Z</time>
      </trkpt>
      <trkpt lat="41.615534437" lon="2.525740143">
        <ele>172.69</ele>
        <time>2014-07-27T07:48:51Z</time>
      </trkpt>
      <trkpt lat="41.615523373" lon="2.525353821">
        <ele>173.66</ele>
        <time>2014-07-27T07:49:02Z</time>
      </trkpt>
      <trkpt lat="41.615558744" lon="2.525049642">
        <ele>174.62</ele>
        <time>2014-07-27T07:49:11Z</time>
      </trkpt>
      <trkpt lat="41.615571820" lon="2.524833975">
        <ele>175.58</ele>
        <time>2014-07-27T07:49:18Z</time>
      </trkpt>
      <trkpt lat="41.615589003" lon="2.524581513">
        <ele>176.54</ele>
        <time>2014-07-27T07:49:26Z</time>
      </trkpt>
      <trkpt lat="41.615592523" lon="2.524386633">
        <ele>177.02</ele>
        <time>2014-07-27T07:49:32Z</time>
      </trkpt>
      <trkpt lat="41.615615993" lon="2.524106259">
        <ele>178.94</ele>
        <time>2014-07-27T07:49:41Z</time>
      </trkpt>
      <trkpt lat="41.615628985" lon="2.524012800">
        <ele>179.42</ele>
        <time>2014-07-27T07:49:44Z</time>
      </trkpt>
      <trkpt lat="41.615634098" lon="2.523728822">
        <ele>180.38</ele>
        <time>2014-07-27T07:49:53Z</time>
      </trkpt>
      <trkpt lat="41.615680869" lon="2.523365382">
        <ele>181.35</ele>
        <time>2014-07-27T07:50:03Z</time>
      </trkpt>
      <trkpt lat="41.615718671" lon="2.523082325">
        <ele>181.83</ele>
        <time>2014-07-27T07:50:11Z</time>
      </trkpt>
      <trkpt lat="41.615743062" lon="2.522855427">
        <ele>182.79</ele>
        <time>2014-07-27T07:50:18Z</time>
      </trkpt>
      <trkpt lat="41.615781871" lon="2.522582512">
        <ele>183.75</ele>
        <time>2014-07-27T07:50:26Z</time>
      </trkpt>
      <trkpt lat="41.615825457" lon="2.522276657">
        <ele>185.19</ele>
        <time>2014-07-27T07:50:35Z</time>
      </trkpt>
      <trkpt lat="41.615847082" lon="2.522047579">
        <ele>185.67</ele>
        <time>2014-07-27T07:50:42Z</time>
      </trkpt>
      <trkpt lat="41.615873485" lon="2.521781035">
        <ele>186.63</ele>
        <time>2014-07-27T07:50:51Z</time>
      </trkpt>
      <trkpt lat="41.615913969" lon="2.521445759">
        <ele>187.11</ele>
        <time>2014-07-27T07:51:00Z</time>
      </trkpt>
      <trkpt lat="41.615963926" lon="2.521214586">
        <ele>187.59</ele>
        <time>2014-07-27T07:51:07Z</time>
      </trkpt>
      <trkpt lat="41.616021761" lon="2.520907724">
        <ele>188.08</ele>
        <time>2014-07-27T07:51:16Z</time>
      </trkpt>
      <trkpt lat="41.616072304" lon="2.520695076">
        <ele>188.56</ele>
        <time>2014-07-27T07:51:23Z</time>
      </trkpt>
      <trkpt lat="41.616169785" lon="2.520371869">
        <ele>189.04</ele>
        <time>2014-07-27T07:51:33Z</time>
      </trkpt>
      <trkpt lat="41.616265087" lon="2.520130806">
        <ele>190.00</ele>
        <time>2014-07-27T07:51:42Z</time>
      </trkpt>
      <trkpt lat="41.616276235" lon="2.520112030">
        <ele>190.00</ele>
        <time>2014-07-27T07:51:43Z</time>
      </trkpt>
      <trkpt lat="41.616427193" lon="2.519956630">
        <ele>190.00</ele>
        <time>2014-07-27T07:51:50Z</time>
      </trkpt>
      <trkpt lat="41.616489052" lon="2.519907596">
        <ele>188.56</ele>
        <time>2014-07-27T07:51:52Z</time>
      </trkpt>
      <trkpt lat="41.616637076" lon="2.519815814">
        <ele>188.56</ele>
        <time>2014-07-27T07:51:59Z</time>
      </trkpt>
      <trkpt lat="41.616803206" lon="2.519732079">
        <ele>190.96</ele>
        <time>2014-07-27T07:52:07Z</time>
      </trkpt>
      <trkpt lat="41.617039240" lon="2.519687235">
        <ele>191.92</ele>
        <time>2014-07-27T07:52:17Z</time>
      </trkpt>
      <trkpt lat="41.617241076" lon="2.519656893">
        <ele>192.40</ele>
        <time>2014-07-27T07:52:26Z</time>
      </trkpt>
      <trkpt lat="41.617426819" lon="2.519645997">
        <ele>193.36</ele>
        <time>2014-07-27T07:52:34Z</time>
      </trkpt>
      <trkpt lat="41.617579873" lon="2.519634178">
        <ele>194.32</ele>
        <time>2014-07-27T07:52:41Z</time>
      </trkpt>
      <trkpt lat="41.617718509" lon="2.519619677">
        <ele>195.28</ele>
        <time>2014-07-27T07:52:48Z</time>
      </trkpt>
      <trkpt lat="41.617795371" lon="2.519616157">
        <ele>195.28</ele>
        <time>2014-07-27T07:52:54Z</time>
      </trkpt>
      <trkpt lat="41.617822193" lon="2.519636022">
        <ele>196.25</ele>
        <time>2014-07-27T07:53:02Z</time>
      </trkpt>
      <trkpt lat="41.617833258" lon="2.519682458">
        <ele>196.25</ele>
        <time>2014-07-27T07:53:09Z</time>
      </trkpt>
      <trkpt lat="41.617819092" lon="2.519699389">
        <ele>196.25</ele>
        <time>2014-07-27T07:53:16Z</time>
      </trkpt>
      <trkpt lat="41.617826384" lon="2.519698132">
        <ele>196.25</ele>
        <time>2014-07-27T07:53:20Z</time>
      </trkpt>
      <trkpt lat="41.617881202" lon="2.519787651">
        <ele>197.21</ele>
        <time>2014-07-27T07:53:27Z</time>
      </trkpt>
      <trkpt lat="41.617893021" lon="2.519844312">
        <ele>197.21</ele>
        <time>2014-07-27T07:53:30Z</time>
      </trkpt>
      <trkpt lat="41.617852368" lon="2.520004239">
        <ele>198.65</ele>
        <time>2014-07-27T07:53:38Z</time>
      </trkpt>
      <trkpt lat="41.617730579" lon="2.520115299">
        <ele>200.57</ele>
        <time>2014-07-27T07:53:46Z</time>
      </trkpt>
      <trkpt lat="41.617670816" lon="2.520270364">
        <ele>202.49</ele>
        <time>2014-07-27T07:53:55Z</time>
      </trkpt>
      <trkpt lat="41.617694537" lon="2.520429956">
        <ele>203.94</ele>
        <time>2014-07-27T07:54:03Z</time>
      </trkpt>
      <trkpt lat="41.617641647" lon="2.520620057">
        <ele>204.42</ele>
        <time>2014-07-27T07:54:12Z</time>
      </trkpt>
      <trkpt lat="41.617668721" lon="2.520800688">
        <ele>205.38</ele>
        <time>2014-07-27T07:54:20Z</time>
      </trkpt>
      <trkpt lat="41.617709541" lon="2.520964051">
        <ele>206.34</ele>
        <time>2014-07-27T07:54:28Z</time>
      </trkpt>
      <trkpt lat="41.617781122" lon="2.521174939">
        <ele>206.82</ele>
        <time>2014-07-27T07:54:38Z</time>
      </trkpt>
      <trkpt lat="41.617854967" lon="2.521423379">
        <ele>208.26</ele>
        <time>2014-07-27T07:54:49Z</time>
      </trkpt>
      <trkpt lat="41.617895703" lon="2.521576936">
        <ele>209.70</ele>
        <time>2014-07-27T07:54:57Z</time>
      </trkpt>
      <trkpt lat="41.617922022" lon="2.521628233">
        <ele>210.19</ele>
        <time>2014-07-27T07:55:00Z</time>
      </trkpt>
      <trkpt lat="41.617965440" lon="2.521638123">
        <ele>210.67</ele>
        <time>2014-07-27T07:55:04Z</time>
      </trkpt>
      <trkpt lat="41.618038363" lon="2.521478951">
        <ele>213.07</ele>
        <time>2014-07-27T07:55:14Z</time>
      </trkpt>
      <trkpt lat="41.618106089" lon="2.521346936">
        <ele>214.51</ele>
        <time>2014-07-27T07:55:22Z</time>
      </trkpt>
      <trkpt lat="41.618188315" lon="2.521211149">
        <ele>215.95</ele>
        <time>2014-07-27T07:55:31Z</time>
      </trkpt>
      <trkpt lat="41.618260483" lon="2.521066561">
        <ele>217.88</ele>
        <time>2014-07-27T07:55:40Z</time>
      </trkpt>
      <trkpt lat="41.618271799" lon="2.521034543">
        <ele>217.88</ele>
        <time>2014-07-27T07:55:42Z</time>
      </trkpt>
      <trkpt lat="41.618303231" lon="2.520896744">
        <ele>219.80</ele>
        <time>2014-07-27T07:55:50Z</time>
      </trkpt>
      <trkpt lat="41.618317648" lon="2.520813679">
        <ele>220.28</ele>
        <time>2014-07-27T07:55:55Z</time>
      </trkpt>
      <trkpt lat="41.618370705" lon="2.520672863">
        <ele>222.20</ele>
        <time>2014-07-27T07:56:04Z</time>
      </trkpt>
      <trkpt lat="41.618464415" lon="2.520605389">
        <ele>223.64</ele>
        <time>2014-07-27T07:56:13Z</time>
      </trkpt>
      <trkpt lat="41.618530800" lon="2.520574125">
        <ele>224.12</ele>
        <time>2014-07-27T07:56:19Z</time>
      </trkpt>
      <trkpt lat="41.618542115" lon="2.520570688">
        <ele>224.12</ele>
        <time>2014-07-27T07:56:20Z</time>
      </trkpt>
      <trkpt lat="41.618658372" lon="2.520553170">
        <ele>225.57</ele>
        <time>2014-07-27T07:56:29Z</time>
      </trkpt>
      <trkpt lat="41.618685865" lon="2.520544788">
        <ele>225.57</ele>
        <time>2014-07-27T07:56:31Z</time>
      </trkpt>
      <trkpt lat="41.618740347" lon="2.520526599">
        <ele>226.53</ele>
        <time>2014-07-27T07:56:35Z</time>
      </trkpt>
      <trkpt lat="41.618859957" lon="2.520482175">
        <ele>227.97</ele>
        <time>2014-07-27T07:56:44Z</time>
      </trkpt>
      <trkpt lat="41.618991888" lon="2.520409336">
        <ele>229.41</ele>
        <time>2014-07-27T07:56:54Z</time>
      </trkpt>
      <trkpt lat="41.619086687" lon="2.520361308">
        <ele>231.33</ele>
        <time>2014-07-27T07:57:02Z</time>
      </trkpt>
      <trkpt lat="41.619185929" lon="2.520302802">
        <ele>232.78</ele>
        <time>2014-07-27T07:57:10Z</time>
      </trkpt>
      <trkpt lat="41.619286680" lon="2.520281429">
        <ele>233.74</ele>
        <time>2014-07-27T07:57:18Z</time>
      </trkpt>
      <trkpt lat="41.619396734" lon="2.520333145">
        <ele>235.18</ele>
        <time>2014-07-27T07:57:27Z</time>
      </trkpt>
      <trkpt lat="41.619493545" lon="2.520355944">
        <ele>237.10</ele>
        <time>2014-07-27T07:57:35Z</time>
      </trkpt>
      <trkpt lat="41.619583399" lon="2.520341527">
        <ele>238.54</ele>
        <time>2014-07-27T07:57:43Z</time>
      </trkpt>
      <trkpt lat="41.619712564" lon="2.520277070">
        <ele>240.95</ele>
        <time>2014-07-27T07:57:53Z</time>
      </trkpt>
      <trkpt lat="41.619818428" lon="2.520234741">
        <ele>242.87</ele>
        <time>2014-07-27T07:58:02Z</time>
      </trkpt>
      <trkpt lat="41.619919094" lon="2.520172129">
        <ele>244.31</ele>
        <time>2014-07-27T07:58:10Z</time>
      </trkpt>
      <trkpt lat="41.620031160" lon="2.520112785">
        <ele>245.75</ele>
        <time>2014-07-27T07:58:19Z</time>
      </trkpt>
      <trkpt lat="41.620128390" lon="2.520086382">
        <ele>247.20</ele>
        <time>2014-07-27T07:58:27Z</time>
      </trkpt>
      <trkpt lat="41.620219166" lon="2.520102307">
        <ele>248.16</ele>
        <time>2014-07-27T07:58:35Z</time>
      </trkpt>
      <trkpt lat="41.620337938" lon="2.520127453">
        <ele>249.60</ele>
        <time>2014-07-27T07:58:44Z</time>
      </trkpt>
      <trkpt lat="41.620495099" lon="2.520163244">
        <ele>251.04</ele>
        <time>2014-07-27T07:58:54Z</time>
      </trkpt>
      <trkpt lat="41.620602303" lon="2.520176152">
        <ele>252.48</ele>
        <time>2014-07-27T07:59:03Z</time>
      </trkpt>
      <trkpt lat="41.620755943" lon="2.520193167">
        <ele>254.41</ele>
        <time>2014-07-27T07:59:13Z</time>
      </trkpt>
      <trkpt lat="41.620883265" lon="2.520220325">
        <ele>255.85</ele>
        <time>2014-07-27T07:59:23Z</time>
      </trkpt>
      <trkpt lat="41.620996253" lon="2.520244129">
        <ele>257.29</ele>
        <time>2014-07-27T07:59:32Z</time>
      </trkpt>
      <trkpt lat="41.621110246" lon="2.520255780">
        <ele>258.25</ele>
        <time>2014-07-27T07:59:40Z</time>
      </trkpt>
      <trkpt lat="41.621173781" lon="2.520265168">
        <ele>259.21</ele>
        <time>2014-07-27T07:59:45Z</time>
      </trkpt>
      <trkpt lat="41.621289116" lon="2.520274555">
        <ele>260.65</ele>
        <time>2014-07-27T07:59:53Z</time>
      </trkpt>
      <trkpt lat="41.621302360" lon="2.520277489">
        <ele>260.65</ele>
        <time>2014-07-27T07:59:54Z</time>
      </trkpt>
      <trkpt lat="41.621429262" lon="2.520298276">
        <ele>263.06</ele>
        <time>2014-07-27T08:00:04Z</time>
      </trkpt>
      <trkpt lat="41.621456000" lon="2.520296767">
        <ele>263.06</ele>
        <time>2014-07-27T08:00:06Z</time>
      </trkpt>
      <trkpt lat="41.621578124" lon="2.520336917">
        <ele>264.50</ele>
        <time>2014-07-27T08:00:15Z</time>
      </trkpt>
      <trkpt lat="41.621662865" lon="2.520360470">
        <ele>266.42</ele>
        <time>2014-07-27T08:00:22Z</time>
      </trkpt>
      <trkpt lat="41.621750959" lon="2.520376060">
        <ele>268.35</ele>
        <time>2014-07-27T08:00:30Z</time>
      </trkpt>
      <trkpt lat="41.621877191" lon="2.520399530">
        <ele>270.75</ele>
        <time>2014-07-27T08:00:40Z</time>
      </trkpt>
      <trkpt lat="41.621975343" lon="2.520420484">
        <ele>272.67</ele>
        <time>2014-07-27T08:00:48Z</time>
      </trkpt>
      <trkpt lat="41.622079865" lon="2.520404223">
        <ele>274.11</ele>
        <time>2014-07-27T08:00:58Z</time>
      </trkpt>
      <trkpt lat="41.622186231" lon="2.520360051">
        <ele>276.04</ele>
        <time>2014-07-27T08:01:07Z</time>
      </trkpt>
      <trkpt lat="41.622305003" lon="2.520332055">
        <ele>277.96</ele>
        <time>2014-07-27T08:01:17Z</time>
      </trkpt>
      <trkpt lat="41.622415728" lon="2.520337755">
        <ele>278.92</ele>
        <time>2014-07-27T08:01:25Z</time>
      </trkpt>
      <trkpt lat="41.622424948" lon="2.520344377">
        <ele>278.92</ele>
        <time>2014-07-27T08:01:26Z</time>
      </trkpt>
      <trkpt lat="41.622473731" lon="2.520400368">
        <ele>279.88</ele>
        <time>2014-07-27T08:01:31Z</time>
      </trkpt>
      <trkpt lat="41.622415476" lon="2.520489132">
        <ele>280.84</ele>
        <time>2014-07-27T08:01:38Z</time>
      </trkpt>
      <trkpt lat="41.622283545" lon="2.520565910">
        <ele>282.28</ele>
        <time>2014-07-27T08:01:49Z</time>
      </trkpt>
      <trkpt lat="41.622260830" lon="2.520586781">
        <ele>282.77</ele>
        <time>2014-07-27T08:01:51Z</time>
      </trkpt>
      <trkpt lat="41.622178855" lon="2.520658866">
        <ele>284.21</ele>
        <time>2014-07-27T08:01:59Z</time>
      </trkpt>
      <trkpt lat="41.622052959" lon="2.520765484">
        <ele>286.13</ele>
        <time>2014-07-27T08:02:11Z</time>
      </trkpt>
      <trkpt lat="41.621956903" lon="2.520838406">
        <ele>288.05</ele>
        <time>2014-07-27T08:02:20Z</time>
      </trkpt>
      <trkpt lat="41.621846597" lon="2.520923147">
        <ele>289.01</ele>
        <time>2014-07-27T08:02:29Z</time>
      </trkpt>
      <trkpt lat="41.621749870" lon="2.520997159">
        <ele>289.49</ele>
        <time>2014-07-27T08:02:36Z</time>
      </trkpt>
      <trkpt lat="41.621621207" lon="2.521040494">
        <ele>289.97</ele>
        <time>2014-07-27T08:02:45Z</time>
      </trkpt>
      <trkpt lat="41.621581561" lon="2.521037560">
        <ele>290.46</ele>
        <time>2014-07-27T08:02:48Z</time>
      </trkpt>
      <trkpt lat="41.621514422" lon="2.521016438">
        <ele>290.94</ele>
        <time>2014-07-27T08:02:53Z</time>
      </trkpt>
      <trkpt lat="41.621429597" lon="2.520982826">
        <ele>291.42</ele>
        <time>2014-07-27T08:02:59Z</time>
      </trkpt>
      <trkpt lat="41.621352819" lon="2.520982240">
        <ele>291.90</ele>
        <time>2014-07-27T08:03:04Z</time>
      </trkpt>
      <trkpt lat="41.621226084" lon="2.521006212">
        <ele>292.38</ele>
        <time>2014-07-27T08:03:13Z</time>
      </trkpt>
      <trkpt lat="41.621116868" lon="2.521020712">
        <ele>293.34</ele>
        <time>2014-07-27T08:03:21Z</time>
      </trkpt>
      <trkpt lat="41.621066828" lon="2.521095060">
        <ele>294.30</ele>
        <time>2014-07-27T08:03:27Z</time>
      </trkpt>
      <trkpt lat="41.621153665" lon="2.521116266">
        <ele>295.26</ele>
        <time>2014-07-27T08:03:34Z</time>
      </trkpt>
      <trkpt lat="41.621188198" lon="2.521103945">
        <ele>295.74</ele>
        <time>2014-07-27T08:03:37Z</time>
      </trkpt>
      <trkpt lat="41.621252487" lon="2.521136299">
        <ele>297.18</ele>
        <time>2014-07-27T08:03:43Z</time>
      </trkpt>
      <trkpt lat="41.621279729" lon="2.521176700">
        <ele>297.67</ele>
        <time>2014-07-27T08:03:47Z</time>
      </trkpt>
      <trkpt lat="41.621359021" lon="2.521288933">
        <ele>300.07</ele>
        <time>2014-07-27T08:03:58Z</time>
      </trkpt>
      <trkpt lat="41.621445020" lon="2.521397311">
        <ele>301.51</ele>
        <time>2014-07-27T08:04:07Z</time>
      </trkpt>
      <trkpt lat="41.621512578" lon="2.521513987">
        <ele>302.47</ele>
        <time>2014-07-27T08:04:15Z</time>
      </trkpt>
      <trkpt lat="41.621562953" lon="2.521582719">
        <ele>303.43</ele>
        <time>2014-07-27T08:04:20Z</time>
      </trkpt>
      <trkpt lat="41.621627913" lon="2.521721859">
        <ele>305.36</ele>
        <time>2014-07-27T08:04:30Z</time>
      </trkpt>
      <trkpt lat="41.621686921" lon="2.521852030">
        <ele>306.80</ele>
        <time>2014-07-27T08:04:39Z</time>
      </trkpt>
      <trkpt lat="41.621734447" lon="2.521965437">
        <ele>308.24</ele>
        <time>2014-07-27T08:04:47Z</time>
      </trkpt>
      <trkpt lat="41.621780380" lon="2.522069875">
        <ele>309.20</ele>
        <time>2014-07-27T08:04:54Z</time>
      </trkpt>
      <trkpt lat="41.621821535" lon="2.522195269">
        <ele>310.64</ele>
        <time>2014-07-27T08:05:01Z</time>
      </trkpt>
      <trkpt lat="41.621896720" lon="2.522224689">
        <ele>311.60</ele>
        <time>2014-07-27T08:05:07Z</time>
      </trkpt>
      <trkpt lat="41.621921866" lon="2.522134667">
        <ele>312.57</ele>
        <time>2014-07-27T08:05:13Z</time>
      </trkpt>
      <trkpt lat="41.621914574" lon="2.521995360">
        <ele>314.01</ele>
        <time>2014-07-27T08:05:22Z</time>
      </trkpt>
      <trkpt lat="41.621935361" lon="2.521858065">
        <ele>315.45</ele>
        <time>2014-07-27T08:05:30Z</time>
      </trkpt>
      <trkpt lat="41.621965704" lon="2.521700485">
        <ele>316.41</ele>
        <time>2014-07-27T08:05:39Z</time>
      </trkpt>
      <trkpt lat="41.622030579" lon="2.521559166">
        <ele>317.37</ele>
        <time>2014-07-27T08:05:48Z</time>
      </trkpt>
      <trkpt lat="41.622104759" lon="2.521504348">
        <ele>317.85</ele>
        <time>2014-07-27T08:05:55Z</time>
      </trkpt>
      <trkpt lat="41.622148178" lon="2.521510635">
        <ele>318.81</ele>
        <time>2014-07-27T08:05:59Z</time>
      </trkpt>
      <trkpt lat="41.622260076" lon="2.521585904">
        <ele>319.78</ele>
        <time>2014-07-27T08:06:09Z</time>
      </trkpt>
      <trkpt lat="41.622308356" lon="2.521625132">
        <ele>321.22</ele>
        <time>2014-07-27T08:06:13Z</time>
      </trkpt>
      <trkpt lat="41.622403239" lon="2.521698892">
        <ele>321.70</ele>
        <time>2014-07-27T08:06:20Z</time>
      </trkpt>
      <trkpt lat="41.622451686" lon="2.521723451">
        <ele>322.18</ele>
        <time>2014-07-27T08:06:23Z</time>
      </trkpt>
      <trkpt lat="41.622493260" lon="2.521752453">
        <ele>322.18</ele>
        <time>2014-07-27T08:06:26Z</time>
      </trkpt>
      <trkpt lat="41.622622677" lon="2.521820095">
        <ele>325.06</ele>
        <time>2014-07-27T08:06:36Z</time>
      </trkpt>
      <trkpt lat="41.622746310" lon="2.521848342">
        <ele>325.54</ele>
        <time>2014-07-27T08:06:44Z</time>
      </trkpt>
      <trkpt lat="41.622858376" lon="2.521829482">
        <ele>326.99</ele>
        <time>2014-07-27T08:06:53Z</time>
      </trkpt>
      <trkpt lat="41.622949655" lon="2.521810874">
        <ele>327.95</ele>
        <time>2014-07-27T08:07:00Z</time>
      </trkpt>
      <trkpt lat="41.623082844" lon="2.521760080">
        <ele>329.39</ele>
        <time>2014-07-27T08:07:10Z</time>
      </trkpt>
      <trkpt lat="41.623197843" lon="2.521827974">
        <ele>330.35</ele>
        <time>2014-07-27T08:07:18Z</time>
      </trkpt>
      <trkpt lat="41.623301611" lon="2.521940207">
        <ele>331.31</ele>
        <time>2014-07-27T08:07:26Z</time>
      </trkpt>
      <trkpt lat="41.623341593" lon="2.522003826">
        <ele>331.79</ele>
        <time>2014-07-27T08:07:30Z</time>
      </trkpt>
      <trkpt lat="41.623465729" lon="2.522140451">
        <ele>332.27</ele>
        <time>2014-07-27T08:07:40Z</time>
      </trkpt>
      <trkpt lat="41.623561450" lon="2.522233155">
        <ele>332.75</ele>
        <time>2014-07-27T08:07:48Z</time>
      </trkpt>
      <trkpt lat="41.623659602" lon="2.522314040">
        <ele>333.23</ele>
        <time>2014-07-27T08:07:56Z</time>
      </trkpt>
      <trkpt lat="41.623755910" lon="2.522396770">
        <ele>333.71</ele>
        <time>2014-07-27T08:08:03Z</time>
      </trkpt>
      <trkpt lat="41.623879795" lon="2.522519732">
        <ele>334.68</ele>
        <time>2014-07-27T08:08:11Z</time>
      </trkpt>
      <trkpt lat="41.623981467" lon="2.522678569">
        <ele>335.16</ele>
        <time>2014-07-27T08:08:19Z</time>
      </trkpt>
      <trkpt lat="41.624098898" lon="2.522944695">
        <ele>335.64</ele>
        <time>2014-07-27T08:08:30Z</time>
      </trkpt>
      <trkpt lat="41.624159750" lon="2.523143765">
        <ele>336.60</ele>
        <time>2014-07-27T08:08:38Z</time>
      </trkpt>
      <trkpt lat="41.624230997" lon="2.523407292">
        <ele>336.60</ele>
        <time>2014-07-27T08:08:47Z</time>
      </trkpt>
      <trkpt lat="41.624302746" lon="2.523613906">
        <ele>338.04</ele>
        <time>2014-07-27T08:08:56Z</time>
      </trkpt>
      <trkpt lat="41.624412633" lon="2.523858238">
        <ele>339.96</ele>
        <time>2014-07-27T08:09:07Z</time>
      </trkpt>
      <trkpt lat="41.624490249" lon="2.524029397">
        <ele>340.92</ele>
        <time>2014-07-27T08:09:15Z</time>
      </trkpt>
      <trkpt lat="41.624551437" lon="2.524203237">
        <ele>342.37</ele>
        <time>2014-07-27T08:09:23Z</time>
      </trkpt>
      <trkpt lat="41.624637351" lon="2.524433740">
        <ele>343.81</ele>
        <time>2014-07-27T08:09:33Z</time>
      </trkpt>
      <trkpt lat="41.624710609" lon="2.524637085">
        <ele>344.77</ele>
        <time>2014-07-27T08:09:42Z</time>
      </trkpt>
      <trkpt lat="41.624777497" lon="2.524817882">
        <ele>345.25</ele>
        <time>2014-07-27T08:09:50Z</time>
      </trkpt>
      <trkpt lat="41.624855365" lon="2.525012091">
        <ele>346.21</ele>
        <time>2014-07-27T08:09:58Z</time>
      </trkpt>
      <trkpt lat="41.624980423" lon="2.525209820">
        <ele>346.69</ele>
        <time>2014-07-27T08:10:06Z</time>
      </trkpt>
      <trkpt lat="41.625159712" lon="2.525404448">
        <ele>346.69</ele>
        <time>2014-07-27T08:10:15Z</time>
      </trkpt>
      <trkpt lat="41.625279154" lon="2.525538977">
        <ele>347.65</ele>
        <time>2014-07-27T08:10:22Z</time>
      </trkpt>
      <trkpt lat="41.625403038" lon="2.525740562">
        <ele>347.65</ele>
        <time>2014-07-27T08:10:31Z</time>
      </trkpt>
      <trkpt lat="41.625545531" lon="2.525981123">
        <ele>348.13</ele>
        <time>2014-07-27T08:10:40Z</time>
      </trkpt>
      <trkpt lat="41.625757090" lon="2.526161082">
        <ele>348.13</ele>
        <time>2014-07-27T08:10:48Z</time>
      </trkpt>
      <trkpt lat="41.625947610" lon="2.526305586">
        <ele>348.62</ele>
        <time>2014-07-27T08:10:55Z</time>
      </trkpt>
      <trkpt lat="41.626064287" lon="2.526431063">
        <ele>348.62</ele>
        <time>2014-07-27T08:11:01Z</time>
      </trkpt>
      <trkpt lat="41.626171575" lon="2.526585793">
        <ele>348.62</ele>
        <time>2014-07-27T08:11:08Z</time>
      </trkpt>
      <trkpt lat="41.626263273" lon="2.526775811">
        <ele>349.10</ele>
        <time>2014-07-27T08:11:16Z</time>
      </trkpt>
      <trkpt lat="41.626308200" lon="2.526949819">
        <ele>349.10</ele>
        <time>2014-07-27T08:11:23Z</time>
      </trkpt>
      <trkpt lat="41.626378859" lon="2.526989214">
        <ele>349.58</ele>
        <time>2014-07-27T08:11:28Z</time>
      </trkpt>
      <trkpt lat="41.626399814" lon="2.527063310">
        <ele>349.58</ele>
        <time>2014-07-27T08:11:33Z</time>
      </trkpt>
      <trkpt lat="41.626444238" lon="2.527123995">
        <ele>350.54</ele>
        <time>2014-07-27T08:11:42Z</time>
      </trkpt>
      <trkpt lat="41.626433426" lon="2.527112093">
        <ele>351.02</ele>
        <time>2014-07-27T08:11:59Z</time>
      </trkpt>
      <trkpt lat="41.626451782" lon="2.527155260">
        <ele>351.02</ele>
        <time>2014-07-27T08:12:08Z</time>
      </trkpt>
      <trkpt lat="41.626530404" lon="2.527200857">
        <ele>351.50</ele>
        <time>2014-07-27T08:12:14Z</time>
      </trkpt>
      <trkpt lat="41.626549515" lon="2.527199600">
        <ele>351.50</ele>
        <time>2014-07-27T08:12:15Z</time>
      </trkpt>
      <trkpt lat="41.626714052" lon="2.527179735">
        <ele>352.94</ele>
        <time>2014-07-27T08:12:24Z</time>
      </trkpt>
      <trkpt lat="41.626850928" lon="2.527167246">
        <ele>353.90</ele>
        <time>2014-07-27T08:12:32Z</time>
      </trkpt>
      <trkpt lat="41.627102050" lon="2.527166324">
        <ele>354.86</ele>
        <time>2014-07-27T08:12:43Z</time>
      </trkpt>
      <trkpt lat="41.627272035" lon="2.527112847">
        <ele>354.86</ele>
        <time>2014-07-27T08:12:49Z</time>
      </trkpt>
      <trkpt lat="41.627376054" lon="2.526930373">
        <ele>354.86</ele>
        <time>2014-07-27T08:12:55Z</time>
      </trkpt>
      <trkpt lat="41.627471440" lon="2.526767261">
        <ele>354.86</ele>
        <time>2014-07-27T08:13:03Z</time>
      </trkpt>
      <trkpt lat="41.627554505" lon="2.526635079">
        <ele>356.79</ele>
        <time>2014-07-27T08:13:10Z</time>
      </trkpt>
      <trkpt lat="41.627643186" lon="2.526525779">
        <ele>358.23</ele>
        <time>2014-07-27T08:13:17Z</time>
      </trkpt>
      <trkpt lat="41.627769585" lon="2.526359733">
        <ele>359.67</ele>
        <time>2014-07-27T08:13:26Z</time>
      </trkpt>
      <trkpt lat="41.627838819" lon="2.526209362">
        <ele>361.59</ele>
        <time>2014-07-27T08:13:34Z</time>
      </trkpt>
      <trkpt lat="41.627923728" lon="2.526015237">
        <ele>362.55</ele>
        <time>2014-07-27T08:13:43Z</time>
      </trkpt>
      <trkpt lat="41.627957339" lon="2.525828907">
        <ele>364.00</ele>
        <time>2014-07-27T08:13:52Z</time>
      </trkpt>
      <trkpt lat="41.627944766" lon="2.525774425">
        <ele>364.00</ele>
        <time>2014-07-27T08:13:55Z</time>
      </trkpt>
      <trkpt lat="41.627848626" lon="2.525794458">
        <ele>364.96</ele>
        <time>2014-07-27T08:14:03Z</time>
      </trkpt>
      <trkpt lat="41.627764053" lon="2.525921360">
        <ele>365.44</ele>
        <time>2014-07-27T08:14:10Z</time>
      </trkpt>
      <trkpt lat="41.627663218" lon="2.526001323">
        <ele>365.92</ele>
        <time>2014-07-27T08:14:17Z</time>
      </trkpt>
      <trkpt lat="41.627548302" lon="2.526069217">
        <ele>366.40</ele>
        <time>2014-07-27T08:14:24Z</time>
      </trkpt>
      <trkpt lat="41.627410504" lon="2.526112635">
        <ele>366.40</ele>
        <time>2014-07-27T08:14:31Z</time>
      </trkpt>
      <trkpt lat="41.627353759" lon="2.526126716">
        <ele>366.88</ele>
        <time>2014-07-27T08:14:34Z</time>
      </trkpt>
      <trkpt lat="41.627225599" lon="2.526222941">
        <ele>367.84</ele>
        <time>2014-07-27T08:14:43Z</time>
      </trkpt>
      <trkpt lat="41.627119820" lon="2.526335593">
        <ele>368.80</ele>
        <time>2014-07-27T08:14:51Z</time>
      </trkpt>
      <trkpt lat="41.626999372" lon="2.526323104">
        <ele>368.80</ele>
        <time>2014-07-27T08:14:57Z</time>
      </trkpt>
      <trkpt lat="41.626926701" lon="2.526207769">
        <ele>369.76</ele>
        <time>2014-07-27T08:15:04Z</time>
      </trkpt>
      <trkpt lat="41.626825615" lon="2.525968550">
        <ele>370.73</ele>
        <time>2014-07-27T08:15:15Z</time>
      </trkpt>
      <trkpt lat="41.626772725" lon="2.525808623">
        <ele>372.17</ele>
        <time>2014-07-27T08:15:23Z</time>
      </trkpt>
      <trkpt lat="41.626720590" lon="2.525655486">
        <ele>373.61</ele>
        <time>2014-07-27T08:15:31Z</time>
      </trkpt>
      <trkpt lat="41.626668286" lon="2.525530595">
        <ele>375.05</ele>
        <time>2014-07-27T08:15:38Z</time>
      </trkpt>
      <trkpt lat="41.626627718" lon="2.525439065">
        <ele>375.53</ele>
        <time>2014-07-27T08:15:43Z</time>
      </trkpt>
      <trkpt lat="41.626552281" lon="2.525285760">
        <ele>378.42</ele>
        <time>2014-07-27T08:15:52Z</time>
      </trkpt>
      <trkpt lat="41.626544067" lon="2.525267152">
        <ele>378.42</ele>
        <time>2014-07-27T08:15:53Z</time>
      </trkpt>
      <trkpt lat="41.626486148" lon="2.525146872">
        <ele>379.86</ele>
        <time>2014-07-27T08:15:59Z</time>
      </trkpt>
      <trkpt lat="41.626408364" lon="2.524951741">
        <ele>381.30</ele>
        <time>2014-07-27T08:16:10Z</time>
      </trkpt>
      <trkpt lat="41.626365784" lon="2.524740182">
        <ele>383.70</ele>
        <time>2014-07-27T08:16:21Z</time>
      </trkpt>
      <trkpt lat="41.626324964" lon="2.524585201">
        <ele>385.63</ele>
        <time>2014-07-27T08:16:30Z</time>
      </trkpt>
      <trkpt lat="41.626289927" lon="2.524439691">
        <ele>386.59</ele>
        <time>2014-07-27T08:16:38Z</time>
      </trkpt>
      <trkpt lat="41.626232847" lon="2.524300467">
        <ele>388.51</ele>
        <time>2014-07-27T08:16:47Z</time>
      </trkpt>
      <trkpt lat="41.626177777" lon="2.524146995">
        <ele>391.87</ele>
        <time>2014-07-27T08:16:57Z</time>
      </trkpt>
      <trkpt lat="41.626171826" lon="2.524130818">
        <ele>391.87</ele>
        <time>2014-07-27T08:16:58Z</time>
      </trkpt>
      <trkpt lat="41.626135617" lon="2.523994109">
        <ele>392.84</ele>
        <time>2014-07-27T08:17:06Z</time>
      </trkpt>
      <trkpt lat="41.626126816" lon="2.523927808">
        <ele>393.32</ele>
        <time>2014-07-27T08:17:10Z</time>
      </trkpt>
      <trkpt lat="41.626080547" lon="2.523762684">
        <ele>396.20</ele>
        <time>2014-07-27T08:17:20Z</time>
      </trkpt>
      <trkpt lat="41.626040314" lon="2.523628490">
        <ele>398.12</ele>
        <time>2014-07-27T08:17:30Z</time>
      </trkpt>
      <trkpt lat="41.625994633" lon="2.523476275">
        <ele>400.05</ele>
        <time>2014-07-27T08:17:40Z</time>
      </trkpt>
      <trkpt lat="41.625943419" lon="2.523334872">
        <ele>401.97</ele>
        <time>2014-07-27T08:17:50Z</time>
      </trkpt>
      <trkpt lat="41.625908048" lon="2.523186010">
        <ele>402.93</ele>
        <time>2014-07-27T08:17:59Z</time>
      </trkpt>
      <trkpt lat="41.625866725" lon="2.523032705">
        <ele>404.37</ele>
        <time>2014-07-27T08:18:08Z</time>
      </trkpt>
      <trkpt lat="41.625843675" lon="2.522888871">
        <ele>404.85</ele>
        <time>2014-07-27T08:18:15Z</time>
      </trkpt>
      <trkpt lat="41.625829761" lon="2.522681335">
        <ele>406.29</ele>
        <time>2014-07-27T08:18:26Z</time>
      </trkpt>
      <trkpt lat="41.625832611" lon="2.522465836">
        <ele>408.22</ele>
        <time>2014-07-27T08:18:37Z</time>
      </trkpt>
      <trkpt lat="41.625868318" lon="2.522301886">
        <ele>410.14</ele>
        <time>2014-07-27T08:18:46Z</time>
      </trkpt>
      <trkpt lat="41.625901007" lon="2.522179594">
        <ele>412.06</ele>
        <time>2014-07-27T08:18:54Z</time>
      </trkpt>
      <trkpt lat="41.625940905" lon="2.522045903">
        <ele>413.50</ele>
        <time>2014-07-27T08:19:02Z</time>
      </trkpt>
      <trkpt lat="41.625949287" lon="2.521991840">
        <ele>414.95</ele>
        <time>2014-07-27T08:19:05Z</time>
      </trkpt>
      <trkpt lat="41.625968146" lon="2.521877678">
        <ele>415.91</ele>
        <time>2014-07-27T08:19:12Z</time>
      </trkpt>
      <trkpt lat="41.626018186" lon="2.521716997">
        <ele>417.35</ele>
        <time>2014-07-27T08:19:23Z</time>
      </trkpt>
      <trkpt lat="41.626110303" lon="2.521591352">
        <ele>418.31</ele>
        <time>2014-07-27T08:19:32Z</time>
      </trkpt>
      <trkpt lat="41.626191105" lon="2.521425139">
        <ele>419.27</ele>
        <time>2014-07-27T08:19:41Z</time>
      </trkpt>
      <trkpt lat="41.626254723" lon="2.521244090">
        <ele>420.23</ele>
        <time>2014-07-27T08:19:51Z</time>
      </trkpt>
      <trkpt lat="41.626287832" lon="2.521048205">
        <ele>420.71</ele>
        <time>2014-07-27T08:19:59Z</time>
      </trkpt>
      <trkpt lat="41.626306440" lon="2.520913089">
        <ele>421.19</ele>
        <time>2014-07-27T08:20:05Z</time>
      </trkpt>
      <trkpt lat="41.626353127" lon="2.520715779">
        <ele>422.16</ele>
        <time>2014-07-27T08:20:14Z</time>
      </trkpt>
      <trkpt lat="41.626472234" lon="2.520529281">
        <ele>422.16</ele>
        <time>2014-07-27T08:20:21Z</time>
      </trkpt>
      <trkpt lat="41.626530320" lon="2.520346472">
        <ele>421.19</ele>
        <time>2014-07-27T08:20:24Z</time>
      </trkpt>
      <trkpt lat="41.626589580" lon="2.520164585">
        <ele>419.75</ele>
        <time>2014-07-27T08:20:27Z</time>
      </trkpt>
      <trkpt lat="41.626641297" lon="2.520055452">
        <ele>419.27</ele>
        <time>2014-07-27T08:20:29Z</time>
      </trkpt>
      <trkpt lat="41.626743053" lon="2.519709950">
        <ele>419.27</ele>
        <time>2014-07-27T08:20:36Z</time>
      </trkpt>
      <trkpt lat="41.626731737" lon="2.519557065">
        <ele>419.75</ele>
        <time>2014-07-27T08:20:42Z</time>
      </trkpt>
      <trkpt lat="41.626714303" lon="2.519416668">
        <ele>420.71</ele>
        <time>2014-07-27T08:20:48Z</time>
      </trkpt>
      <trkpt lat="41.626704832" lon="2.519236792">
        <ele>421.68</ele>
        <time>2014-07-27T08:20:56Z</time>
      </trkpt>
      <trkpt lat="41.626683793" lon="2.519058006">
        <ele>423.12</ele>
        <time>2014-07-27T08:21:03Z</time>
      </trkpt>
      <trkpt lat="41.626642973" lon="2.518909730">
        <ele>423.60</ele>
        <time>2014-07-27T08:21:10Z</time>
      </trkpt>
      <trkpt lat="41.626586144" lon="2.518752989">
        <ele>423.60</ele>
        <time>2014-07-27T08:21:16Z</time>
      </trkpt>
      <trkpt lat="41.626550018" lon="2.518510081">
        <ele>421.68</ele>
        <time>2014-07-27T08:21:22Z</time>
      </trkpt>
      <trkpt lat="41.626547587" lon="2.518178409">
        <ele>421.68</ele>
        <time>2014-07-27T08:21:28Z</time>
      </trkpt>
      <trkpt lat="41.626533422" lon="2.517872553">
        <ele>421.68</ele>
        <time>2014-07-27T08:21:36Z</time>
      </trkpt>
      <trkpt lat="41.626527890" lon="2.517577259">
        <ele>423.60</ele>
        <time>2014-07-27T08:21:45Z</time>
      </trkpt>
      <trkpt lat="41.626550185" lon="2.517327562">
        <ele>424.56</ele>
        <time>2014-07-27T08:21:54Z</time>
      </trkpt>
      <trkpt lat="41.626600225" lon="2.517064035">
        <ele>426.00</ele>
        <time>2014-07-27T08:22:04Z</time>
      </trkpt>
      <trkpt lat="41.626631071" lon="2.516891284">
        <ele>427.44</ele>
        <time>2014-07-27T08:22:11Z</time>
      </trkpt>
      <trkpt lat="41.626656217" lon="2.516723143">
        <ele>428.40</ele>
        <time>2014-07-27T08:22:18Z</time>
      </trkpt>
      <trkpt lat="41.626681278" lon="2.516538238">
        <ele>429.37</ele>
        <time>2014-07-27T08:22:25Z</time>
      </trkpt>
      <trkpt lat="41.626717488" lon="2.516332127">
        <ele>429.85</ele>
        <time>2014-07-27T08:22:33Z</time>
      </trkpt>
      <trkpt lat="41.626757805" lon="2.516115287">
        <ele>431.77</ele>
        <time>2014-07-27T08:22:41Z</time>
      </trkpt>
      <trkpt lat="41.626794686" lon="2.515872799">
        <ele>432.73</ele>
        <time>2014-07-27T08:22:50Z</time>
      </trkpt>
      <trkpt lat="41.626863417" lon="2.515731312">
        <ele>434.17</ele>
        <time>2014-07-27T08:22:57Z</time>
      </trkpt>
      <trkpt lat="41.626956456" lon="2.515609859">
        <ele>435.61</ele>
        <time>2014-07-27T08:23:05Z</time>
      </trkpt>
      <trkpt lat="41.627055447" lon="2.515495362">
        <ele>435.61</ele>
        <time>2014-07-27T08:23:12Z</time>
      </trkpt>
      <trkpt lat="41.627120993" lon="2.515400730">
        <ele>436.58</ele>
        <time>2014-07-27T08:23:19Z</time>
      </trkpt>
      <trkpt lat="41.627228952" lon="2.515350020">
        <ele>438.50</ele>
        <time>2014-07-27T08:23:27Z</time>
      </trkpt>
      <trkpt lat="41.627328864" lon="2.515309619">
        <ele>439.94</ele>
        <time>2014-07-27T08:23:34Z</time>
      </trkpt>
      <trkpt lat="41.627399524" lon="2.515238624">
        <ele>441.38</ele>
        <time>2014-07-27T08:23:39Z</time>
      </trkpt>
      <trkpt lat="41.627510416" lon="2.515142484">
        <ele>444.27</ele>
        <time>2014-07-27T08:23:48Z</time>
      </trkpt>
      <trkpt lat="41.627639246" lon="2.515028490">
        <ele>447.15</ele>
        <time>2014-07-27T08:24:00Z</time>
      </trkpt>
      <trkpt lat="41.627727340" lon="2.514974008">
        <ele>448.59</ele>
        <time>2014-07-27T08:24:08Z</time>
      </trkpt>
      <trkpt lat="41.627833790" lon="2.514946599">
        <ele>449.07</ele>
        <time>2014-07-27T08:24:17Z</time>
      </trkpt>
      <trkpt lat="41.627971169" lon="2.514938384">
        <ele>449.07</ele>
        <time>2014-07-27T08:24:25Z</time>
      </trkpt>
      <trkpt lat="41.628133359" lon="2.514932014">
        <ele>448.11</ele>
        <time>2014-07-27T08:24:32Z</time>
      </trkpt>
      <trkpt lat="41.628354306" lon="2.514998147">
        <ele>447.15</ele>
        <time>2014-07-27T08:24:40Z</time>
      </trkpt>
      <trkpt lat="41.628486154" lon="2.515136449">
        <ele>445.71</ele>
        <time>2014-07-27T08:24:48Z</time>
      </trkpt>
      <trkpt lat="41.628640884" lon="2.515266452">
        <ele>442.34</ele>
        <time>2014-07-27T08:24:53Z</time>
      </trkpt>
      <trkpt lat="41.628783963" lon="2.515403580">
        <ele>439.94</ele>
        <time>2014-07-27T08:24:58Z</time>
      </trkpt>
      <trkpt lat="41.628947913" lon="2.515479352">
        <ele>436.58</ele>
        <time>2014-07-27T08:25:04Z</time>
      </trkpt>
      <trkpt lat="41.628960737" lon="2.515490165">
        <ele>436.58</ele>
        <time>2014-07-27T08:25:05Z</time>
      </trkpt>
      <trkpt lat="41.629026870" lon="2.515518077">
        <ele>434.17</ele>
        <time>2014-07-27T08:25:10Z</time>
      </trkpt>
      <trkpt lat="41.629116221" lon="2.515546240">
        <ele>432.25</ele>
        <time>2014-07-27T08:25:16Z</time>
      </trkpt>
      <trkpt lat="41.629230634" lon="2.515594268">
        <ele>430.81</ele>
        <time>2014-07-27T08:25:21Z</time>
      </trkpt>
      <trkpt lat="41.629255277" lon="2.515610529">
        <ele>429.85</ele>
        <time>2014-07-27T08:25:22Z</time>
      </trkpt>
      <trkpt lat="41.629361308" lon="2.515590832">
        <ele>428.40</ele>
        <time>2014-07-27T08:25:26Z</time>
      </trkpt>
      <trkpt lat="41.629700691" lon="2.515609188">
        <ele>425.04</ele>
        <time>2014-07-27T08:25:33Z</time>
      </trkpt>
      <trkpt lat="41.629912837" lon="2.515522016">
        <ele>424.08</ele>
        <time>2014-07-27T08:25:39Z</time>
      </trkpt>
      <trkpt lat="41.630061029" lon="2.515586808">
        <ele>422.64</ele>
        <time>2014-07-27T08:25:43Z</time>
      </trkpt>
      <trkpt lat="41.630155410" lon="2.515766684">
        <ele>419.75</ele>
        <time>2014-07-27T08:25:49Z</time>
      </trkpt>
      <trkpt lat="41.630200337" lon="2.515835332">
        <ele>418.79</ele>
        <time>2014-07-27T08:25:51Z</time>
      </trkpt>
      <trkpt lat="41.630318019" lon="2.515932059">
        <ele>416.39</ele>
        <time>2014-07-27T08:25:55Z</time>
      </trkpt>
      <trkpt lat="41.630527482" lon="2.515889898">
        <ele>413.50</ele>
        <time>2014-07-27T08:26:00Z</time>
      </trkpt>
      <trkpt lat="41.630643572" lon="2.515855784">
        <ele>412.06</ele>
        <time>2014-07-27T08:26:03Z</time>
      </trkpt>
      <trkpt lat="41.630810288" lon="2.515742293">
        <ele>409.18</ele>
        <time>2014-07-27T08:26:08Z</time>
      </trkpt>
      <trkpt lat="41.630874158" lon="2.515650259">
        <ele>407.74</ele>
        <time>2014-07-27T08:26:10Z</time>
      </trkpt>
      <trkpt lat="41.630928892" lon="2.515533164">
        <ele>405.81</ele>
        <time>2014-07-27T08:26:12Z</time>
      </trkpt>
      <trkpt lat="41.631030732" lon="2.515228650">
        <ele>402.93</ele>
        <time>2014-07-27T08:26:17Z</time>
      </trkpt>
      <trkpt lat="41.631137350" lon="2.515054893">
        <ele>401.49</ele>
        <time>2014-07-27T08:26:21Z</time>
      </trkpt>
      <trkpt lat="41.631344634" lon="2.514895888">
        <ele>396.68</ele>
        <time>2014-07-27T08:26:26Z</time>
      </trkpt>
      <trkpt lat="41.631487881" lon="2.514793964">
        <ele>394.76</ele>
        <time>2014-07-27T08:26:29Z</time>
      </trkpt>
      <trkpt lat="41.631596510" lon="2.514738895">
        <ele>393.32</ele>
        <time>2014-07-27T08:26:31Z</time>
      </trkpt>
      <trkpt lat="41.631689382" lon="2.514704278">
        <ele>392.84</ele>
        <time>2014-07-27T08:26:33Z</time>
      </trkpt>
      <trkpt lat="41.631888452" lon="2.514650215">
        <ele>390.43</ele>
        <time>2014-07-27T08:26:39Z</time>
      </trkpt>
      <trkpt lat="41.632062293" lon="2.514625069">
        <ele>388.99</ele>
        <time>2014-07-27T08:26:44Z</time>
      </trkpt>
      <trkpt lat="41.632231439" lon="2.514632194">
        <ele>387.07</ele>
        <time>2014-07-27T08:26:49Z</time>
      </trkpt>
      <trkpt lat="41.632421960" lon="2.514718024">
        <ele>384.18</ele>
        <time>2014-07-27T08:26:54Z</time>
      </trkpt>
      <trkpt lat="41.632610218" lon="2.514872503">
        <ele>383.22</ele>
        <time>2014-07-27T08:26:59Z</time>
      </trkpt>
      <trkpt lat="41.632772743" lon="2.514961770">
        <ele>381.30</ele>
        <time>2014-07-27T08:27:03Z</time>
      </trkpt>
      <trkpt lat="41.633001569" lon="2.515027065">
        <ele>379.86</ele>
        <time>2014-07-27T08:27:10Z</time>
      </trkpt>
      <trkpt lat="41.633205836" lon="2.515057743">
        <ele>378.90</ele>
        <time>2014-07-27T08:27:17Z</time>
      </trkpt>
      <trkpt lat="41.633426950" lon="2.515036872">
        <ele>377.45</ele>
        <time>2014-07-27T08:27:23Z</time>
      </trkpt>
      <trkpt lat="41.633583524" lon="2.514918603">
        <ele>376.49</ele>
        <time>2014-07-27T08:27:28Z</time>
      </trkpt>
      <trkpt lat="41.633818720" lon="2.514777955">
        <ele>374.57</ele>
        <time>2014-07-27T08:27:35Z</time>
      </trkpt>
      <trkpt lat="41.633940342" lon="2.514800586">
        <ele>373.13</ele>
        <time>2014-07-27T08:27:38Z</time>
      </trkpt>
      <trkpt lat="41.634152907" lon="2.514837131">
        <ele>371.21</ele>
        <time>2014-07-27T08:27:44Z</time>
      </trkpt>
      <trkpt lat="41.634431186" lon="2.514740655">
        <ele>369.28</ele>
        <time>2014-07-27T08:27:51Z</time>
      </trkpt>
      <trkpt lat="41.634604356" lon="2.514666811">
        <ele>367.36</ele>
        <time>2014-07-27T08:27:56Z</time>
      </trkpt>
      <trkpt lat="41.634842235" lon="2.514700506">
        <ele>363.52</ele>
        <time>2014-07-27T08:28:02Z</time>
      </trkpt>
      <trkpt lat="41.634991600" lon="2.514703356">
        <ele>362.07</ele>
        <time>2014-07-27T08:28:07Z</time>
      </trkpt>
      <trkpt lat="41.635096877" lon="2.514776698">
        <ele>360.15</ele>
        <time>2014-07-27T08:28:11Z</time>
      </trkpt>
      <trkpt lat="41.635186898" lon="2.515026143">
        <ele>356.31</ele>
        <time>2014-07-27T08:28:18Z</time>
      </trkpt>
      <trkpt lat="41.635195113" lon="2.515297046">
        <ele>351.50</ele>
        <time>2014-07-27T08:28:23Z</time>
      </trkpt>
      <trkpt lat="41.635280105" lon="2.515332921">
        <ele>349.58</ele>
        <time>2014-07-27T08:28:26Z</time>
      </trkpt>
      <trkpt lat="41.635321931" lon="2.515269973">
        <ele>349.10</ele>
        <time>2014-07-27T08:28:28Z</time>
      </trkpt>
      <trkpt lat="41.635358644" lon="2.515170060">
        <ele>347.65</ele>
        <time>2014-07-27T08:28:30Z</time>
      </trkpt>
      <trkpt lat="41.635545141" lon="2.514971996">
        <ele>344.29</ele>
        <time>2014-07-27T08:28:35Z</time>
      </trkpt>
      <trkpt lat="41.635729878" lon="2.514960177">
        <ele>342.37</ele>
        <time>2014-07-27T08:28:38Z</time>
      </trkpt>
      <trkpt lat="41.635974714" lon="2.515007619">
        <ele>339.96</ele>
        <time>2014-07-27T08:28:42Z</time>
      </trkpt>
      <trkpt lat="41.636170934" lon="2.515182298">
        <ele>337.08</ele>
        <time>2014-07-27T08:28:47Z</time>
      </trkpt>
      <trkpt lat="41.636440831" lon="2.515342476">
        <ele>334.68</ele>
        <time>2014-07-27T08:28:52Z</time>
      </trkpt>
      <trkpt lat="41.636891694" lon="2.515411878">
        <ele>330.83</ele>
        <time>2014-07-27T08:28:59Z</time>
      </trkpt>
      <trkpt lat="41.637129405" lon="2.515361754">
        <ele>330.83</ele>
        <time>2014-07-27T08:29:06Z</time>
      </trkpt>
      <trkpt lat="41.637313639" lon="2.515239965">
        <ele>330.35</ele>
        <time>2014-07-27T08:29:13Z</time>
      </trkpt>
      <trkpt lat="41.637480774" lon="2.515116500">
        <ele>332.75</ele>
        <time>2014-07-27T08:29:22Z</time>
      </trkpt>
      <trkpt lat="41.637639276" lon="2.515116835">
        <ele>332.75</ele>
        <time>2014-07-27T08:29:30Z</time>
      </trkpt>
      <trkpt lat="41.637887631" lon="2.515114321">
        <ele>332.75</ele>
        <time>2014-07-27T08:29:37Z</time>
      </trkpt>
      <trkpt lat="41.638133640" lon="2.515221106">
        <ele>331.79</ele>
        <time>2014-07-27T08:29:45Z</time>
      </trkpt>
      <trkpt lat="41.638163480" lon="2.515251281">
        <ele>331.31</ele>
        <time>2014-07-27T08:29:47Z</time>
      </trkpt>
      <trkpt lat="41.638329945" lon="2.515384721">
        <ele>331.31</ele>
        <time>2014-07-27T08:29:55Z</time>
      </trkpt>
      <trkpt lat="41.638447543" lon="2.515529728">
        <ele>330.83</ele>
        <time>2014-07-27T08:30:01Z</time>
      </trkpt>
      <trkpt lat="41.638619875" lon="2.515519921">
        <ele>329.87</ele>
        <time>2014-07-27T08:30:07Z</time>
      </trkpt>
      <trkpt lat="41.638671926" lon="2.515447585">
        <ele>329.87</ele>
        <time>2014-07-27T08:30:09Z</time>
      </trkpt>
      <trkpt lat="41.638845851" lon="2.515124127">
        <ele>328.43</ele>
        <time>2014-07-27T08:30:16Z</time>
      </trkpt>
      <trkpt lat="41.639061182" lon="2.514924638">
        <ele>326.50</ele>
        <time>2014-07-27T08:30:23Z</time>
      </trkpt>
      <trkpt lat="41.639222366" lon="2.514947269">
        <ele>325.54</ele>
        <time>2014-07-27T08:30:27Z</time>
      </trkpt>
      <trkpt lat="41.639385310" lon="2.514982725">
        <ele>324.58</ele>
        <time>2014-07-27T08:30:31Z</time>
      </trkpt>
      <trkpt lat="41.639556552" lon="2.514765298">
        <ele>322.66</ele>
        <time>2014-07-27T08:30:36Z</time>
      </trkpt>
      <trkpt lat="41.639713797" lon="2.514479140">
        <ele>320.74</ele>
        <time>2014-07-27T08:30:42Z</time>
      </trkpt>
      <trkpt lat="41.639788563" lon="2.514381239">
        <ele>319.78</ele>
        <time>2014-07-27T08:30:45Z</time>
      </trkpt>
      <trkpt lat="41.639968439" lon="2.514275208">
        <ele>316.89</ele>
        <time>2014-07-27T08:30:50Z</time>
      </trkpt>
      <trkpt lat="41.640146219" lon="2.514362799">
        <ele>314.97</ele>
        <time>2014-07-27T08:30:54Z</time>
      </trkpt>
      <trkpt lat="41.640206988" lon="2.514452653">
        <ele>314.01</ele>
        <time>2014-07-27T08:30:56Z</time>
      </trkpt>
      <trkpt lat="41.640283347" lon="2.514617944">
        <ele>313.53</ele>
        <time>2014-07-27T08:30:59Z</time>
      </trkpt>
      <trkpt lat="41.640441094" lon="2.514839897">
        <ele>311.60</ele>
        <time>2014-07-27T08:31:05Z</time>
      </trkpt>
      <trkpt lat="41.640497253" lon="2.514866216">
        <ele>311.12</ele>
        <time>2014-07-27T08:31:07Z</time>
      </trkpt>
      <trkpt lat="41.640638907" lon="2.514710397">
        <ele>310.16</ele>
        <time>2014-07-27T08:31:13Z</time>
      </trkpt>
      <trkpt lat="41.640702107" lon="2.514319549">
        <ele>308.72</ele>
        <time>2014-07-27T08:31:21Z</time>
      </trkpt>
      <trkpt lat="41.640724068" lon="2.514110336">
        <ele>308.72</ele>
        <time>2014-07-27T08:31:25Z</time>
      </trkpt>
      <trkpt lat="41.640655504" lon="2.513912188">
        <ele>307.28</ele>
        <time>2014-07-27T08:31:29Z</time>
      </trkpt>
      <trkpt lat="41.640628681" lon="2.513763577">
        <ele>306.80</ele>
        <time>2014-07-27T08:31:32Z</time>
      </trkpt>
      <trkpt lat="41.640684505" lon="2.513641033">
        <ele>305.84</ele>
        <time>2014-07-27T08:31:36Z</time>
      </trkpt>
      <trkpt lat="41.640846862" lon="2.513461661">
        <ele>302.95</ele>
        <time>2014-07-27T08:31:42Z</time>
      </trkpt>
      <trkpt lat="41.640929089" lon="2.513412040">
        <ele>302.47</ele>
        <time>2014-07-27T08:31:44Z</time>
      </trkpt>
      <trkpt lat="41.641034282" lon="2.513333082">
        <ele>300.55</ele>
        <time>2014-07-27T08:31:47Z</time>
      </trkpt>
      <trkpt lat="41.641159591" lon="2.513153458">
        <ele>297.67</ele>
        <time>2014-07-27T08:31:53Z</time>
      </trkpt>
      <trkpt lat="41.641243326" lon="2.513135018">
        <ele>296.70</ele>
        <time>2014-07-27T08:31:57Z</time>
      </trkpt>
      <trkpt lat="41.641231843" lon="2.513247000">
        <ele>295.26</ele>
        <time>2014-07-27T08:32:01Z</time>
      </trkpt>
      <trkpt lat="41.641151545" lon="2.513468534">
        <ele>293.34</ele>
        <time>2014-07-27T08:32:08Z</time>
      </trkpt>
      <trkpt lat="41.641125393" lon="2.513506755">
        <ele>292.86</ele>
        <time>2014-07-27T08:32:10Z</time>
      </trkpt>
      <trkpt lat="41.641178367" lon="2.513576325">
        <ele>291.42</ele>
        <time>2014-07-27T08:32:15Z</time>
      </trkpt>
      <trkpt lat="41.641282135" lon="2.513502900">
        <ele>289.49</ele>
        <time>2014-07-27T08:32:20Z</time>
      </trkpt>
      <trkpt lat="41.641371821" lon="2.513450848">
        <ele>289.49</ele>
        <time>2014-07-27T08:32:24Z</time>
      </trkpt>
      <trkpt lat="41.641427058" lon="2.513252448">
        <ele>286.61</ele>
        <time>2014-07-27T08:32:31Z</time>
      </trkpt>
      <trkpt lat="41.641388417" lon="2.513067795">
        <ele>285.17</ele>
        <time>2014-07-27T08:32:37Z</time>
      </trkpt>
      <trkpt lat="41.641386825" lon="2.512867132">
        <ele>283.25</ele>
        <time>2014-07-27T08:32:43Z</time>
      </trkpt>
      <trkpt lat="41.641384729" lon="2.512809884">
        <ele>283.25</ele>
        <time>2014-07-27T08:32:45Z</time>
      </trkpt>
      <trkpt lat="41.641466117" lon="2.512669571">
        <ele>281.80</ele>
        <time>2014-07-27T08:32:52Z</time>
      </trkpt>
      <trkpt lat="41.641513978" lon="2.512666637">
        <ele>280.84</ele>
        <time>2014-07-27T08:32:54Z</time>
      </trkpt>
      <trkpt lat="41.641610538" lon="2.512745846">
        <ele>278.92</ele>
        <time>2014-07-27T08:33:00Z</time>
      </trkpt>
      <trkpt lat="41.641620512" lon="2.512762526">
        <ele>277.96</ele>
        <time>2014-07-27T08:33:01Z</time>
      </trkpt>
      <trkpt lat="41.641665020" lon="2.512959669">
        <ele>275.56</ele>
        <time>2014-07-27T08:33:09Z</time>
      </trkpt>
      <trkpt lat="41.641738362" lon="2.513124792">
        <ele>273.63</ele>
        <time>2014-07-27T08:33:15Z</time>
      </trkpt>
      <trkpt lat="41.641833412" lon="2.513237696">
        <ele>271.71</ele>
        <time>2014-07-27T08:33:20Z</time>
      </trkpt>
      <trkpt lat="41.641923099" lon="2.513353953">
        <ele>270.27</ele>
        <time>2014-07-27T08:33:24Z</time>
      </trkpt>
      <trkpt lat="41.642062071" lon="2.513529387">
        <ele>267.86</ele>
        <time>2014-07-27T08:33:31Z</time>
      </trkpt>
      <trkpt lat="41.642212358" lon="2.513682692">
        <ele>265.94</ele>
        <time>2014-07-27T08:33:37Z</time>
      </trkpt>
      <trkpt lat="41.642398353" lon="2.513865752">
        <ele>263.54</ele>
        <time>2014-07-27T08:33:43Z</time>
      </trkpt>
      <trkpt lat="41.642467252" lon="2.513945716">
        <ele>263.06</ele>
        <time>2014-07-27T08:33:45Z</time>
      </trkpt>
      <trkpt lat="41.642696832" lon="2.514101284">
        <ele>260.65</ele>
        <time>2014-07-27T08:33:51Z</time>
      </trkpt>
      <trkpt lat="41.642775455" lon="2.514142355">
        <ele>259.69</ele>
        <time>2014-07-27T08:33:53Z</time>
      </trkpt>
      <trkpt lat="41.643096733" lon="2.514247716">
        <ele>256.33</ele>
        <time>2014-07-27T08:34:00Z</time>
      </trkpt>
      <trkpt lat="41.643187593" lon="2.514295828">
        <ele>255.85</ele>
        <time>2014-07-27T08:34:02Z</time>
      </trkpt>
      <trkpt lat="41.643321368" lon="2.514363470">
        <ele>254.89</ele>
        <time>2014-07-27T08:34:05Z</time>
      </trkpt>
      <trkpt lat="41.643654465" lon="2.514448797">
        <ele>251.52</ele>
        <time>2014-07-27T08:34:12Z</time>
      </trkpt>
      <trkpt lat="41.643699727" lon="2.514463298">
        <ele>250.56</ele>
        <time>2014-07-27T08:34:13Z</time>
      </trkpt>
      <trkpt lat="41.643965601" lon="2.514532365">
        <ele>246.72</ele>
        <time>2014-07-27T08:34:18Z</time>
      </trkpt>
      <trkpt lat="41.644023436" lon="2.514547788">
        <ele>246.23</ele>
        <time>2014-07-27T08:34:19Z</time>
      </trkpt>
      <trkpt lat="41.644360137" lon="2.514536891">
        <ele>244.31</ele>
        <time>2014-07-27T08:34:25Z</time>
      </trkpt>
      <trkpt lat="41.644563063" lon="2.514563462">
        <ele>242.39</ele>
        <time>2014-07-27T08:34:29Z</time>
      </trkpt>
      <trkpt lat="41.644824914" lon="2.514754402">
        <ele>239.02</ele>
        <time>2014-07-27T08:34:35Z</time>
      </trkpt>
      <trkpt lat="41.644920467" lon="2.514867138">
        <ele>238.06</ele>
        <time>2014-07-27T08:34:37Z</time>
      </trkpt>
      <trkpt lat="41.645016021" lon="2.514981635">
        <ele>236.62</ele>
        <time>2014-07-27T08:34:39Z</time>
      </trkpt>
      <trkpt lat="41.645123812" lon="2.515161175">
        <ele>234.70</ele>
        <time>2014-07-27T08:34:42Z</time>
      </trkpt>
      <trkpt lat="41.645367977" lon="2.515402071">
        <ele>231.81</ele>
        <time>2014-07-27T08:34:48Z</time>
      </trkpt>
      <trkpt lat="41.645519941" lon="2.515316241">
        <ele>231.33</ele>
        <time>2014-07-27T08:34:52Z</time>
      </trkpt>
      <trkpt lat="41.645775254" lon="2.515034525">
        <ele>230.37</ele>
        <time>2014-07-27T08:34:59Z</time>
      </trkpt>
      <trkpt lat="41.645883799" lon="2.514845932">
        <ele>229.89</ele>
        <time>2014-07-27T08:35:03Z</time>
      </trkpt>
      <trkpt lat="41.645995782" lon="2.514555583">
        <ele>229.89</ele>
        <time>2014-07-27T08:35:10Z</time>
      </trkpt>
      <trkpt lat="41.646105333" lon="2.514397081">
        <ele>229.89</ele>
        <time>2014-07-27T08:35:16Z</time>
      </trkpt>
      <trkpt lat="41.646255788" lon="2.514159454">
        <ele>229.89</ele>
        <time>2014-07-27T08:35:24Z</time>
      </trkpt>
      <trkpt lat="41.646371123" lon="2.513853179">
        <ele>228.93</ele>
        <time>2014-07-27T08:35:31Z</time>
      </trkpt>
      <trkpt lat="41.646419152" lon="2.513495021">
        <ele>227.97</ele>
        <time>2014-07-27T08:35:38Z</time>
      </trkpt>
      <trkpt lat="41.646519148" lon="2.513254712">
        <ele>227.97</ele>
        <time>2014-07-27T08:35:44Z</time>
      </trkpt>
      <trkpt lat="41.646672788" lon="2.513088163">
        <ele>227.49</ele>
        <time>2014-07-27T08:35:51Z</time>
      </trkpt>
      <trkpt lat="41.646696928" lon="2.513064359">
        <ele>227.49</ele>
        <time>2014-07-27T08:35:52Z</time>
      </trkpt>
      <trkpt lat="41.646779993" lon="2.513032926">
        <ele>227.01</ele>
        <time>2014-07-27T08:35:55Z</time>
      </trkpt>
      <trkpt lat="41.646851155" lon="2.512843412">
        <ele>227.01</ele>
        <time>2014-07-27T08:36:01Z</time>
      </trkpt>
      <trkpt lat="41.646858531" lon="2.512812482">
        <ele>227.01</ele>
        <time>2014-07-27T08:36:02Z</time>
      </trkpt>
      <trkpt lat="41.646854927" lon="2.512527330">
        <ele>227.01</ele>
        <time>2014-07-27T08:36:09Z</time>
      </trkpt>
      <trkpt lat="41.646809832" lon="2.512194485">
        <ele>225.09</ele>
        <time>2014-07-27T08:36:16Z</time>
      </trkpt>
      <trkpt lat="41.646805306" lon="2.512143606">
        <ele>225.09</ele>
        <time>2014-07-27T08:36:17Z</time>
      </trkpt>
      <trkpt lat="41.646836151" lon="2.511550838">
        <ele>224.12</ele>
        <time>2014-07-27T08:36:28Z</time>
      </trkpt>
      <trkpt lat="41.646876887" lon="2.511303237">
        <ele>223.64</ele>
        <time>2014-07-27T08:36:35Z</time>
      </trkpt>
      <trkpt lat="41.646881414" lon="2.510957567">
        <ele>223.64</ele>
        <time>2014-07-27T08:36:43Z</time>
      </trkpt>
      <trkpt lat="41.646918462" lon="2.510623967">
        <ele>223.16</ele>
        <time>2014-07-27T08:36:51Z</time>
      </trkpt>
      <trkpt lat="41.647003538" lon="2.510302186">
        <ele>222.68</ele>
        <time>2014-07-27T08:36:59Z</time>
      </trkpt>
      <trkpt lat="41.647175451" lon="2.509941597">
        <ele>222.68</ele>
        <time>2014-07-27T08:37:10Z</time>
      </trkpt>
      <trkpt lat="41.647297407" lon="2.509694750">
        <ele>222.68</ele>
        <time>2014-07-27T08:37:18Z</time>
      </trkpt>
      <trkpt lat="41.647337724" lon="2.509659378">
        <ele>222.20</ele>
        <time>2014-07-27T08:37:25Z</time>
      </trkpt>
      <trkpt lat="41.647320793" lon="2.509660132">
        <ele>222.20</ele>
        <time>2014-07-27T08:37:31Z</time>
      </trkpt>
      <trkpt lat="41.647341915" lon="2.509637669">
        <ele>222.20</ele>
        <time>2014-07-27T08:37:37Z</time>
      </trkpt>
      <trkpt lat="41.647386339" lon="2.509575475">
        <ele>222.20</ele>
        <time>2014-07-27T08:37:41Z</time>
      </trkpt>
      <trkpt lat="41.647604856" lon="2.509153614">
        <ele>221.72</ele>
        <time>2014-07-27T08:37:51Z</time>
      </trkpt>
      <trkpt lat="41.647693871" lon="2.508972984">
        <ele>220.76</ele>
        <time>2014-07-27T08:37:55Z</time>
      </trkpt>
      <trkpt lat="41.647775260" lon="2.508709625">
        <ele>220.28</ele>
        <time>2014-07-27T08:38:00Z</time>
      </trkpt>
      <trkpt lat="41.647875340" lon="2.508517008">
        <ele>219.80</ele>
        <time>2014-07-27T08:38:04Z</time>
      </trkpt>
      <trkpt lat="41.647925631" lon="2.508416174">
        <ele>219.32</ele>
        <time>2014-07-27T08:38:06Z</time>
      </trkpt>
      <trkpt lat="41.648125204" lon="2.507837068">
        <ele>218.36</ele>
        <time>2014-07-27T08:38:17Z</time>
      </trkpt>
      <trkpt lat="41.648168371" lon="2.507699354">
        <ele>218.36</ele>
        <time>2014-07-27T08:38:20Z</time>
      </trkpt>
      <trkpt lat="41.648317066" lon="2.507519562">
        <ele>217.88</ele>
        <time>2014-07-27T08:38:26Z</time>
      </trkpt>
      <trkpt lat="41.648458972" lon="2.507045314">
        <ele>217.88</ele>
        <time>2014-07-27T08:38:36Z</time>
      </trkpt>
      <trkpt lat="41.648531894" lon="2.506845657">
        <ele>217.40</ele>
        <time>2014-07-27T08:38:41Z</time>
      </trkpt>
      <trkpt lat="41.648574558" lon="2.506650610">
        <ele>217.40</ele>
        <time>2014-07-27T08:38:47Z</time>
      </trkpt>
      <trkpt lat="41.648573217" lon="2.506614400">
        <ele>217.40</ele>
        <time>2014-07-27T08:38:48Z</time>
      </trkpt>
      <trkpt lat="41.648686121" lon="2.506497137">
        <ele>217.40</ele>
        <time>2014-07-27T08:38:54Z</time>
      </trkpt>
      <trkpt lat="41.648814197" lon="2.506420359">
        <ele>216.43</ele>
        <time>2014-07-27T08:38:59Z</time>
      </trkpt>
      <trkpt lat="41.648926682" lon="2.506210812">
        <ele>215.95</ele>
        <time>2014-07-27T08:39:05Z</time>
      </trkpt>
      <trkpt lat="41.649023074" lon="2.505956924">
        <ele>215.47</ele>
        <time>2014-07-27T08:39:11Z</time>
      </trkpt>
      <trkpt lat="41.649171182" lon="2.505690631">
        <ele>215.47</ele>
        <time>2014-07-27T08:39:19Z</time>
      </trkpt>
      <trkpt lat="41.649253408" lon="2.505441520">
        <ele>214.99</ele>
        <time>2014-07-27T08:39:26Z</time>
      </trkpt>
      <trkpt lat="41.649296156" lon="2.505108340">
        <ele>214.99</ele>
        <time>2014-07-27T08:39:33Z</time>
      </trkpt>
      <trkpt lat="41.649353237" lon="2.504804161">
        <ele>214.03</ele>
        <time>2014-07-27T08:39:39Z</time>
      </trkpt>
      <trkpt lat="41.649372264" lon="2.504448936">
        <ele>213.55</ele>
        <time>2014-07-27T08:39:46Z</time>
      </trkpt>
      <trkpt lat="41.649298503" lon="2.504163196">
        <ele>213.55</ele>
        <time>2014-07-27T08:39:53Z</time>
      </trkpt>
      <trkpt lat="41.649145198" lon="2.503925486">
        <ele>213.07</ele>
        <time>2014-07-27T08:40:00Z</time>
      </trkpt>
      <trkpt lat="41.648929783" lon="2.503689787">
        <ele>213.07</ele>
        <time>2014-07-27T08:40:07Z</time>
      </trkpt>
      <trkpt lat="41.648778909" lon="2.503477054">
        <ele>212.59</ele>
        <time>2014-07-27T08:40:14Z</time>
      </trkpt>
      <trkpt lat="41.648655192" lon="2.503277481">
        <ele>212.11</ele>
        <time>2014-07-27T08:40:21Z</time>
      </trkpt>
      <trkpt lat="41.648486380" lon="2.503078494">
        <ele>211.63</ele>
        <time>2014-07-27T08:40:27Z</time>
      </trkpt>
      <trkpt lat="41.648214471" lon="2.502806669">
        <ele>211.15</ele>
        <time>2014-07-27T08:40:35Z</time>
      </trkpt>
      <trkpt lat="41.647919848" lon="2.502572395">
        <ele>211.15</ele>
        <time>2014-07-27T08:40:43Z</time>
      </trkpt>
      <trkpt lat="41.647708959" lon="2.502288500">
        <ele>210.67</ele>
        <time>2014-07-27T08:40:51Z</time>
      </trkpt>
      <trkpt lat="41.647567975" lon="2.501978872">
        <ele>210.67</ele>
        <time>2014-07-27T08:40:59Z</time>
      </trkpt>
      <trkpt lat="41.647501339" lon="2.501637729">
        <ele>210.19</ele>
        <time>2014-07-27T08:41:07Z</time>
      </trkpt>
      <trkpt lat="41.647453143" lon="2.501231123">
        <ele>209.70</ele>
        <time>2014-07-27T08:41:16Z</time>
      </trkpt>
      <trkpt lat="41.647361529" lon="2.500848740">
        <ele>209.22</ele>
        <time>2014-07-27T08:41:24Z</time>
      </trkpt>
      <trkpt lat="41.647297240" lon="2.500604157">
        <ele>209.22</ele>
        <time>2014-07-27T08:41:30Z</time>
      </trkpt>
      <trkpt lat="41.647246194" lon="2.500356304">
        <ele>208.74</ele>
        <time>2014-07-27T08:41:36Z</time>
      </trkpt>
      <trkpt lat="41.647218953" lon="2.500119934">
        <ele>208.74</ele>
        <time>2014-07-27T08:41:42Z</time>
      </trkpt>
      <trkpt lat="41.647193807" lon="2.499828495">
        <ele>208.26</ele>
        <time>2014-07-27T08:41:50Z</time>
      </trkpt>
      <trkpt lat="41.647209565" lon="2.499621127">
        <ele>208.26</ele>
        <time>2014-07-27T08:41:56Z</time>
      </trkpt>
      <trkpt lat="41.647249463" lon="2.499464888">
        <ele>208.26</ele>
        <time>2014-07-27T08:42:03Z</time>
      </trkpt>
      <trkpt lat="41.647366642" lon="2.499294484">
        <ele>208.26</ele>
        <time>2014-07-27T08:42:11Z</time>
      </trkpt>
      <trkpt lat="41.647540399" lon="2.499104802">
        <ele>208.26</ele>
        <time>2014-07-27T08:42:18Z</time>
      </trkpt>
      <trkpt lat="41.647697224" lon="2.498878155">
        <ele>207.78</ele>
        <time>2014-07-27T08:42:25Z</time>
      </trkpt>
      <trkpt lat="41.647839130" lon="2.498650251">
        <ele>207.78</ele>
        <time>2014-07-27T08:42:32Z</time>
      </trkpt>
      <trkpt lat="41.647951699" lon="2.498482781">
        <ele>207.78</ele>
        <time>2014-07-27T08:42:39Z</time>
      </trkpt>
      <trkpt lat="41.648112715" lon="2.498295194">
        <ele>207.78</ele>
        <time>2014-07-27T08:42:45Z</time>
      </trkpt>
      <trkpt lat="41.648356461" lon="2.498227552">
        <ele>206.82</ele>
        <time>2014-07-27T08:42:50Z</time>
      </trkpt>
      <trkpt lat="41.648386384" lon="2.498208525">
        <ele>206.82</ele>
        <time>2014-07-27T08:42:51Z</time>
      </trkpt>
      <trkpt lat="41.648484620" lon="2.498122862">
        <ele>205.86</ele>
        <time>2014-07-27T08:42:55Z</time>
      </trkpt>
      <trkpt lat="41.648637171" lon="2.497881631">
        <ele>205.86</ele>
        <time>2014-07-27T08:43:03Z</time>
      </trkpt>
      <trkpt lat="41.648669441" lon="2.497817425">
        <ele>207.30</ele>
        <time>2014-07-27T08:43:05Z</time>
      </trkpt>
      <trkpt lat="41.648750746" lon="2.497612069">
        <ele>208.26</ele>
        <time>2014-07-27T08:43:12Z</time>
      </trkpt>
      <trkpt lat="41.648874630" lon="2.497432361">
        <ele>209.22</ele>
        <time>2014-07-27T08:43:19Z</time>
      </trkpt>
      <trkpt lat="41.648973872" lon="2.497175707">
        <ele>209.70</ele>
        <time>2014-07-27T08:43:27Z</time>
      </trkpt>
      <trkpt lat="41.649031539" lon="2.496893991">
        <ele>210.67</ele>
        <time>2014-07-27T08:43:36Z</time>
      </trkpt>
      <trkpt lat="41.649045956" lon="2.496693747">
        <ele>211.63</ele>
        <time>2014-07-27T08:43:43Z</time>
      </trkpt>
      <trkpt lat="41.649045789" lon="2.496487385">
        <ele>213.07</ele>
        <time>2014-07-27T08:43:50Z</time>
      </trkpt>
      <trkpt lat="41.649019637" lon="2.496270880">
        <ele>214.51</ele>
        <time>2014-07-27T08:43:58Z</time>
      </trkpt>
      <trkpt lat="41.649016703" lon="2.496215141">
        <ele>214.51</ele>
        <time>2014-07-27T08:44:00Z</time>
      </trkpt>
      <trkpt lat="41.649106390" lon="2.496067787">
        <ele>214.51</ele>
        <time>2014-07-27T08:44:05Z</time>
      </trkpt>
      <trkpt lat="41.649176127" lon="2.495977095">
        <ele>212.59</ele>
        <time>2014-07-27T08:44:08Z</time>
      </trkpt>
      <trkpt lat="41.649236477" lon="2.495902831">
        <ele>211.63</ele>
        <time>2014-07-27T08:44:10Z</time>
      </trkpt>
      <trkpt lat="41.649363882" lon="2.495694960">
        <ele>210.19</ele>
        <time>2014-07-27T08:44:14Z</time>
      </trkpt>
      <trkpt lat="41.649476367" lon="2.495448029">
        <ele>209.70</ele>
        <time>2014-07-27T08:44:18Z</time>
      </trkpt>
      <trkpt lat="41.649560270" lon="2.495184921">
        <ele>209.22</ele>
        <time>2014-07-27T08:44:22Z</time>
      </trkpt>
      <trkpt lat="41.649620452" lon="2.494776974">
        <ele>208.74</ele>
        <time>2014-07-27T08:44:28Z</time>
      </trkpt>
      <trkpt lat="41.649737044" lon="2.494602211">
        <ele>206.82</ele>
        <time>2014-07-27T08:44:32Z</time>
      </trkpt>
      <trkpt lat="41.649996548" lon="2.494501628">
        <ele>206.34</ele>
        <time>2014-07-27T08:44:39Z</time>
      </trkpt>
      <trkpt lat="41.650146752" lon="2.494367685">
        <ele>207.78</ele>
        <time>2014-07-27T08:44:45Z</time>
      </trkpt>
      <trkpt lat="41.650305421" lon="2.494283196">
        <ele>209.22</ele>
        <time>2014-07-27T08:44:53Z</time>
      </trkpt>
      <trkpt lat="41.650421343" lon="2.494135507">
        <ele>210.67</ele>
        <time>2014-07-27T08:45:01Z</time>
      </trkpt>
      <trkpt lat="41.650578001" lon="2.494035091">
        <ele>210.19</ele>
        <time>2014-07-27T08:45:07Z</time>
      </trkpt>
      <trkpt lat="41.650641284" lon="2.494007599">
        <ele>208.74</ele>
        <time>2014-07-27T08:45:09Z</time>
      </trkpt>
      <trkpt lat="41.650838007" lon="2.493988739">
        <ele>206.82</ele>
        <time>2014-07-27T08:45:15Z</time>
      </trkpt>
      <trkpt lat="41.650912858" lon="2.494010616">
        <ele>205.86</ele>
        <time>2014-07-27T08:45:17Z</time>
      </trkpt>
      <trkpt lat="41.651075299" lon="2.493980022">
        <ele>203.46</ele>
        <time>2014-07-27T08:45:21Z</time>
      </trkpt>
      <trkpt lat="41.651266071" lon="2.493762763">
        <ele>202.01</ele>
        <time>2014-07-27T08:45:28Z</time>
      </trkpt>
      <trkpt lat="41.651440498" lon="2.493572494">
        <ele>201.53</ele>
        <time>2014-07-27T08:45:35Z</time>
      </trkpt>
      <trkpt lat="41.651578465" lon="2.493401084">
        <ele>201.53</ele>
        <time>2014-07-27T08:45:41Z</time>
      </trkpt>
      <trkpt lat="41.651604029" lon="2.493386667">
        <ele>201.53</ele>
        <time>2014-07-27T08:45:42Z</time>
      </trkpt>
      <trkpt lat="41.651719280" lon="2.493378118">
        <ele>200.09</ele>
        <time>2014-07-27T08:45:48Z</time>
      </trkpt>
      <trkpt lat="41.651785414" lon="2.493379627">
        <ele>200.09</ele>
        <time>2014-07-27T08:45:54Z</time>
      </trkpt>
      <trkpt lat="41.651803519" lon="2.493379459">
        <ele>199.61</ele>
        <time>2014-07-27T08:46:02Z</time>
      </trkpt>
      <trkpt lat="41.651854481" lon="2.493336711">
        <ele>199.61</ele>
        <time>2014-07-27T08:46:22Z</time>
      </trkpt>
      <trkpt lat="41.651889098" lon="2.493311230">
        <ele>199.61</ele>
        <time>2014-07-27T08:46:36Z</time>
      </trkpt>
      <trkpt lat="41.651888008" lon="2.493244426">
        <ele>199.61</ele>
        <time>2014-07-27T08:46:54Z</time>
      </trkpt>
      <trkpt lat="41.651928996" lon="2.493258173">
        <ele>199.13</ele>
        <time>2014-07-27T08:47:12Z</time>
      </trkpt>
      <trkpt lat="41.651931929" lon="2.493299160">
        <ele>199.13</ele>
        <time>2014-07-27T08:47:29Z</time>
      </trkpt>
      <trkpt lat="41.651918937" lon="2.493311733">
        <ele>199.13</ele>
        <time>2014-07-27T08:47:52Z</time>
      </trkpt>
      <trkpt lat="41.651917764" lon="2.493280552">
        <ele>199.13</ele>
        <time>2014-07-27T08:48:12Z</time>
      </trkpt>
      <trkpt lat="41.651924637" lon="2.493311146">
        <ele>199.13</ele>
        <time>2014-07-27T08:48:27Z</time>
      </trkpt>
      <trkpt lat="41.651936791" lon="2.493360935">
        <ele>199.13</ele>
        <time>2014-07-27T08:48:40Z</time>
      </trkpt>
      <trkpt lat="41.651979371" lon="2.493373340">
        <ele>199.13</ele>
        <time>2014-07-27T08:49:03Z</time>
      </trkpt>
      <trkpt lat="41.651977108" lon="2.493324893">
        <ele>199.13</ele>
        <time>2014-07-27T08:49:21Z</time>
      </trkpt>
      <trkpt lat="41.651975767" lon="2.493340148">
        <ele>198.65</ele>
        <time>2014-07-27T08:49:45Z</time>
      </trkpt>
      <trkpt lat="41.651961769" lon="2.493335705">
        <ele>198.65</ele>
        <time>2014-07-27T08:49:55Z</time>
      </trkpt>
      <trkpt lat="41.651962607" lon="2.493330257">
        <ele>198.65</ele>
        <time>2014-07-27T08:49:58Z</time>
      </trkpt>
      <trkpt lat="41.652034775" lon="2.493358839">
        <ele>198.65</ele>
        <time>2014-07-27T08:50:03Z</time>
      </trkpt>
      <trkpt lat="41.652199312" lon="2.493487418">
        <ele>197.69</ele>
        <time>2014-07-27T08:50:10Z</time>
      </trkpt>
      <trkpt lat="41.652365190" lon="2.493508624">
        <ele>197.21</ele>
        <time>2014-07-27T08:50:16Z</time>
      </trkpt>
      <trkpt lat="41.652410201" lon="2.493521365">
        <ele>196.25</ele>
        <time>2014-07-27T08:50:22Z</time>
      </trkpt>
      <trkpt lat="41.652423193" lon="2.493517341">
        <ele>196.25</ele>
        <time>2014-07-27T08:50:24Z</time>
      </trkpt>
      <trkpt lat="41.652600638" lon="2.493430337">
        <ele>196.25</ele>
        <time>2014-07-27T08:50:32Z</time>
      </trkpt>
      <trkpt lat="41.652714883" lon="2.493339058">
        <ele>196.25</ele>
        <time>2014-07-27T08:50:38Z</time>
      </trkpt>
      <trkpt lat="41.652902386" lon="2.493209977">
        <ele>196.25</ele>
        <time>2014-07-27T08:50:48Z</time>
      </trkpt>
      <trkpt lat="41.653182845" lon="2.493062036">
        <ele>195.77</ele>
        <time>2014-07-27T08:50:57Z</time>
      </trkpt>
      <trkpt lat="41.653340005" lon="2.493008057">
        <ele>195.77</ele>
        <time>2014-07-27T08:51:03Z</time>
      </trkpt>
      <trkpt lat="41.653581907" lon="2.492964639">
        <ele>195.77</ele>
        <time>2014-07-27T08:51:10Z</time>
      </trkpt>
      <trkpt lat="41.653794891" lon="2.492921388">
        <ele>195.77</ele>
        <time>2014-07-27T08:51:17Z</time>
      </trkpt>
      <trkpt lat="41.654051461" lon="2.492891213">
        <ele>195.77</ele>
        <time>2014-07-27T08:51:25Z</time>
      </trkpt>
      <trkpt lat="41.654253130" lon="2.492897667">
        <ele>195.28</ele>
        <time>2014-07-27T08:51:31Z</time>
      </trkpt>
      <trkpt lat="41.654538785" lon="2.492909486">
        <ele>194.32</ele>
        <time>2014-07-27T08:51:38Z</time>
      </trkpt>
      <trkpt lat="41.654748081" lon="2.492990203">
        <ele>194.32</ele>
        <time>2014-07-27T08:51:45Z</time>
      </trkpt>
      <trkpt lat="41.654819411" lon="2.492996993">
        <ele>194.32</ele>
        <time>2014-07-27T08:51:47Z</time>
      </trkpt>
      <trkpt lat="41.655024013" lon="2.492952066">
        <ele>193.84</ele>
        <time>2014-07-27T08:51:54Z</time>
      </trkpt>
      <trkpt lat="41.655217468" lon="2.493066479">
        <ele>193.84</ele>
        <time>2014-07-27T08:52:01Z</time>
      </trkpt>
      <trkpt lat="41.655394494" lon="2.493219616">
        <ele>193.84</ele>
        <time>2014-07-27T08:52:08Z</time>
      </trkpt>
      <trkpt lat="41.655521731" lon="2.493243421">
        <ele>193.84</ele>
        <time>2014-07-27T08:52:12Z</time>
      </trkpt>
      <trkpt lat="41.655805458" lon="2.493303603">
        <ele>193.36</ele>
        <time>2014-07-27T08:52:21Z</time>
      </trkpt>
      <trkpt lat="41.655970163" lon="2.493345345">
        <ele>191.92</ele>
        <time>2014-07-27T08:52:24Z</time>
      </trkpt>
      <trkpt lat="41.656309965" lon="2.493428074">
        <ele>191.44</ele>
        <time>2014-07-27T08:52:31Z</time>
      </trkpt>
      <trkpt lat="41.656462516" lon="2.493461937">
        <ele>191.44</ele>
        <time>2014-07-27T08:52:35Z</time>
      </trkpt>
      <trkpt lat="41.656590340" lon="2.493380046">
        <ele>190.96</ele>
        <time>2014-07-27T08:52:39Z</time>
      </trkpt>
      <trkpt lat="41.656747081" lon="2.493033538">
        <ele>190.48</ele>
        <time>2014-07-27T08:52:48Z</time>
      </trkpt>
      <trkpt lat="41.656898039" lon="2.492677558">
        <ele>190.48</ele>
        <time>2014-07-27T08:52:57Z</time>
      </trkpt>
      <trkpt lat="41.657047070" lon="2.492296852">
        <ele>190.48</ele>
        <time>2014-07-27T08:53:07Z</time>
      </trkpt>
      <trkpt lat="41.657081771" lon="2.492157461">
        <ele>190.48</ele>
        <time>2014-07-27T08:53:10Z</time>
      </trkpt>
      <trkpt lat="41.657124183" lon="2.491983453">
        <ele>190.00</ele>
        <time>2014-07-27T08:53:13Z</time>
      </trkpt>
      <trkpt lat="41.657139103" lon="2.491738618">
        <ele>189.52</ele>
        <time>2014-07-27T08:53:17Z</time>
      </trkpt>
      <trkpt lat="41.657063414" lon="2.491229333">
        <ele>188.56</ele>
        <time>2014-07-27T08:53:26Z</time>
      </trkpt>
      <trkpt lat="41.657009016" lon="2.490836641">
        <ele>188.56</ele>
        <time>2014-07-27T08:53:34Z</time>
      </trkpt>
      <trkpt lat="41.656953611" lon="2.490460126">
        <ele>188.08</ele>
        <time>2014-07-27T08:53:42Z</time>
      </trkpt>
      <trkpt lat="41.656852526" lon="2.490175644">
        <ele>188.08</ele>
        <time>2014-07-27T08:53:49Z</time>
      </trkpt>
      <trkpt lat="41.656695952" lon="2.489895940">
        <ele>188.08</ele>
        <time>2014-07-27T08:53:56Z</time>
      </trkpt>
      <trkpt lat="41.656602913" lon="2.489716651">
        <ele>187.59</ele>
        <time>2014-07-27T08:54:01Z</time>
      </trkpt>
      <trkpt lat="41.656557818" lon="2.489651943">
        <ele>189.52</ele>
        <time>2014-07-27T08:54:04Z</time>
      </trkpt>
      <trkpt lat="41.656546502" lon="2.489626126">
        <ele>190.00</ele>
        <time>2014-07-27T08:54:05Z</time>
      </trkpt>
      <trkpt lat="41.656542814" lon="2.489427643">
        <ele>190.48</ele>
        <time>2014-07-27T08:54:12Z</time>
      </trkpt>
      <trkpt lat="41.656598805" lon="2.489244918">
        <ele>189.04</ele>
        <time>2014-07-27T08:54:17Z</time>
      </trkpt>
      <trkpt lat="41.656602577" lon="2.489142155">
        <ele>188.56</ele>
        <time>2014-07-27T08:54:19Z</time>
      </trkpt>
      <trkpt lat="41.656611127" lon="2.488844933">
        <ele>187.11</ele>
        <time>2014-07-27T08:54:23Z</time>
      </trkpt>
      <trkpt lat="41.656571732" lon="2.488403961">
        <ele>186.63</ele>
        <time>2014-07-27T08:54:29Z</time>
      </trkpt>
      <trkpt lat="41.656561506" lon="2.488262978">
        <ele>186.15</ele>
        <time>2014-07-27T08:54:31Z</time>
      </trkpt>
      <trkpt lat="41.656455726" lon="2.487963408">
        <ele>186.15</ele>
        <time>2014-07-27T08:54:36Z</time>
      </trkpt>
      <trkpt lat="41.656297392" lon="2.487680519">
        <ele>186.15</ele>
        <time>2014-07-27T08:54:43Z</time>
      </trkpt>
      <trkpt lat="41.656226146" lon="2.487422943">
        <ele>187.59</ele>
        <time>2014-07-27T08:54:49Z</time>
      </trkpt>
      <trkpt lat="41.656111062" lon="2.487148101">
        <ele>187.59</ele>
        <time>2014-07-27T08:54:56Z</time>
      </trkpt>
      <trkpt lat="41.656013581" lon="2.486919526">
        <ele>187.59</ele>
        <time>2014-07-27T08:55:03Z</time>
      </trkpt>
      <trkpt lat="41.655963290" lon="2.486718025">
        <ele>187.59</ele>
        <time>2014-07-27T08:55:09Z</time>
      </trkpt>
      <trkpt lat="41.655984412" lon="2.486493725">
        <ele>187.59</ele>
        <time>2014-07-27T08:55:15Z</time>
      </trkpt>
      <trkpt lat="41.655974857" lon="2.486249477">
        <ele>185.19</ele>
        <time>2014-07-27T08:55:19Z</time>
      </trkpt>
      <trkpt lat="41.655939988" lon="2.485932892">
        <ele>185.19</ele>
        <time>2014-07-27T08:55:23Z</time>
      </trkpt>
      <trkpt lat="41.655894893" lon="2.485670623">
        <ele>185.19</ele>
        <time>2014-07-27T08:55:27Z</time>
      </trkpt>
      <trkpt lat="41.655837142" lon="2.485164523">
        <ele>184.71</ele>
        <time>2014-07-27T08:55:34Z</time>
      </trkpt>
      <trkpt lat="41.655862791" lon="2.484964615">
        <ele>184.71</ele>
        <time>2014-07-27T08:55:39Z</time>
      </trkpt>
      <trkpt lat="41.655894474" lon="2.484659094">
        <ele>183.27</ele>
        <time>2014-07-27T08:55:45Z</time>
      </trkpt>
      <trkpt lat="41.655880393" lon="2.484383833">
        <ele>183.75</ele>
        <time>2014-07-27T08:55:52Z</time>
      </trkpt>
      <trkpt lat="41.655898497" lon="2.484058783">
        <ele>183.75</ele>
        <time>2014-07-27T08:55:59Z</time>
      </trkpt>
      <trkpt lat="41.655947783" lon="2.483678831">
        <ele>183.75</ele>
        <time>2014-07-27T08:56:06Z</time>
      </trkpt>
      <trkpt lat="41.656003858" lon="2.483404743">
        <ele>183.75</ele>
        <time>2014-07-27T08:56:12Z</time>
      </trkpt>
      <trkpt lat="41.656078876" lon="2.483147083">
        <ele>183.75</ele>
        <time>2014-07-27T08:56:18Z</time>
      </trkpt>
      <trkpt lat="41.656124390" lon="2.483096708">
        <ele>186.15</ele>
        <time>2014-07-27T08:56:21Z</time>
      </trkpt>
      <trkpt lat="41.656246682" lon="2.483050356">
        <ele>188.56</ele>
        <time>2014-07-27T08:56:28Z</time>
      </trkpt>
      <trkpt lat="41.656272247" lon="2.483051948">
        <ele>188.56</ele>
        <time>2014-07-27T08:56:29Z</time>
      </trkpt>
      <trkpt lat="41.656442651" lon="2.483022612">
        <ele>187.11</ele>
        <time>2014-07-27T08:56:33Z</time>
      </trkpt>
      <trkpt lat="41.656553879" lon="2.482905014">
        <ele>186.63</ele>
        <time>2014-07-27T08:56:37Z</time>
      </trkpt>
      <trkpt lat="41.656804246" lon="2.482795127">
        <ele>184.71</ele>
        <time>2014-07-27T08:56:44Z</time>
      </trkpt>
      <trkpt lat="41.656832409" lon="2.482788002">
        <ele>184.23</ele>
        <time>2014-07-27T08:56:45Z</time>
      </trkpt>
      <trkpt lat="41.656936345" lon="2.482786829">
        <ele>181.83</ele>
        <time>2014-07-27T08:56:48Z</time>
      </trkpt>
      <trkpt lat="41.657120076" lon="2.482644001">
        <ele>181.35</ele>
        <time>2014-07-27T08:56:54Z</time>
      </trkpt>
      <trkpt lat="41.657297102" lon="2.482503772">
        <ele>181.35</ele>
        <time>2014-07-27T08:57:01Z</time>
      </trkpt>
      <trkpt lat="41.657469518" lon="2.482428754">
        <ele>180.38</ele>
        <time>2014-07-27T08:57:07Z</time>
      </trkpt>
      <trkpt lat="41.657734134" lon="2.482400842">
        <ele>179.42</ele>
        <time>2014-07-27T08:57:15Z</time>
      </trkpt>
      <trkpt lat="41.657867239" lon="2.482379887">
        <ele>178.46</ele>
        <time>2014-07-27T08:57:20Z</time>
      </trkpt>
      <trkpt lat="41.657941251" lon="2.482350635">
        <ele>178.46</ele>
        <time>2014-07-27T08:57:22Z</time>
      </trkpt>
      <trkpt lat="41.658222380" lon="2.482270336">
        <ele>177.50</ele>
        <time>2014-07-27T08:57:29Z</time>
      </trkpt>
      <trkpt lat="41.658428491" lon="2.482180817">
        <ele>177.50</ele>
        <time>2014-07-27T08:57:35Z</time>
      </trkpt>
      <trkpt lat="41.658676009" lon="2.482079396">
        <ele>177.02</ele>
        <time>2014-07-27T08:57:42Z</time>
      </trkpt>
      <trkpt lat="41.658921179" lon="2.481988453">
        <ele>176.54</ele>
        <time>2014-07-27T08:57:49Z</time>
      </trkpt>
      <trkpt lat="41.659072724" lon="2.482060956">
        <ele>176.54</ele>
        <time>2014-07-27T08:57:54Z</time>
      </trkpt>
      <trkpt lat="41.659274644" lon="2.482089203">
        <ele>176.06</ele>
        <time>2014-07-27T08:58:00Z</time>
      </trkpt>
      <trkpt lat="41.659494166" lon="2.482111499">
        <ele>175.58</ele>
        <time>2014-07-27T08:58:06Z</time>
      </trkpt>
      <trkpt lat="41.659759956" lon="2.482142009">
        <ele>175.10</ele>
        <time>2014-07-27T08:58:13Z</time>
      </trkpt>
      <trkpt lat="41.660017365" lon="2.482108733">
        <ele>174.62</ele>
        <time>2014-07-27T08:58:20Z</time>
      </trkpt>
      <trkpt lat="41.660305702" lon="2.482107727">
        <ele>174.62</ele>
        <time>2014-07-27T08:58:27Z</time>
      </trkpt>
      <trkpt lat="41.660526398" lon="2.482136896">
        <ele>174.62</ele>
        <time>2014-07-27T08:58:33Z</time>
      </trkpt>
      <trkpt lat="41.660771149" lon="2.482164053">
        <ele>174.14</ele>
        <time>2014-07-27T08:58:39Z</time>
      </trkpt>
      <trkpt lat="41.660916911" lon="2.482116612">
        <ele>175.58</ele>
        <time>2014-07-27T08:58:44Z</time>
      </trkpt>
      <trkpt lat="41.661104917" lon="2.482048467">
        <ele>177.98</ele>
        <time>2014-07-27T08:58:52Z</time>
      </trkpt>
      <trkpt lat="41.661204577" lon="2.481995326">
        <ele>178.94</ele>
        <time>2014-07-27T08:58:57Z</time>
      </trkpt>
      <trkpt lat="41.661345310" lon="2.481787454">
        <ele>179.90</ele>
        <time>2014-07-27T08:59:05Z</time>
      </trkpt>
      <trkpt lat="41.661450251" lon="2.481595677">
        <ele>180.87</ele>
        <time>2014-07-27T08:59:12Z</time>
      </trkpt>
      <trkpt lat="41.661605149" lon="2.481412616">
        <ele>180.87</ele>
        <time>2014-07-27T08:59:18Z</time>
      </trkpt>
      <trkpt lat="41.661699361" lon="2.481288899">
        <ele>179.42</ele>
        <time>2014-07-27T08:59:21Z</time>
      </trkpt>
      <trkpt lat="41.661800279" lon="2.481156800">
        <ele>178.94</ele>
        <time>2014-07-27T08:59:24Z</time>
      </trkpt>
      <trkpt lat="41.661876555" lon="2.480910540">
        <ele>177.50</ele>
        <time>2014-07-27T08:59:29Z</time>
      </trkpt>
      <trkpt lat="41.661867502" lon="2.480872318">
        <ele>177.50</ele>
        <time>2014-07-27T08:59:30Z</time>
      </trkpt>
      <trkpt lat="41.661839674" lon="2.480786655">
        <ele>177.50</ele>
        <time>2014-07-27T08:59:33Z</time>
      </trkpt>
      <trkpt lat="41.661834645" lon="2.480711721">
        <ele>178.94</ele>
        <time>2014-07-27T08:59:36Z</time>
      </trkpt>
      <trkpt lat="41.661844452" lon="2.480651707">
        <ele>178.94</ele>
        <time>2014-07-27T08:59:38Z</time>
      </trkpt>
      <trkpt lat="41.661929361" lon="2.480514243">
        <ele>178.94</ele>
        <time>2014-07-27T08:59:44Z</time>
      </trkpt>
      <trkpt lat="41.662116612" lon="2.480556572">
        <ele>174.14</ele>
        <time>2014-07-27T08:59:50Z</time>
      </trkpt>
      <trkpt lat="41.662193642" lon="2.480621616">
        <ele>173.17</ele>
        <time>2014-07-27T08:59:52Z</time>
      </trkpt>
      <trkpt lat="41.662388270" lon="2.480738040">
        <ele>171.73</ele>
        <time>2014-07-27T08:59:56Z</time>
      </trkpt>
      <trkpt lat="41.662641571" lon="2.480814399">
        <ele>170.77</ele>
        <time>2014-07-27T09:00:02Z</time>
      </trkpt>
      <trkpt lat="41.662839719" lon="2.480890172">
        <ele>170.77</ele>
        <time>2014-07-27T09:00:08Z</time>
      </trkpt>
      <trkpt lat="41.663003082" lon="2.480746590">
        <ele>170.77</ele>
        <time>2014-07-27T09:00:15Z</time>
      </trkpt>
      <trkpt lat="41.663164350" lon="2.480499994">
        <ele>170.29</ele>
        <time>2014-07-27T09:00:24Z</time>
      </trkpt>
      <trkpt lat="41.663269040" lon="2.480260775">
        <ele>169.81</ele>
        <time>2014-07-27T09:00:31Z</time>
      </trkpt>
      <trkpt lat="41.663276752" lon="2.480218697">
        <ele>169.81</ele>
        <time>2014-07-27T09:00:32Z</time>
      </trkpt>
      <trkpt lat="41.663378843" lon="2.480005546">
        <ele>169.33</ele>
        <time>2014-07-27T09:00:38Z</time>
      </trkpt>
      <trkpt lat="41.663431649" lon="2.479803542">
        <ele>169.33</ele>
        <time>2014-07-27T09:00:44Z</time>
      </trkpt>
      <trkpt lat="41.663450089" lon="2.479459884">
        <ele>168.37</ele>
        <time>2014-07-27T09:00:52Z</time>
      </trkpt>
      <trkpt lat="41.663475906" lon="2.479265340">
        <ele>168.37</ele>
        <time>2014-07-27T09:00:57Z</time>
      </trkpt>
      <trkpt lat="41.663512954" lon="2.478958562">
        <ele>168.37</ele>
        <time>2014-07-27T09:01:04Z</time>
      </trkpt>
      <trkpt lat="41.663639185" lon="2.478683971">
        <ele>167.89</ele>
        <time>2014-07-27T09:01:11Z</time>
      </trkpt>
      <trkpt lat="41.663759968" lon="2.478566876">
        <ele>167.89</ele>
        <time>2014-07-27T09:01:16Z</time>
      </trkpt>
      <trkpt lat="41.663911513" lon="2.478560673">
        <ele>167.89</ele>
        <time>2014-07-27T09:01:21Z</time>
      </trkpt>
      <trkpt lat="41.664170933" lon="2.478490181">
        <ele>167.89</ele>
        <time>2014-07-27T09:01:29Z</time>
      </trkpt>
      <trkpt lat="41.664243353" lon="2.478461683">
        <ele>168.85</ele>
        <time>2014-07-27T09:01:32Z</time>
      </trkpt>
      <trkpt lat="41.664422139" lon="2.478422037">
        <ele>169.33</ele>
        <time>2014-07-27T09:01:39Z</time>
      </trkpt>
      <trkpt lat="41.664644930" lon="2.478432262">
        <ele>170.29</ele>
        <time>2014-07-27T09:01:47Z</time>
      </trkpt>
      <trkpt lat="41.664791697" lon="2.478480542">
        <ele>171.25</ele>
        <time>2014-07-27T09:01:54Z</time>
      </trkpt>
      <trkpt lat="41.664928741" lon="2.478594117">
        <ele>173.17</ele>
        <time>2014-07-27T09:02:01Z</time>
      </trkpt>
      <trkpt lat="41.665067294" lon="2.478760665">
        <ele>173.17</ele>
        <time>2014-07-27T09:02:08Z</time>
      </trkpt>
      <trkpt lat="41.665186401" lon="2.479027713">
        <ele>173.17</ele>
        <time>2014-07-27T09:02:14Z</time>
      </trkpt>
      <trkpt lat="41.665235686" lon="2.479208343">
        <ele>172.21</ele>
        <time>2014-07-27T09:02:18Z</time>
      </trkpt>
      <trkpt lat="41.665298886" lon="2.479519479">
        <ele>170.77</ele>
        <time>2014-07-27T09:02:25Z</time>
      </trkpt>
      <trkpt lat="41.665325456" lon="2.479794825">
        <ele>168.37</ele>
        <time>2014-07-27T09:02:32Z</time>
      </trkpt>
      <trkpt lat="41.665311375" lon="2.479937401">
        <ele>166.93</ele>
        <time>2014-07-27T09:02:35Z</time>
      </trkpt>
      <trkpt lat="41.665277847" lon="2.480081486">
        <ele>165.48</ele>
        <time>2014-07-27T09:02:38Z</time>
      </trkpt>
      <trkpt lat="41.665273489" lon="2.480544167">
        <ele>164.04</ele>
        <time>2014-07-27T09:02:45Z</time>
      </trkpt>
      <trkpt lat="41.665273824" lon="2.481068874">
        <ele>164.04</ele>
        <time>2014-07-27T09:02:53Z</time>
      </trkpt>
      <trkpt lat="41.665272986" lon="2.481439522">
        <ele>163.56</ele>
        <time>2014-07-27T09:03:00Z</time>
      </trkpt>
      <trkpt lat="41.665265442" lon="2.481798435">
        <ele>162.60</ele>
        <time>2014-07-27T09:03:08Z</time>
      </trkpt>
      <trkpt lat="41.665264688" lon="2.481934557">
        <ele>162.12</ele>
        <time>2014-07-27T09:03:11Z</time>
      </trkpt>
      <trkpt lat="41.665390919" lon="2.482029859">
        <ele>161.64</ele>
        <time>2014-07-27T09:03:17Z</time>
      </trkpt>
      <trkpt lat="41.665561575" lon="2.482041175">
        <ele>160.68</ele>
        <time>2014-07-27T09:03:23Z</time>
      </trkpt>
      <trkpt lat="41.665695182" lon="2.481954925">
        <ele>160.68</ele>
        <time>2014-07-27T09:03:28Z</time>
      </trkpt>
      <trkpt lat="41.665854606" lon="2.481828442">
        <ele>160.68</ele>
        <time>2014-07-27T09:03:35Z</time>
      </trkpt>
      <trkpt lat="41.665973042" lon="2.481710257">
        <ele>160.68</ele>
        <time>2014-07-27T09:03:41Z</time>
      </trkpt>
      <trkpt lat="41.666129449" lon="2.481585367">
        <ele>160.68</ele>
        <time>2014-07-27T09:03:47Z</time>
      </trkpt>
      <trkpt lat="41.666250735" lon="2.481499871">
        <ele>160.68</ele>
        <time>2014-07-27T09:03:52Z</time>
      </trkpt>
      <trkpt lat="41.666482997" lon="2.481408173">
        <ele>159.24</ele>
        <time>2014-07-27T09:03:59Z</time>
      </trkpt>
      <trkpt lat="41.666644600" lon="2.481305244">
        <ele>159.24</ele>
        <time>2014-07-27T09:04:05Z</time>
      </trkpt>
      <trkpt lat="41.666922125" lon="2.481173899">
        <ele>158.27</ele>
        <time>2014-07-27T09:04:12Z</time>
      </trkpt>
      <trkpt lat="41.667200991" lon="2.481028389">
        <ele>158.27</ele>
        <time>2014-07-27T09:04:20Z</time>
      </trkpt>
      <trkpt lat="41.667378101" lon="2.480964938">
        <ele>157.79</ele>
        <time>2014-07-27T09:04:26Z</time>
      </trkpt>
      <trkpt lat="41.667625283" lon="2.480986145">
        <ele>156.83</ele>
        <time>2014-07-27T09:04:32Z</time>
      </trkpt>
      <trkpt lat="41.667821168" lon="2.480909618">
        <ele>156.35</ele>
        <time>2014-07-27T09:04:37Z</time>
      </trkpt>
      <trkpt lat="41.668032560" lon="2.480871061">
        <ele>156.35</ele>
        <time>2014-07-27T09:04:43Z</time>
      </trkpt>
      <trkpt lat="41.668168849" lon="2.480827810">
        <ele>155.87</ele>
        <time>2014-07-27T09:04:47Z</time>
      </trkpt>
      <trkpt lat="41.668344283" lon="2.480733011">
        <ele>155.87</ele>
        <time>2014-07-27T09:04:53Z</time>
      </trkpt>
      <trkpt lat="41.668557351" lon="2.480558416">
        <ele>155.87</ele>
        <time>2014-07-27T09:05:01Z</time>
      </trkpt>
      <trkpt lat="41.668570845" lon="2.480491864">
        <ele>157.31</ele>
        <time>2014-07-27T09:05:03Z</time>
      </trkpt>
      <trkpt lat="41.668648546" lon="2.480279550">
        <ele>158.75</ele>
        <time>2014-07-27T09:05:10Z</time>
      </trkpt>
      <trkpt lat="41.668778717" lon="2.480151223">
        <ele>160.20</ele>
        <time>2014-07-27T09:05:17Z</time>
      </trkpt>
      <trkpt lat="41.668941326" lon="2.480089449">
        <ele>160.68</ele>
        <time>2014-07-27T09:05:24Z</time>
      </trkpt>
      <trkpt lat="41.669093038" lon="2.480027925">
        <ele>160.68</ele>
        <time>2014-07-27T09:05:31Z</time>
      </trkpt>
      <trkpt lat="41.669146766" lon="2.480091293">
        <ele>160.68</ele>
        <time>2014-07-27T09:05:35Z</time>
      </trkpt>
      <trkpt lat="41.669297054" lon="2.480375523">
        <ele>160.68</ele>
        <time>2014-07-27T09:05:43Z</time>
      </trkpt>
      <trkpt lat="41.669393865" lon="2.480501838">
        <ele>160.68</ele>
        <time>2014-07-27T09:05:49Z</time>
      </trkpt>
      <trkpt lat="41.669526718" lon="2.480587920">
        <ele>160.68</ele>
        <time>2014-07-27T09:05:55Z</time>
      </trkpt>
      <trkpt lat="41.669745318" lon="2.480657909">
        <ele>161.16</ele>
        <time>2014-07-27T09:06:02Z</time>
      </trkpt>
      <trkpt lat="41.670004654" lon="2.480631841">
        <ele>161.20</ele>
        <time>2014-07-27T09:06:10Z</time>
      </trkpt>
      <trkpt lat="41.670227026" lon="2.480515082">
        <ele>161.20</ele>
        <time>2014-07-27T09:06:17Z</time>
      </trkpt>
      <trkpt lat="41.670423917" lon="2.480325231">
        <ele>161.20</ele>
        <time>2014-07-27T09:06:24Z</time>
      </trkpt>
      <trkpt lat="41.670655760" lon="2.480011581">
        <ele>161.20</ele>
        <time>2014-07-27T09:06:33Z</time>
      </trkpt>
      <trkpt lat="41.670839324" lon="2.479619224">
        <ele>161.60</ele>
        <time>2014-07-27T09:06:42Z</time>
      </trkpt>
      <trkpt lat="41.670936302" lon="2.479135001">
        <ele>161.60</ele>
        <time>2014-07-27T09:06:51Z</time>
      </trkpt>
      <trkpt lat="41.670942589" lon="2.479074819">
        <ele>161.60</ele>
        <time>2014-07-27T09:06:52Z</time>
      </trkpt>
      <trkpt lat="41.670897326" lon="2.478632003">
        <ele>162.10</ele>
        <time>2014-07-27T09:07:01Z</time>
      </trkpt>
      <trkpt lat="41.670820548" lon="2.478328830">
        <ele>163.10</ele>
        <time>2014-07-27T09:07:08Z</time>
      </trkpt>
      <trkpt lat="41.670682331" lon="2.478059268">
        <ele>163.60</ele>
        <time>2014-07-27T09:07:15Z</time>
      </trkpt>
      <trkpt lat="41.670478315" lon="2.477829017">
        <ele>163.60</ele>
        <time>2014-07-27T09:07:22Z</time>
      </trkpt>
      <trkpt lat="41.670295171" lon="2.477717454">
        <ele>163.60</ele>
        <time>2014-07-27T09:07:27Z</time>
      </trkpt>
      <trkpt lat="41.670022423" lon="2.477658361">
        <ele>163.60</ele>
        <time>2014-07-27T09:07:34Z</time>
      </trkpt>
      <trkpt lat="41.669847493" lon="2.477700355">
        <ele>163.56</ele>
        <time>2014-07-27T09:07:39Z</time>
      </trkpt>
      <trkpt lat="41.669663175" lon="2.477863718">
        <ele>163.56</ele>
        <time>2014-07-27T09:07:45Z</time>
      </trkpt>
      <trkpt lat="41.669488077" lon="2.478060357">
        <ele>163.56</ele>
        <time>2014-07-27T09:07:51Z</time>
      </trkpt>
      <trkpt lat="41.669362097" lon="2.478243502">
        <ele>163.56</ele>
        <time>2014-07-27T09:07:55Z</time>
      </trkpt>
      <trkpt lat="41.669196638" lon="2.478557740">
        <ele>163.56</ele>
        <time>2014-07-27T09:08:01Z</time>
      </trkpt>
      <trkpt lat="41.669143581" lon="2.478720935">
        <ele>162.60</ele>
        <time>2014-07-27T09:08:04Z</time>
      </trkpt>
      <trkpt lat="41.669101755" lon="2.478885975">
        <ele>162.60</ele>
        <time>2014-07-27T09:08:07Z</time>
      </trkpt>
      <trkpt lat="41.669068395" lon="2.478956886">
        <ele>162.12</ele>
        <time>2014-07-27T09:08:09Z</time>
      </trkpt>
      <trkpt lat="41.668966723" lon="2.478921849">
        <ele>161.64</ele>
        <time>2014-07-27T09:08:15Z</time>
      </trkpt>
      <trkpt lat="41.668897321" lon="2.478537958">
        <ele>163.08</ele>
        <time>2014-07-27T09:08:25Z</time>
      </trkpt>
      <trkpt lat="41.668828757" lon="2.478275688">
        <ele>163.56</ele>
        <time>2014-07-27T09:08:32Z</time>
      </trkpt>
      <trkpt lat="41.668775029" lon="2.478056166">
        <ele>164.04</ele>
        <time>2014-07-27T09:08:39Z</time>
      </trkpt>
      <trkpt lat="41.668770586" lon="2.478039319">
        <ele>164.04</ele>
        <time>2014-07-27T09:08:47Z</time>
      </trkpt>
      <trkpt lat="41.668765892" lon="2.478020460">
        <ele>164.04</ele>
        <time>2014-07-27T09:09:03Z</time>
      </trkpt>
      <trkpt lat="41.668776286" lon="2.478013922">
        <ele>164.04</ele>
        <time>2014-07-27T09:09:19Z</time>
      </trkpt>
      <trkpt lat="41.668757259" lon="2.478022387">
        <ele>164.04</ele>
        <time>2014-07-27T09:09:35Z</time>
      </trkpt>
      <trkpt lat="41.668751727" lon="2.478036720">
        <ele>164.04</ele>
        <time>2014-07-27T09:09:49Z</time>
      </trkpt>
      <trkpt lat="41.668757175" lon="2.478044264">
        <ele>164.04</ele>
        <time>2014-07-27T09:10:06Z</time>
      </trkpt>
      <trkpt lat="41.668762791" lon="2.478034960">
        <ele>164.04</ele>
        <time>2014-07-27T09:10:24Z</time>
      </trkpt>
      <trkpt lat="41.668772346" lon="2.478048623">
        <ele>164.04</ele>
        <time>2014-07-27T09:10:38Z</time>
      </trkpt>
      <trkpt lat="41.668766563" lon="2.478030099">
        <ele>164.04</ele>
        <time>2014-07-27T09:10:51Z</time>
      </trkpt>
      <trkpt lat="41.668763545" lon="2.478038313">
        <ele>164.04</ele>
        <time>2014-07-27T09:10:55Z</time>
      </trkpt>
      <trkpt lat="41.668727838" lon="2.477924654">
        <ele>164.04</ele>
        <time>2014-07-27T09:11:02Z</time>
      </trkpt>
      <trkpt lat="41.668682995" lon="2.477803368">
        <ele>164.04</ele>
        <time>2014-07-27T09:11:06Z</time>
      </trkpt>
      <trkpt lat="41.668632955" lon="2.477605974">
        <ele>164.04</ele>
        <time>2014-07-27T09:11:13Z</time>
      </trkpt>
      <trkpt lat="41.668603116" lon="2.477617374">
        <ele>164.04</ele>
        <time>2014-07-27T09:11:18Z</time>
      </trkpt>
      <trkpt lat="41.668644439" lon="2.477739666">
        <ele>164.52</ele>
        <time>2014-07-27T09:11:22Z</time>
      </trkpt>
      <trkpt lat="41.668707638" lon="2.477985339">
        <ele>164.52</ele>
        <time>2014-07-27T09:11:29Z</time>
      </trkpt>
      <trkpt lat="41.668630022" lon="2.478026914">
        <ele>164.52</ele>
        <time>2014-07-27T09:11:34Z</time>
      </trkpt>
      <trkpt lat="41.668472442" lon="2.477963630">
        <ele>164.52</ele>
        <time>2014-07-27T09:11:40Z</time>
      </trkpt>
      <trkpt lat="41.668333721" lon="2.477739750">
        <ele>164.52</ele>
        <time>2014-07-27T09:11:49Z</time>
      </trkpt>
      <trkpt lat="41.668252920" lon="2.477524502">
        <ele>164.52</ele>
        <time>2014-07-27T09:11:56Z</time>
      </trkpt>
      <trkpt lat="41.668147643" lon="2.477266004">
        <ele>164.52</ele>
        <time>2014-07-27T09:12:03Z</time>
      </trkpt>
      <trkpt lat="41.668016047" lon="2.476857219">
        <ele>164.52</ele>
        <time>2014-07-27T09:12:14Z</time>
      </trkpt>
      <trkpt lat="41.667909010" lon="2.476627555">
        <ele>165.00</ele>
        <time>2014-07-27T09:12:22Z</time>
      </trkpt>
      <trkpt lat="41.667785629" lon="2.476453882">
        <ele>166.45</ele>
        <time>2014-07-27T09:12:30Z</time>
      </trkpt>
      <trkpt lat="41.667725111" lon="2.476329746">
        <ele>166.93</ele>
        <time>2014-07-27T09:12:36Z</time>
      </trkpt>
      <trkpt lat="41.667666187" lon="2.476166383">
        <ele>166.93</ele>
        <time>2014-07-27T09:12:42Z</time>
      </trkpt>
      <trkpt lat="41.667587061" lon="2.475981478">
        <ele>166.93</ele>
        <time>2014-07-27T09:12:48Z</time>
      </trkpt>
      <trkpt lat="41.667541799" lon="2.475579817">
        <ele>166.93</ele>
        <time>2014-07-27T09:12:57Z</time>
      </trkpt>
      <trkpt lat="41.667500057" lon="2.475305645">
        <ele>166.93</ele>
        <time>2014-07-27T09:13:04Z</time>
      </trkpt>
      <trkpt lat="41.667385980" lon="2.475141192">
        <ele>167.89</ele>
        <time>2014-07-27T09:13:11Z</time>
      </trkpt>
      <trkpt lat="41.667236195" lon="2.474921502">
        <ele>168.37</ele>
        <time>2014-07-27T09:13:20Z</time>
      </trkpt>
      <trkpt lat="41.667070652" lon="2.474622436">
        <ele>168.37</ele>
        <time>2014-07-27T09:13:28Z</time>
      </trkpt>
      <trkpt lat="41.666858255" lon="2.474383049">
        <ele>168.37</ele>
        <time>2014-07-27T09:13:37Z</time>
      </trkpt>
      <trkpt lat="41.666715008" lon="2.474425713">
        <ele>169.33</ele>
        <time>2014-07-27T09:13:43Z</time>
      </trkpt>
      <trkpt lat="41.666521889" lon="2.474508442">
        <ele>171.25</ele>
        <time>2014-07-27T09:13:52Z</time>
      </trkpt>
      <trkpt lat="41.666310079" lon="2.474517830">
        <ele>171.73</ele>
        <time>2014-07-27T09:14:01Z</time>
      </trkpt>
      <trkpt lat="41.666084605" lon="2.474499557">
        <ele>172.69</ele>
        <time>2014-07-27T09:14:10Z</time>
      </trkpt>
      <trkpt lat="41.665822838" lon="2.474439794">
        <ele>172.69</ele>
        <time>2014-07-27T09:14:19Z</time>
      </trkpt>
      <trkpt lat="41.665736002" lon="2.474422611">
        <ele>172.69</ele>
        <time>2014-07-27T09:14:22Z</time>
      </trkpt>
      <trkpt lat="41.665698283" lon="2.474429317">
        <ele>171.73</ele>
        <time>2014-07-27T09:14:24Z</time>
      </trkpt>
      <trkpt lat="41.665607507" lon="2.474406602">
        <ele>171.25</ele>
        <time>2014-07-27T09:14:29Z</time>
      </trkpt>
      <trkpt lat="41.665612620" lon="2.474329321">
        <ele>170.29</ele>
        <time>2014-07-27T09:14:35Z</time>
      </trkpt>
      <trkpt lat="41.665711108" lon="2.474281209">
        <ele>169.81</ele>
        <time>2014-07-27T09:14:43Z</time>
      </trkpt>
      <trkpt lat="41.665803895" lon="2.474092029">
        <ele>169.33</ele>
        <time>2014-07-27T09:14:51Z</time>
      </trkpt>
      <trkpt lat="41.665835076" lon="2.473838477">
        <ele>171.73</ele>
        <time>2014-07-27T09:14:59Z</time>
      </trkpt>
      <trkpt lat="41.665854019" lon="2.473686177">
        <ele>172.21</ele>
        <time>2014-07-27T09:15:05Z</time>
      </trkpt>
      <trkpt lat="41.665877656" lon="2.473465314">
        <ele>174.14</ele>
        <time>2014-07-27T09:15:13Z</time>
      </trkpt>
      <trkpt lat="41.665941694" lon="2.473288205">
        <ele>175.58</ele>
        <time>2014-07-27T09:15:21Z</time>
      </trkpt>
      <trkpt lat="41.666050659" lon="2.473128697">
        <ele>177.02</ele>
        <time>2014-07-27T09:15:29Z</time>
      </trkpt>
      <trkpt lat="41.666172867" lon="2.473113023">
        <ele>177.50</ele>
        <time>2014-07-27T09:15:36Z</time>
      </trkpt>
      <trkpt lat="41.666337571" lon="2.473141438">
        <ele>178.94</ele>
        <time>2014-07-27T09:15:46Z</time>
      </trkpt>
      <trkpt lat="41.666460534" lon="2.473146802">
        <ele>180.38</ele>
        <time>2014-07-27T09:15:54Z</time>
      </trkpt>
      <trkpt lat="41.666597745" lon="2.473192483">
        <ele>182.31</ele>
        <time>2014-07-27T09:16:02Z</time>
      </trkpt>
      <trkpt lat="41.666717020" lon="2.473283678">
        <ele>182.79</ele>
        <time>2014-07-27T09:16:09Z</time>
      </trkpt>
      <trkpt lat="41.666859512" lon="2.473443940">
        <ele>183.27</ele>
        <time>2014-07-27T09:16:18Z</time>
      </trkpt>
      <trkpt lat="41.667040561" lon="2.473579560">
        <ele>183.27</ele>
        <time>2014-07-27T09:16:26Z</time>
      </trkpt>
      <trkpt lat="41.667227813" lon="2.473707300">
        <ele>183.27</ele>
        <time>2014-07-27T09:16:33Z</time>
      </trkpt>
      <trkpt lat="41.667390590" lon="2.473851888">
        <ele>181.83</ele>
        <time>2014-07-27T09:16:39Z</time>
      </trkpt>
      <trkpt lat="41.667407353" lon="2.473857001">
        <ele>181.35</ele>
        <time>2014-07-27T09:16:40Z</time>
      </trkpt>
      <trkpt lat="41.667432499" lon="2.473874603">
        <ele>181.35</ele>
        <time>2014-07-27T09:16:42Z</time>
      </trkpt>
      <trkpt lat="41.667463847" lon="2.473915590">
        <ele>180.87</ele>
        <time>2014-07-27T09:16:45Z</time>
      </trkpt>
      <trkpt lat="41.667533333" lon="2.473902766">
        <ele>180.38</ele>
        <time>2014-07-27T09:16:53Z</time>
      </trkpt>
      <trkpt lat="41.667523275" lon="2.473904861">
        <ele>180.38</ele>
        <time>2014-07-27T09:16:56Z</time>
      </trkpt>
      <trkpt lat="41.667474576" lon="2.473934449">
        <ele>180.38</ele>
        <time>2014-07-27T09:17:04Z</time>
      </trkpt>
      <trkpt lat="41.667469715" lon="2.473934282">
        <ele>180.38</ele>
        <time>2014-07-27T09:17:05Z</time>
      </trkpt>
      <trkpt lat="41.667466865" lon="2.473860856">
        <ele>181.35</ele>
        <time>2014-07-27T09:17:11Z</time>
      </trkpt>
      <trkpt lat="41.667470050" lon="2.473725908">
        <ele>184.23</ele>
        <time>2014-07-27T09:17:19Z</time>
      </trkpt>
      <trkpt lat="41.667464183" lon="2.473570842">
        <ele>186.63</ele>
        <time>2014-07-27T09:17:29Z</time>
      </trkpt>
      <trkpt lat="41.667451358" lon="2.473459447">
        <ele>188.56</ele>
        <time>2014-07-27T09:17:36Z</time>
      </trkpt>
      <trkpt lat="41.667426380" lon="2.473285020">
        <ele>190.48</ele>
        <time>2014-07-27T09:17:45Z</time>
      </trkpt>
      <trkpt lat="41.667395954" lon="2.473122662">
        <ele>191.92</ele>
        <time>2014-07-27T09:17:52Z</time>
      </trkpt>
      <trkpt lat="41.667321942" lon="2.472954773">
        <ele>192.40</ele>
        <time>2014-07-27T09:18:00Z</time>
      </trkpt>
      <trkpt lat="41.667262766" lon="2.472815130">
        <ele>194.32</ele>
        <time>2014-07-27T09:18:08Z</time>
      </trkpt>
      <trkpt lat="41.667193783" lon="2.472700549">
        <ele>194.80</ele>
        <time>2014-07-27T09:18:15Z</time>
      </trkpt>
      <trkpt lat="41.667112730" lon="2.472601392">
        <ele>195.77</ele>
        <time>2014-07-27T09:18:22Z</time>
      </trkpt>
      <trkpt lat="41.666997059" lon="2.472464683">
        <ele>196.25</ele>
        <time>2014-07-27T09:18:30Z</time>
      </trkpt>
      <trkpt lat="41.666846353" lon="2.472396203">
        <ele>197.21</ele>
        <time>2014-07-27T09:18:39Z</time>
      </trkpt>
      <trkpt lat="41.666650468" lon="2.472409278">
        <ele>197.21</ele>
        <time>2014-07-27T09:18:46Z</time>
      </trkpt>
      <trkpt lat="41.666461707" lon="2.472361753">
        <ele>197.69</ele>
        <time>2014-07-27T09:18:55Z</time>
      </trkpt>
      <trkpt lat="41.666337990" lon="2.472249016">
        <ele>200.09</ele>
        <time>2014-07-27T09:19:03Z</time>
      </trkpt>
      <trkpt lat="41.666203880" lon="2.472127311">
        <ele>201.53</ele>
        <time>2014-07-27T09:19:11Z</time>
      </trkpt>
      <trkpt lat="41.666022412" lon="2.472041145">
        <ele>201.53</ele>
        <time>2014-07-27T09:19:17Z</time>
      </trkpt>
      <trkpt lat="41.665876147" lon="2.471972078">
        <ele>201.53</ele>
        <time>2014-07-27T09:19:25Z</time>
      </trkpt>
      <trkpt lat="41.665785036" lon="2.471880883">
        <ele>202.01</ele>
        <time>2014-07-27T09:19:32Z</time>
      </trkpt>
      <trkpt lat="41.665774223" lon="2.471819863">
        <ele>202.01</ele>
        <time>2014-07-27T09:19:35Z</time>
      </trkpt>
      <trkpt lat="41.665849158" lon="2.471585924">
        <ele>199.61</ele>
        <time>2014-07-27T09:19:42Z</time>
      </trkpt>
      <trkpt lat="41.665796435" lon="2.471328683">
        <ele>198.65</ele>
        <time>2014-07-27T09:19:47Z</time>
      </trkpt>
      <trkpt lat="41.665698451" lon="2.471110083">
        <ele>198.65</ele>
        <time>2014-07-27T09:19:53Z</time>
      </trkpt>
      <trkpt lat="41.665672551" lon="2.470975721">
        <ele>199.61</ele>
        <time>2014-07-27T09:19:59Z</time>
      </trkpt>
      <trkpt lat="41.665578925" lon="2.470786290">
        <ele>200.57</ele>
        <time>2014-07-27T09:20:07Z</time>
      </trkpt>
      <trkpt lat="41.665443474" lon="2.470679589">
        <ele>201.05</ele>
        <time>2014-07-27T09:20:15Z</time>
      </trkpt>
      <trkpt lat="41.665300059" lon="2.470658885">
        <ele>201.05</ele>
        <time>2014-07-27T09:20:22Z</time>
      </trkpt>
      <trkpt lat="41.665181455" lon="2.470712027">
        <ele>202.01</ele>
        <time>2014-07-27T09:20:29Z</time>
      </trkpt>
      <trkpt lat="41.665087243" lon="2.470862230">
        <ele>202.49</ele>
        <time>2014-07-27T09:20:37Z</time>
      </trkpt>
      <trkpt lat="41.664935363" lon="2.470972536">
        <ele>202.98</ele>
        <time>2014-07-27T09:20:45Z</time>
      </trkpt>
      <trkpt lat="41.664865541" lon="2.470982008">
        <ele>202.98</ele>
        <time>2014-07-27T09:20:48Z</time>
      </trkpt>
      <trkpt lat="41.664773843" lon="2.470855609">
        <ele>203.94</ele>
        <time>2014-07-27T09:20:55Z</time>
      </trkpt>
      <trkpt lat="41.664677619" lon="2.470664418">
        <ele>203.94</ele>
        <time>2014-07-27T09:21:01Z</time>
      </trkpt>
      <trkpt lat="41.664603942" lon="2.470451852">
        <ele>203.94</ele>
        <time>2014-07-27T09:21:07Z</time>
      </trkpt>
      <trkpt lat="41.664612827" lon="2.470169298">
        <ele>202.49</ele>
        <time>2014-07-27T09:21:13Z</time>
      </trkpt>
      <trkpt lat="41.664625316" lon="2.469989507">
        <ele>202.49</ele>
        <time>2014-07-27T09:21:19Z</time>
      </trkpt>
      <trkpt lat="41.664567229" lon="2.469722795">
        <ele>200.09</ele>
        <time>2014-07-27T09:21:25Z</time>
      </trkpt>
      <trkpt lat="41.664537725" lon="2.469626235">
        <ele>199.61</ele>
        <time>2014-07-27T09:21:27Z</time>
      </trkpt>
      <trkpt lat="41.664506796" lon="2.469527496">
        <ele>198.17</ele>
        <time>2014-07-27T09:21:29Z</time>
      </trkpt>
      <trkpt lat="41.664369919" lon="2.469376957">
        <ele>196.73</ele>
        <time>2014-07-27T09:21:33Z</time>
      </trkpt>
      <trkpt lat="41.664230612" lon="2.469275201">
        <ele>195.28</ele>
        <time>2014-07-27T09:21:37Z</time>
      </trkpt>
      <trkpt lat="41.664034140" lon="2.469145700">
        <ele>193.84</ele>
        <time>2014-07-27T09:21:41Z</time>
      </trkpt>
      <trkpt lat="41.663944789" lon="2.468932213">
        <ele>191.92</ele>
        <time>2014-07-27T09:21:45Z</time>
      </trkpt>
      <trkpt lat="41.664004133" lon="2.468631471">
        <ele>191.92</ele>
        <time>2014-07-27T09:21:52Z</time>
      </trkpt>
      <trkpt lat="41.664039756" lon="2.468407003">
        <ele>194.80</ele>
        <time>2014-07-27T09:22:01Z</time>
      </trkpt>
      <trkpt lat="41.663996422" lon="2.468288735">
        <ele>193.36</ele>
        <time>2014-07-27T09:22:04Z</time>
      </trkpt>
      <trkpt lat="41.663867843" lon="2.468100729">
        <ele>193.36</ele>
        <time>2014-07-27T09:22:08Z</time>
      </trkpt>
      <trkpt lat="41.663552684" lon="2.467987154">
        <ele>189.04</ele>
        <time>2014-07-27T09:22:15Z</time>
      </trkpt>
      <trkpt lat="41.663511780" lon="2.467942814">
        <ele>188.56</ele>
        <time>2014-07-27T09:22:16Z</time>
      </trkpt>
      <trkpt lat="41.663395607" lon="2.467694709">
        <ele>188.56</ele>
        <time>2014-07-27T09:22:21Z</time>
      </trkpt>
      <trkpt lat="41.663256132" lon="2.467458256">
        <ele>186.15</ele>
        <time>2014-07-27T09:22:26Z</time>
      </trkpt>
      <trkpt lat="41.663164769" lon="2.467365384">
        <ele>185.67</ele>
        <time>2014-07-27T09:22:28Z</time>
      </trkpt>
      <trkpt lat="41.663047758" lon="2.467261784">
        <ele>184.23</ele>
        <time>2014-07-27T09:22:31Z</time>
      </trkpt>
      <trkpt lat="41.662967543" lon="2.467170589">
        <ele>182.79</ele>
        <time>2014-07-27T09:22:34Z</time>
      </trkpt>
      <trkpt lat="41.662904511" lon="2.467208894">
        <ele>182.31</ele>
        <time>2014-07-27T09:22:39Z</time>
      </trkpt>
      <trkpt lat="41.662854304" lon="2.467302771">
        <ele>183.75</ele>
        <time>2014-07-27T09:22:44Z</time>
      </trkpt>
      <trkpt lat="41.662733353" lon="2.467415173">
        <ele>185.19</ele>
        <time>2014-07-27T09:22:52Z</time>
      </trkpt>
      <trkpt lat="41.662592956" lon="2.467509218">
        <ele>188.08</ele>
        <time>2014-07-27T09:23:01Z</time>
      </trkpt>
      <trkpt lat="41.662477537" lon="2.467610890">
        <ele>189.52</ele>
        <time>2014-07-27T09:23:09Z</time>
      </trkpt>
      <trkpt lat="41.662356670" lon="2.467668139">
        <ele>190.96</ele>
        <time>2014-07-27T09:23:17Z</time>
      </trkpt>
      <trkpt lat="41.662192720" lon="2.467737457">
        <ele>193.84</ele>
        <time>2014-07-27T09:23:28Z</time>
      </trkpt>
      <trkpt lat="41.662063555" lon="2.467817420">
        <ele>195.28</ele>
        <time>2014-07-27T09:23:38Z</time>
      </trkpt>
      <trkpt lat="41.661971773" lon="2.467905514">
        <ele>196.73</ele>
        <time>2014-07-27T09:23:46Z</time>
      </trkpt>
      <trkpt lat="41.661834142" lon="2.467998721">
        <ele>198.65</ele>
        <time>2014-07-27T09:23:57Z</time>
      </trkpt>
      <trkpt lat="41.661720567" lon="2.468076840">
        <ele>201.05</ele>
        <time>2014-07-27T09:24:07Z</time>
      </trkpt>
      <trkpt lat="41.661701205" lon="2.468102321">
        <ele>201.53</ele>
        <time>2014-07-27T09:24:09Z</time>
      </trkpt>
      <trkpt lat="41.661615123" lon="2.468275743">
        <ele>202.98</ele>
        <time>2014-07-27T09:24:20Z</time>
      </trkpt>
      <trkpt lat="41.661563658" lon="2.468450086">
        <ele>204.90</ele>
        <time>2014-07-27T09:24:30Z</time>
      </trkpt>
      <trkpt lat="41.661482521" lon="2.468600961">
        <ele>206.34</ele>
        <time>2014-07-27T09:24:40Z</time>
      </trkpt>
      <trkpt lat="41.661390404" lon="2.468692491">
        <ele>208.26</ele>
        <time>2014-07-27T09:24:49Z</time>
      </trkpt>
      <trkpt lat="41.661304322" lon="2.468753763">
        <ele>209.70</ele>
        <time>2014-07-27T09:24:57Z</time>
      </trkpt>
      <trkpt lat="41.661195693" lon="2.468838252">
        <ele>211.63</ele>
        <time>2014-07-27T09:25:06Z</time>
      </trkpt>
      <trkpt lat="41.661082286" lon="2.468902206">
        <ele>212.59</ele>
        <time>2014-07-27T09:25:15Z</time>
      </trkpt>
      <trkpt lat="41.660977176" lon="2.468943613">
        <ele>214.99</ele>
        <time>2014-07-27T09:25:24Z</time>
      </trkpt>
      <trkpt lat="41.660875672" lon="2.468948893">
        <ele>215.95</ele>
        <time>2014-07-27T09:25:32Z</time>
      </trkpt>
      <trkpt lat="41.660752625" lon="2.468903883">
        <ele>216.91</ele>
        <time>2014-07-27T09:25:40Z</time>
      </trkpt>
      <trkpt lat="41.660654473" lon="2.468874965">
        <ele>217.88</ele>
        <time>2014-07-27T09:25:47Z</time>
      </trkpt>
      <trkpt lat="41.660527487" lon="2.468820902">
        <ele>218.84</ele>
        <time>2014-07-27T09:25:56Z</time>
      </trkpt>
      <trkpt lat="41.660413242" lon="2.468794666">
        <ele>220.28</ele>
        <time>2014-07-27T09:26:04Z</time>
      </trkpt>
      <trkpt lat="41.660286927" lon="2.468805311">
        <ele>221.24</ele>
        <time>2014-07-27T09:26:12Z</time>
      </trkpt>
      <trkpt lat="41.660140411" lon="2.468840348">
        <ele>221.72</ele>
        <time>2014-07-27T09:26:20Z</time>
      </trkpt>
      <trkpt lat="41.659977886" lon="2.468865577">
        <ele>223.64</ele>
        <time>2014-07-27T09:26:30Z</time>
      </trkpt>
      <trkpt lat="41.659857606" lon="2.468893908">
        <ele>224.12</ele>
        <time>2014-07-27T09:26:37Z</time>
      </trkpt>
      <trkpt lat="41.659737074" lon="2.468891645">
        <ele>225.09</ele>
        <time>2014-07-27T09:26:44Z</time>
      </trkpt>
      <trkpt lat="41.659588463" lon="2.468905810">
        <ele>227.01</ele>
        <time>2014-07-27T09:26:54Z</time>
      </trkpt>
      <trkpt lat="41.659459465" lon="2.468924586">
        <ele>227.97</ele>
        <time>2014-07-27T09:27:03Z</time>
      </trkpt>
      <trkpt lat="41.659352261" lon="2.468970938">
        <ele>229.41</ele>
        <time>2014-07-27T09:27:11Z</time>
      </trkpt>
      <trkpt lat="41.659181605" lon="2.468948642">
        <ele>229.41</ele>
        <time>2014-07-27T09:27:19Z</time>
      </trkpt>
      <trkpt lat="41.659022852" lon="2.468882341">
        <ele>229.41</ele>
        <time>2014-07-27T09:27:27Z</time>
      </trkpt>
      <trkpt lat="41.658829481" lon="2.468817465">
        <ele>229.89</ele>
        <time>2014-07-27T09:27:37Z</time>
      </trkpt>
      <trkpt lat="41.658678607" lon="2.468749656">
        <ele>230.85</ele>
        <time>2014-07-27T09:27:45Z</time>
      </trkpt>
      <trkpt lat="41.658556567" lon="2.468735909">
        <ele>231.81</ele>
        <time>2014-07-27T09:27:52Z</time>
      </trkpt>
      <trkpt lat="41.658391611" lon="2.468761558">
        <ele>232.30</ele>
        <time>2014-07-27T09:28:01Z</time>
      </trkpt>
      <trkpt lat="41.658251130" lon="2.468810508">
        <ele>233.26</ele>
        <time>2014-07-27T09:28:09Z</time>
      </trkpt>
      <trkpt lat="41.658188098" lon="2.468812185">
        <ele>233.26</ele>
        <time>2014-07-27T09:28:16Z</time>
      </trkpt>
      <trkpt lat="41.658159432" lon="2.468831631">
        <ele>233.26</ele>
        <time>2014-07-27T09:28:23Z</time>
      </trkpt>
      <trkpt lat="41.658166054" lon="2.468827775">
        <ele>233.26</ele>
        <time>2014-07-27T09:28:24Z</time>
      </trkpt>
      <trkpt lat="41.658168233" lon="2.468802545">
        <ele>233.26</ele>
        <time>2014-07-27T09:28:30Z</time>
      </trkpt>
      <trkpt lat="41.658166557" lon="2.468821321">
        <ele>233.26</ele>
        <time>2014-07-27T09:28:44Z</time>
      </trkpt>
      <trkpt lat="41.658166557" lon="2.468833139">
        <ele>233.26</ele>
        <time>2014-07-27T09:29:05Z</time>
      </trkpt>
      <trkpt lat="41.658163958" lon="2.468826769">
        <ele>233.26</ele>
        <time>2014-07-27T09:29:21Z</time>
      </trkpt>
      <trkpt lat="41.658164126" lon="2.468809419">
        <ele>233.26</ele>
        <time>2014-07-27T09:29:45Z</time>
      </trkpt>
      <trkpt lat="41.658175274" lon="2.468797935">
        <ele>233.26</ele>
        <time>2014-07-27T09:30:05Z</time>
      </trkpt>
      <trkpt lat="41.658178878" lon="2.468800701">
        <ele>233.26</ele>
        <time>2014-07-27T09:30:26Z</time>
      </trkpt>
      <trkpt lat="41.658179297" lon="2.468800450">
        <ele>233.26</ele>
        <time>2014-07-27T09:30:49Z</time>
      </trkpt>
      <trkpt lat="41.658166557" lon="2.468772371">
        <ele>233.26</ele>
        <time>2014-07-27T09:31:14Z</time>
      </trkpt>
      <trkpt lat="41.658184997" lon="2.468779830">
        <ele>233.26</ele>
        <time>2014-07-27T09:31:32Z</time>
      </trkpt>
      <trkpt lat="41.658187092" lon="2.468807239">
        <ele>233.26</ele>
        <time>2014-07-27T09:31:44Z</time>
      </trkpt>
      <trkpt lat="41.658181057" lon="2.468801791">
        <ele>233.26</ele>
        <time>2014-07-27T09:32:02Z</time>
      </trkpt>
      <trkpt lat="41.658189691" lon="2.468803635">
        <ele>233.26</ele>
        <time>2014-07-27T09:32:20Z</time>
      </trkpt>
      <trkpt lat="41.658187009" lon="2.468804054">
        <ele>233.26</ele>
        <time>2014-07-27T09:32:31Z</time>
      </trkpt>
      <trkpt lat="41.658177872" lon="2.468807491">
        <ele>233.26</ele>
        <time>2014-07-27T09:32:43Z</time>
      </trkpt>
      <trkpt lat="41.658173597" lon="2.468802378">
        <ele>232.78</ele>
        <time>2014-07-27T09:33:02Z</time>
      </trkpt>
      <trkpt lat="41.658168904" lon="2.468797516">
        <ele>232.78</ele>
        <time>2014-07-27T09:33:18Z</time>
      </trkpt>
      <trkpt lat="41.658180638" lon="2.468797684">
        <ele>232.78</ele>
        <time>2014-07-27T09:33:36Z</time>
      </trkpt>
      <trkpt lat="41.658180554" lon="2.468816543">
        <ele>232.78</ele>
        <time>2014-07-27T09:33:56Z</time>
      </trkpt>
      <trkpt lat="41.658179549" lon="2.468811933">
        <ele>232.78</ele>
        <time>2014-07-27T09:34:09Z</time>
      </trkpt>
      <trkpt lat="41.658186925" lon="2.468809419">
        <ele>232.78</ele>
        <time>2014-07-27T09:34:24Z</time>
      </trkpt>
      <trkpt lat="41.658190026" lon="2.468808916">
        <ele>232.78</ele>
        <time>2014-07-27T09:34:43Z</time>
      </trkpt>
      <trkpt lat="41.658187763" lon="2.468816627">
        <ele>232.78</ele>
        <time>2014-07-27T09:35:01Z</time>
      </trkpt>
      <trkpt lat="41.658181141" lon="2.468790811">
        <ele>232.78</ele>
        <time>2014-07-27T09:35:23Z</time>
      </trkpt>
      <trkpt lat="41.658183153" lon="2.468777986">
        <ele>233.26</ele>
        <time>2014-07-27T09:35:39Z</time>
      </trkpt>
      <trkpt lat="41.658199246" lon="2.468794080">
        <ele>233.26</ele>
        <time>2014-07-27T09:35:54Z</time>
      </trkpt>
      <trkpt lat="41.658218441" lon="2.468798271">
        <ele>233.26</ele>
        <time>2014-07-27T09:36:01Z</time>
      </trkpt>
      <trkpt lat="41.658213160" lon="2.468793661">
        <ele>233.26</ele>
        <time>2014-07-27T09:36:22Z</time>
      </trkpt>
      <trkpt lat="41.658202264" lon="2.468789050">
        <ele>233.26</ele>
        <time>2014-07-27T09:36:39Z</time>
      </trkpt>
      <trkpt lat="41.658193630" lon="2.468789302">
        <ele>233.26</ele>
        <time>2014-07-27T09:36:52Z</time>
      </trkpt>
      <trkpt lat="41.658190697" lon="2.468790978">
        <ele>233.26</ele>
        <time>2014-07-27T09:37:13Z</time>
      </trkpt>
      <trkpt lat="41.658202347" lon="2.468788212">
        <ele>233.26</ele>
        <time>2014-07-27T09:37:35Z</time>
      </trkpt>
      <trkpt lat="41.658197151" lon="2.468796929">
        <ele>233.26</ele>
        <time>2014-07-27T09:37:54Z</time>
      </trkpt>
      <trkpt lat="41.658221207" lon="2.468807826">
        <ele>233.26</ele>
        <time>2014-07-27T09:38:16Z</time>
      </trkpt>
      <trkpt lat="41.658216597" lon="2.468799444">
        <ele>232.78</ele>
        <time>2014-07-27T09:38:34Z</time>
      </trkpt>
      <trkpt lat="41.658210981" lon="2.468790811">
        <ele>232.78</ele>
        <time>2014-07-27T09:38:50Z</time>
      </trkpt>
      <trkpt lat="41.658215507" lon="2.468791481">
        <ele>232.78</ele>
        <time>2014-07-27T09:39:04Z</time>
      </trkpt>
      <trkpt lat="41.658224057" lon="2.468795085">
        <ele>232.78</ele>
        <time>2014-07-27T09:39:21Z</time>
      </trkpt>
      <trkpt lat="41.658218441" lon="2.468792571">
        <ele>232.78</ele>
        <time>2014-07-27T09:39:40Z</time>
      </trkpt>
      <trkpt lat="41.658203521" lon="2.468789721">
        <ele>232.78</ele>
        <time>2014-07-27T09:39:56Z</time>
      </trkpt>
      <trkpt lat="41.658179130" lon="2.468808245">
        <ele>232.78</ele>
        <time>2014-07-27T09:40:07Z</time>
      </trkpt>
      <trkpt lat="41.658168987" lon="2.468811011">
        <ele>233.26</ele>
        <time>2014-07-27T09:40:14Z</time>
      </trkpt>
      <trkpt lat="41.658171167" lon="2.468813945">
        <ele>233.26</ele>
        <time>2014-07-27T09:40:26Z</time>
      </trkpt>
      <trkpt lat="41.658170915" lon="2.468815202">
        <ele>233.26</ele>
        <time>2014-07-27T09:40:35Z</time>
      </trkpt>
      <trkpt lat="41.658168065" lon="2.468816795">
        <ele>233.26</ele>
        <time>2014-07-27T09:40:36Z</time>
      </trkpt>
      <trkpt lat="41.658028088" lon="2.468827691">
        <ele>233.26</ele>
        <time>2014-07-27T09:40:45Z</time>
      </trkpt>
      <trkpt lat="41.657891630" lon="2.468845880">
        <ele>233.74</ele>
        <time>2014-07-27T09:40:53Z</time>
      </trkpt>
      <trkpt lat="41.657733128" lon="2.468882341">
        <ele>233.74</ele>
        <time>2014-07-27T09:40:59Z</time>
      </trkpt>
      <trkpt lat="41.657624164" lon="2.468879743">
        <ele>231.81</ele>
        <time>2014-07-27T09:41:02Z</time>
      </trkpt>
      <trkpt lat="41.657374467" lon="2.468850574">
        <ele>230.37</ele>
        <time>2014-07-27T09:41:07Z</time>
      </trkpt>
      <trkpt lat="41.657318895" lon="2.468841186">
        <ele>230.37</ele>
        <time>2014-07-27T09:41:08Z</time>
      </trkpt>
      <trkpt lat="41.657118148" lon="2.468857028">
        <ele>229.89</ele>
        <time>2014-07-27T09:41:12Z</time>
      </trkpt>
      <trkpt lat="41.657007675" lon="2.468904050">
        <ele>231.33</ele>
        <time>2014-07-27T09:41:18Z</time>
      </trkpt>
      <trkpt lat="41.656952857" lon="2.468982589">
        <ele>231.81</ele>
        <time>2014-07-27T09:41:24Z</time>
      </trkpt>
      <trkpt lat="41.656823105" lon="2.469104881">
        <ele>233.26</ele>
        <time>2014-07-27T09:41:33Z</time>
      </trkpt>
      <trkpt lat="41.656712632" lon="2.469208313">
        <ele>234.22</ele>
        <time>2014-07-27T09:41:41Z</time>
      </trkpt>
      <trkpt lat="41.656621940" lon="2.469292551">
        <ele>236.14</ele>
        <time>2014-07-27T09:41:48Z</time>
      </trkpt>
      <trkpt lat="41.656529906" lon="2.469348878">
        <ele>238.06</ele>
        <time>2014-07-27T09:41:55Z</time>
      </trkpt>
      <trkpt lat="41.656436951" lon="2.469375113">
        <ele>239.99</ele>
        <time>2014-07-27T09:42:03Z</time>
      </trkpt>
      <trkpt lat="41.656330836" lon="2.469378298">
        <ele>240.95</ele>
        <time>2014-07-27T09:42:12Z</time>
      </trkpt>
      <trkpt lat="41.656288172" lon="2.469370084">
        <ele>241.43</ele>
        <time>2014-07-27T09:42:15Z</time>
      </trkpt>
      <trkpt lat="41.656162276" lon="2.469261371">
        <ele>242.39</ele>
        <time>2014-07-27T09:42:25Z</time>
      </trkpt>
      <trkpt lat="41.656062112" lon="2.469135223">
        <ele>243.35</ele>
        <time>2014-07-27T09:42:34Z</time>
      </trkpt>
      <trkpt lat="41.655906041" lon="2.469007148">
        <ele>243.35</ele>
        <time>2014-07-27T09:42:42Z</time>
      </trkpt>
      <trkpt lat="41.655737649" lon="2.468983175">
        <ele>243.83</ele>
        <time>2014-07-27T09:42:50Z</time>
      </trkpt>
      <trkpt lat="41.655576968" lon="2.469067330">
        <ele>245.27</ele>
        <time>2014-07-27T09:43:00Z</time>
      </trkpt>
      <trkpt lat="41.655533382" lon="2.469092643">
        <ele>245.75</ele>
        <time>2014-07-27T09:43:03Z</time>
      </trkpt>
      <trkpt lat="41.655474289" lon="2.469047381">
        <ele>247.20</ele>
        <time>2014-07-27T09:43:09Z</time>
      </trkpt>
      <trkpt lat="41.655514439" lon="2.468918383">
        <ele>249.12</ele>
        <time>2014-07-27T09:43:18Z</time>
      </trkpt>
      <trkpt lat="41.655559869" lon="2.468797935">
        <ele>249.60</ele>
        <time>2014-07-27T09:43:25Z</time>
      </trkpt>
      <trkpt lat="41.655607981" lon="2.468705567">
        <ele>251.04</ele>
        <time>2014-07-27T09:43:31Z</time>
      </trkpt>
      <trkpt lat="41.655636312" lon="2.468597943">
        <ele>251.52</ele>
        <time>2014-07-27T09:43:37Z</time>
      </trkpt>
      <trkpt lat="41.655613429" lon="2.468548741">
        <ele>252.00</ele>
        <time>2014-07-27T09:43:40Z</time>
      </trkpt>
      <trkpt lat="41.655533801" lon="2.468529379">
        <ele>252.96</ele>
        <time>2014-07-27T09:43:46Z</time>
      </trkpt>
      <trkpt lat="41.655401032" lon="2.468551926">
        <ele>253.44</ele>
        <time>2014-07-27T09:43:54Z</time>
      </trkpt>
      <trkpt lat="41.655245799" lon="2.468618227">
        <ele>254.41</ele>
        <time>2014-07-27T09:44:04Z</time>
      </trkpt>
      <trkpt lat="41.655143456" lon="2.468687965">
        <ele>255.37</ele>
        <time>2014-07-27T09:44:12Z</time>
      </trkpt>
      <trkpt lat="41.655060642" lon="2.468763570">
        <ele>256.81</ele>
        <time>2014-07-27T09:44:20Z</time>
      </trkpt>
      <trkpt lat="41.654960982" lon="2.468842359">
        <ele>257.77</ele>
        <time>2014-07-27T09:44:28Z</time>
      </trkpt>
      <trkpt lat="41.654854783" lon="2.468936153">
        <ele>259.69</ele>
        <time>2014-07-27T09:44:37Z</time>
      </trkpt>
      <trkpt lat="41.654740035" lon="2.469044447">
        <ele>261.14</ele>
        <time>2014-07-27T09:44:47Z</time>
      </trkpt>
      <trkpt lat="41.654686055" lon="2.469092727">
        <ele>262.10</ele>
        <time>2014-07-27T09:44:52Z</time>
      </trkpt>
      <trkpt lat="41.654586227" lon="2.469108988">
        <ele>263.54</ele>
        <time>2014-07-27T09:44:59Z</time>
      </trkpt>
      <trkpt lat="41.654485979" lon="2.469024917">
        <ele>264.50</ele>
        <time>2014-07-27T09:45:08Z</time>
      </trkpt>
      <trkpt lat="41.654415320" lon="2.468925927">
        <ele>264.98</ele>
        <time>2014-07-27T09:45:15Z</time>
      </trkpt>
      <trkpt lat="41.654345331" lon="2.468825093">
        <ele>266.42</ele>
        <time>2014-07-27T09:45:22Z</time>
      </trkpt>
      <trkpt lat="41.654217255" lon="2.468744626">
        <ele>267.86</ele>
        <time>2014-07-27T09:45:31Z</time>
      </trkpt>
      <trkpt lat="41.654097729" lon="2.468714535">
        <ele>268.35</ele>
        <time>2014-07-27T09:45:39Z</time>
      </trkpt>
      <trkpt lat="41.653942161" lon="2.468760720">
        <ele>269.79</ele>
        <time>2014-07-27T09:45:50Z</time>
      </trkpt>
      <trkpt lat="41.653870077" lon="2.468803635">
        <ele>270.27</ele>
        <time>2014-07-27T09:45:55Z</time>
      </trkpt>
      <trkpt lat="41.653771422" lon="2.468883766">
        <ele>270.27</ele>
        <time>2014-07-27T09:46:02Z</time>
      </trkpt>
      <trkpt lat="41.653734793" lon="2.468913103">
        <ele>270.75</ele>
        <time>2014-07-27T09:46:05Z</time>
      </trkpt>
      <trkpt lat="41.653556342" lon="2.469049309">
        <ele>270.75</ele>
        <time>2014-07-27T09:46:15Z</time>
      </trkpt>
      <trkpt lat="41.653412174" lon="2.469101360">
        <ele>270.75</ele>
        <time>2014-07-27T09:46:22Z</time>
      </trkpt>
      <trkpt lat="41.653288876" lon="2.468992982">
        <ele>270.75</ele>
        <time>2014-07-27T09:46:28Z</time>
      </trkpt>
      <trkpt lat="41.653186449" lon="2.468799696">
        <ele>270.75</ele>
        <time>2014-07-27T09:46:35Z</time>
      </trkpt>
      <trkpt lat="41.653147557" lon="2.468648905">
        <ele>270.75</ele>
        <time>2014-07-27T09:46:41Z</time>
      </trkpt>
      <trkpt lat="41.653085447" lon="2.468459390">
        <ele>271.23</ele>
        <time>2014-07-27T09:46:49Z</time>
      </trkpt>
      <trkpt lat="41.653029288" lon="2.468299044">
        <ele>272.67</ele>
        <time>2014-07-27T09:46:56Z</time>
      </trkpt>
      <trkpt lat="41.652906829" lon="2.468093855">
        <ele>272.67</ele>
        <time>2014-07-27T09:47:04Z</time>
      </trkpt>
      <trkpt lat="41.652812532" lon="2.467972066">
        <ele>274.11</ele>
        <time>2014-07-27T09:47:11Z</time>
      </trkpt>
      <trkpt lat="41.652721337" lon="2.467875172">
        <ele>274.59</ele>
        <time>2014-07-27T09:47:19Z</time>
      </trkpt>
      <trkpt lat="41.652709519" lon="2.467855055">
        <ele>274.59</ele>
        <time>2014-07-27T09:47:22Z</time>
      </trkpt>
      <trkpt lat="41.652695772" lon="2.467813397">
        <ele>274.59</ele>
        <time>2014-07-27T09:47:25Z</time>
      </trkpt>
      <trkpt lat="41.652575827" lon="2.467710300">
        <ele>275.07</ele>
        <time>2014-07-27T09:47:32Z</time>
      </trkpt>
      <trkpt lat="41.652460325" lon="2.467565293">
        <ele>275.07</ele>
        <time>2014-07-27T09:47:40Z</time>
      </trkpt>
      <trkpt lat="41.652391425" lon="2.467428332">
        <ele>275.56</ele>
        <time>2014-07-27T09:47:47Z</time>
      </trkpt>
      <trkpt lat="41.652349684" lon="2.467344849">
        <ele>276.04</ele>
        <time>2014-07-27T09:47:51Z</time>
      </trkpt>
      <trkpt lat="41.652246167" lon="2.467270585">
        <ele>277.00</ele>
        <time>2014-07-27T09:47:57Z</time>
      </trkpt>
      <trkpt lat="41.652145165" lon="2.467215097">
        <ele>277.00</ele>
        <time>2014-07-27T09:48:03Z</time>
      </trkpt>
      <trkpt lat="41.652122450" lon="2.467125410">
        <ele>277.48</ele>
        <time>2014-07-27T09:48:07Z</time>
      </trkpt>
      <trkpt lat="41.652202246" lon="2.466991300">
        <ele>277.96</ele>
        <time>2014-07-27T09:48:14Z</time>
      </trkpt>
      <trkpt lat="41.652372818" lon="2.466887197">
        <ele>277.96</ele>
        <time>2014-07-27T09:48:21Z</time>
      </trkpt>
      <trkpt lat="41.652571385" lon="2.466706231">
        <ele>276.52</ele>
        <time>2014-07-27T09:48:27Z</time>
      </trkpt>
      <trkpt lat="41.652603404" lon="2.466661807">
        <ele>276.52</ele>
        <time>2014-07-27T09:48:28Z</time>
      </trkpt>
      <trkpt lat="41.652808006" lon="2.466285627">
        <ele>274.59</ele>
        <time>2014-07-27T09:48:35Z</time>
      </trkpt>
      <trkpt lat="41.652939769" lon="2.466066441">
        <ele>274.11</ele>
        <time>2014-07-27T09:48:40Z</time>
      </trkpt>
      <trkpt lat="41.653046052" lon="2.465785898">
        <ele>273.63</ele>
        <time>2014-07-27T09:48:46Z</time>
      </trkpt>
      <trkpt lat="41.653046303" lon="2.465544416">
        <ele>274.11</ele>
        <time>2014-07-27T09:48:52Z</time>
      </trkpt>
      <trkpt lat="41.653036245" lon="2.465360098">
        <ele>274.11</ele>
        <time>2014-07-27T09:48:58Z</time>
      </trkpt>
      <trkpt lat="41.652985619" lon="2.465172511">
        <ele>275.07</ele>
        <time>2014-07-27T09:49:05Z</time>
      </trkpt>
      <trkpt lat="41.652969106" lon="2.465145772">
        <ele>275.07</ele>
        <time>2014-07-27T09:49:06Z</time>
      </trkpt>
      <trkpt lat="41.652849664" lon="2.464960281">
        <ele>276.52</ele>
        <time>2014-07-27T09:49:14Z</time>
      </trkpt>
      <trkpt lat="41.652771545" lon="2.464827512">
        <ele>277.96</ele>
        <time>2014-07-27T09:49:21Z</time>
      </trkpt>
      <trkpt lat="41.652750171" lon="2.464682337">
        <ele>278.92</ele>
        <time>2014-07-27T09:49:27Z</time>
      </trkpt>
      <trkpt lat="41.652796020" lon="2.464475304">
        <ele>278.92</ele>
        <time>2014-07-27T09:49:34Z</time>
      </trkpt>
      <trkpt lat="41.652927364" lon="2.464269109">
        <ele>279.40</ele>
        <time>2014-07-27T09:49:42Z</time>
      </trkpt>
      <trkpt lat="41.653002634" lon="2.464184201">
        <ele>279.88</ele>
        <time>2014-07-27T09:49:47Z</time>
      </trkpt>
      <trkpt lat="41.653054266" lon="2.464065680">
        <ele>280.36</ele>
        <time>2014-07-27T09:49:53Z</time>
      </trkpt>
      <trkpt lat="41.653013027" lon="2.463909106">
        <ele>278.92</ele>
        <time>2014-07-27T09:49:58Z</time>
      </trkpt>
      <trkpt lat="41.652947313" lon="2.463666786">
        <ele>278.44</ele>
        <time>2014-07-27T09:50:04Z</time>
      </trkpt>
      <trkpt lat="41.652963909" lon="2.463596210">
        <ele>278.44</ele>
        <time>2014-07-27T09:50:06Z</time>
      </trkpt>
      <trkpt lat="41.652979835" lon="2.463308543">
        <ele>278.44</ele>
        <time>2014-07-27T09:50:14Z</time>
      </trkpt>
      <trkpt lat="41.653006825" lon="2.463008890">
        <ele>278.44</ele>
        <time>2014-07-27T09:50:21Z</time>
      </trkpt>
      <trkpt lat="41.653067594" lon="2.462704040">
        <ele>278.92</ele>
        <time>2014-07-27T09:50:30Z</time>
      </trkpt>
      <trkpt lat="41.653116209" lon="2.462537659">
        <ele>279.88</ele>
        <time>2014-07-27T09:50:35Z</time>
      </trkpt>
      <trkpt lat="41.653122160" lon="2.462324759">
        <ele>281.32</ele>
        <time>2014-07-27T09:50:43Z</time>
      </trkpt>
      <trkpt lat="41.653043873" lon="2.462174053">
        <ele>282.28</ele>
        <time>2014-07-27T09:50:50Z</time>
      </trkpt>
      <trkpt lat="41.652902386" lon="2.462009348">
        <ele>282.28</ele>
        <time>2014-07-27T09:50:57Z</time>
      </trkpt>
      <trkpt lat="41.652856789" lon="2.461789742">
        <ele>282.28</ele>
        <time>2014-07-27T09:51:04Z</time>
      </trkpt>
      <trkpt lat="41.652870870" lon="2.461644652">
        <ele>282.28</ele>
        <time>2014-07-27T09:51:08Z</time>
      </trkpt>
      <trkpt lat="41.652838516" lon="2.461373078">
        <ele>282.28</ele>
        <time>2014-07-27T09:51:17Z</time>
      </trkpt>
      <trkpt lat="41.652671549" lon="2.461165458">
        <ele>282.77</ele>
        <time>2014-07-27T09:51:25Z</time>
      </trkpt>
      <trkpt lat="41.652629052" lon="2.461063031">
        <ele>282.77</ele>
        <time>2014-07-27T09:51:28Z</time>
      </trkpt>
      <trkpt lat="41.652692336" lon="2.460715853">
        <ele>282.77</ele>
        <time>2014-07-27T09:51:37Z</time>
      </trkpt>
      <trkpt lat="41.652855280" lon="2.460444698">
        <ele>280.84</ele>
        <time>2014-07-27T09:51:45Z</time>
      </trkpt>
      <trkpt lat="41.652997269" lon="2.460342607">
        <ele>280.36</ele>
        <time>2014-07-27T09:51:51Z</time>
      </trkpt>
      <trkpt lat="41.653075305" lon="2.460315198">
        <ele>279.40</ele>
        <time>2014-07-27T09:51:54Z</time>
      </trkpt>
      <trkpt lat="41.653128614" lon="2.460264571">
        <ele>277.96</ele>
        <time>2014-07-27T09:52:01Z</time>
      </trkpt>
      <trkpt lat="41.653133224" lon="2.460280245">
        <ele>277.96</ele>
        <time>2014-07-27T09:52:08Z</time>
      </trkpt>
      <trkpt lat="41.653100702" lon="2.460303379">
        <ele>278.92</ele>
        <time>2014-07-27T09:52:15Z</time>
      </trkpt>
      <trkpt lat="41.653039179" lon="2.460327519">
        <ele>278.92</ele>
        <time>2014-07-27T09:52:20Z</time>
      </trkpt>
      <trkpt lat="41.652929041" lon="2.460350905">
        <ele>280.84</ele>
        <time>2014-07-27T09:52:27Z</time>
      </trkpt>
      <trkpt lat="41.652835666" lon="2.460379906">
        <ele>281.32</ele>
        <time>2014-07-27T09:52:32Z</time>
      </trkpt>
      <trkpt lat="41.652686468" lon="2.460303882">
        <ele>282.77</ele>
        <time>2014-07-27T09:52:41Z</time>
      </trkpt>
      <trkpt lat="41.652552106" lon="2.460215872">
        <ele>284.69</ele>
        <time>2014-07-27T09:52:51Z</time>
      </trkpt>
      <trkpt lat="41.652448087" lon="2.460148733">
        <ele>286.13</ele>
        <time>2014-07-27T09:52:59Z</time>
      </trkpt>
      <trkpt lat="41.652319844" lon="2.460064160">
        <ele>287.57</ele>
        <time>2014-07-27T09:53:08Z</time>
      </trkpt>
      <trkpt lat="41.652213142" lon="2.459926445">
        <ele>289.01</ele>
        <time>2014-07-27T09:53:19Z</time>
      </trkpt>
      <trkpt lat="41.652164695" lon="2.459811026">
        <ele>290.46</ele>
        <time>2014-07-27T09:53:26Z</time>
      </trkpt>
      <trkpt lat="41.652109793" lon="2.459662080">
        <ele>291.42</ele>
        <time>2014-07-27T09:53:34Z</time>
      </trkpt>
      <trkpt lat="41.652072662" lon="2.459592426">
        <ele>291.90</ele>
        <time>2014-07-27T09:53:38Z</time>
      </trkpt>
      <trkpt lat="41.652011390" lon="2.459565772">
        <ele>291.90</ele>
        <time>2014-07-27T09:53:42Z</time>
      </trkpt>
      <trkpt lat="41.651986999" lon="2.459646071">
        <ele>292.86</ele>
        <time>2014-07-27T09:53:48Z</time>
      </trkpt>
      <trkpt lat="41.652011809" lon="2.459861150">
        <ele>293.82</ele>
        <time>2014-07-27T09:53:57Z</time>
      </trkpt>
      <trkpt lat="41.652060927" lon="2.460019149">
        <ele>293.82</ele>
        <time>2014-07-27T09:54:05Z</time>
      </trkpt>
      <trkpt lat="41.652054976" lon="2.460091820">
        <ele>293.82</ele>
        <time>2014-07-27T09:54:09Z</time>
      </trkpt>
      <trkpt lat="41.652050533" lon="2.460159546">
        <ele>294.78</ele>
        <time>2014-07-27T09:54:12Z</time>
      </trkpt>
      <trkpt lat="41.652040475" lon="2.460297093">
        <ele>295.26</ele>
        <time>2014-07-27T09:54:18Z</time>
      </trkpt>
      <trkpt lat="41.652055227" lon="2.460470598">
        <ele>296.70</ele>
        <time>2014-07-27T09:54:26Z</time>
      </trkpt>
      <trkpt lat="41.652052713" lon="2.460491134">
        <ele>296.70</ele>
        <time>2014-07-27T09:54:27Z</time>
      </trkpt>
      <trkpt lat="41.652054892" lon="2.460642679">
        <ele>297.67</ele>
        <time>2014-07-27T09:54:34Z</time>
      </trkpt>
      <trkpt lat="41.652077942" lon="2.460728258">
        <ele>298.15</ele>
        <time>2014-07-27T09:54:38Z</time>
      </trkpt>
      <trkpt lat="41.652105351" lon="2.460948786">
        <ele>298.63</ele>
        <time>2014-07-27T09:54:47Z</time>
      </trkpt>
      <trkpt lat="41.652134772" lon="2.461133691">
        <ele>300.07</ele>
        <time>2014-07-27T09:54:56Z</time>
      </trkpt>
      <trkpt lat="41.652151871" lon="2.461276770">
        <ele>301.03</ele>
        <time>2014-07-27T09:55:03Z</time>
      </trkpt>
      <trkpt lat="41.652202497" lon="2.461449102">
        <ele>302.47</ele>
        <time>2014-07-27T09:55:11Z</time>
      </trkpt>
      <trkpt lat="41.652200569" lon="2.461470392">
        <ele>302.47</ele>
        <time>2014-07-27T09:55:12Z</time>
      </trkpt>
      <trkpt lat="41.652200067" lon="2.461575166">
        <ele>303.91</ele>
        <time>2014-07-27T09:55:17Z</time>
      </trkpt>
      <trkpt lat="41.652183387" lon="2.461758478">
        <ele>304.88</ele>
        <time>2014-07-27T09:55:26Z</time>
      </trkpt>
      <trkpt lat="41.652167880" lon="2.461967271">
        <ele>305.36</ele>
        <time>2014-07-27T09:55:35Z</time>
      </trkpt>
      <trkpt lat="41.652179112" lon="2.462188637">
        <ele>305.84</ele>
        <time>2014-07-27T09:55:44Z</time>
      </trkpt>
      <trkpt lat="41.652182129" lon="2.462210514">
        <ele>305.84</ele>
        <time>2014-07-27T09:55:45Z</time>
      </trkpt>
      <trkpt lat="41.652157989" lon="2.462408578">
        <ele>307.28</ele>
        <time>2014-07-27T09:55:54Z</time>
      </trkpt>
      <trkpt lat="41.652109039" lon="2.462617288">
        <ele>308.24</ele>
        <time>2014-07-27T09:56:05Z</time>
      </trkpt>
      <trkpt lat="41.652033770" lon="2.462760870">
        <ele>309.68</ele>
        <time>2014-07-27T09:56:13Z</time>
      </trkpt>
      <trkpt lat="41.652002002" lon="2.463006627">
        <ele>309.68</ele>
        <time>2014-07-27T09:56:22Z</time>
      </trkpt>
      <trkpt lat="41.652008875" lon="2.463251546">
        <ele>308.72</ele>
        <time>2014-07-27T09:56:29Z</time>
      </trkpt>
      <trkpt lat="41.652008624" lon="2.463436032">
        <ele>308.72</ele>
        <time>2014-07-27T09:56:35Z</time>
      </trkpt>
      <trkpt lat="41.651998985" lon="2.463572908">
        <ele>308.72</ele>
        <time>2014-07-27T09:56:41Z</time>
      </trkpt>
      <trkpt lat="41.651999907" lon="2.463776002">
        <ele>310.16</ele>
        <time>2014-07-27T09:56:49Z</time>
      </trkpt>
      <trkpt lat="41.651950118" lon="2.463971468">
        <ele>311.60</ele>
        <time>2014-07-27T09:56:58Z</time>
      </trkpt>
      <trkpt lat="41.651871999" lon="2.464076493">
        <ele>312.09</ele>
        <time>2014-07-27T09:57:04Z</time>
      </trkpt>
      <trkpt lat="41.651806117" lon="2.464212531">
        <ele>313.53</ele>
        <time>2014-07-27T09:57:12Z</time>
      </trkpt>
      <trkpt lat="41.651750126" lon="2.464381175">
        <ele>313.53</ele>
        <time>2014-07-27T09:57:19Z</time>
      </trkpt>
      <trkpt lat="41.651732440" lon="2.464568092">
        <ele>314.97</ele>
        <time>2014-07-27T09:57:28Z</time>
      </trkpt>
      <trkpt lat="41.651735961" lon="2.464586364">
        <ele>314.97</ele>
        <time>2014-07-27T09:57:29Z</time>
      </trkpt>
      <trkpt lat="41.651739481" lon="2.464796163">
        <ele>315.45</ele>
        <time>2014-07-27T09:57:38Z</time>
      </trkpt>
      <trkpt lat="41.651722801" lon="2.465089865">
        <ele>316.41</ele>
        <time>2014-07-27T09:57:49Z</time>
      </trkpt>
      <trkpt lat="41.651698326" lon="2.465237219">
        <ele>317.37</ele>
        <time>2014-07-27T09:57:56Z</time>
      </trkpt>
      <trkpt lat="41.651666726" lon="2.465418268">
        <ele>318.81</ele>
        <time>2014-07-27T09:58:05Z</time>
      </trkpt>
      <trkpt lat="41.651611489" lon="2.465597138">
        <ele>320.26</ele>
        <time>2014-07-27T09:58:14Z</time>
      </trkpt>
      <trkpt lat="41.651516439" lon="2.465751784">
        <ele>322.18</ele>
        <time>2014-07-27T09:58:23Z</time>
      </trkpt>
      <trkpt lat="41.651428596" lon="2.465859072">
        <ele>323.62</ele>
        <time>2014-07-27T09:58:31Z</time>
      </trkpt>
      <trkpt lat="41.651331701" lon="2.465890253">
        <ele>325.54</ele>
        <time>2014-07-27T09:58:39Z</time>
      </trkpt>
      <trkpt lat="41.651228939" lon="2.465867873">
        <ele>327.95</ele>
        <time>2014-07-27T09:58:48Z</time>
      </trkpt>
      <trkpt lat="41.651112012" lon="2.465818169">
        <ele>328.91</ele>
        <time>2014-07-27T09:58:57Z</time>
      </trkpt>
      <trkpt lat="41.651073623" lon="2.465773242">
        <ele>329.39</ele>
        <time>2014-07-27T09:59:01Z</time>
      </trkpt>
      <trkpt lat="41.650994581" lon="2.465722028">
        <ele>330.35</ele>
        <time>2014-07-27T09:59:07Z</time>
      </trkpt>
      <trkpt lat="41.650868098" lon="2.465625217">
        <ele>332.75</ele>
        <time>2014-07-27T09:59:18Z</time>
      </trkpt>
      <trkpt lat="41.650747147" lon="2.465545757">
        <ele>335.16</ele>
        <time>2014-07-27T09:59:28Z</time>
      </trkpt>
      <trkpt lat="41.650648325" lon="2.465501584">
        <ele>337.08</ele>
        <time>2014-07-27T09:59:36Z</time>
      </trkpt>
      <trkpt lat="41.650571547" lon="2.465538968">
        <ele>337.56</ele>
        <time>2014-07-27T09:59:41Z</time>
      </trkpt>
      <trkpt lat="41.650493511" lon="2.465657907">
        <ele>338.52</ele>
        <time>2014-07-27T09:59:50Z</time>
      </trkpt>
      <trkpt lat="41.650420924" lon="2.465758825">
        <ele>339.00</ele>
        <time>2014-07-27T09:59:57Z</time>
      </trkpt>
      <trkpt lat="41.650346576" lon="2.465852786">
        <ele>340.92</ele>
        <time>2014-07-27T10:00:05Z</time>
      </trkpt>
      <trkpt lat="41.650276587" lon="2.465986058">
        <ele>341.89</ele>
        <time>2014-07-27T10:00:13Z</time>
      </trkpt>
      <trkpt lat="41.650218585" lon="2.466090497">
        <ele>342.37</ele>
        <time>2014-07-27T10:00:19Z</time>
      </trkpt>
      <trkpt lat="41.650083217" lon="2.466250423">
        <ele>344.29</ele>
        <time>2014-07-27T10:00:30Z</time>
      </trkpt>
      <trkpt lat="41.649949274" lon="2.466300296">
        <ele>344.29</ele>
        <time>2014-07-27T10:00:38Z</time>
      </trkpt>
      <trkpt lat="41.649854391" lon="2.466334326">
        <ele>344.77</ele>
        <time>2014-07-27T10:00:44Z</time>
      </trkpt>
      <trkpt lat="41.649716257" lon="2.466306750">
        <ele>346.21</ele>
        <time>2014-07-27T10:00:54Z</time>
      </trkpt>
      <trkpt lat="41.649607209" lon="2.466338601">
        <ele>347.65</ele>
        <time>2014-07-27T10:01:02Z</time>
      </trkpt>
      <trkpt lat="41.649584829" lon="2.466346061">
        <ele>348.13</ele>
        <time>2014-07-27T10:01:04Z</time>
      </trkpt>
      <trkpt lat="41.649478379" lon="2.466412446">
        <ele>350.06</ele>
        <time>2014-07-27T10:01:12Z</time>
      </trkpt>
      <trkpt lat="41.649352650" lon="2.466544544">
        <ele>350.54</ele>
        <time>2014-07-27T10:01:21Z</time>
      </trkpt>
      <trkpt lat="41.649260114" lon="2.466700364">
        <ele>351.50</ele>
        <time>2014-07-27T10:01:30Z</time>
      </trkpt>
      <trkpt lat="41.649237902" lon="2.466805892">
        <ele>352.46</ele>
        <time>2014-07-27T10:01:35Z</time>
      </trkpt>
      <trkpt lat="41.649219210" lon="2.466897506">
        <ele>352.94</ele>
        <time>2014-07-27T10:01:39Z</time>
      </trkpt>
      <trkpt lat="41.649223988" lon="2.467140162">
        <ele>353.90</ele>
        <time>2014-07-27T10:01:49Z</time>
      </trkpt>
      <trkpt lat="41.649284002" lon="2.467320625">
        <ele>354.86</ele>
        <time>2014-07-27T10:01:57Z</time>
      </trkpt>
      <trkpt lat="41.649430937" lon="2.467535202">
        <ele>354.86</ele>
        <time>2014-07-27T10:02:06Z</time>
      </trkpt>
      <trkpt lat="41.649544344" lon="2.467710216">
        <ele>354.86</ele>
        <time>2014-07-27T10:02:13Z</time>
      </trkpt>
      <trkpt lat="41.649657584" lon="2.467877435">
        <ele>354.86</ele>
        <time>2014-07-27T10:02:21Z</time>
      </trkpt>
      <trkpt lat="41.649780379" lon="2.468068291">
        <ele>354.86</ele>
        <time>2014-07-27T10:02:28Z</time>
      </trkpt>
      <trkpt lat="41.649832514" lon="2.468348414">
        <ele>352.94</ele>
        <time>2014-07-27T10:02:35Z</time>
      </trkpt>
      <trkpt lat="41.649759843" lon="2.468499120">
        <ele>352.46</ele>
        <time>2014-07-27T10:02:40Z</time>
      </trkpt>
      <trkpt lat="41.649730003" lon="2.468522674">
        <ele>352.46</ele>
        <time>2014-07-27T10:02:42Z</time>
      </trkpt>
      <trkpt lat="41.649640317" lon="2.468533151">
        <ele>352.46</ele>
        <time>2014-07-27T10:02:46Z</time>
      </trkpt>
      <trkpt lat="41.649476451" lon="2.468438687">
        <ele>352.46</ele>
        <time>2014-07-27T10:02:54Z</time>
      </trkpt>
      <trkpt lat="41.649372599" lon="2.468330141">
        <ele>352.46</ele>
        <time>2014-07-27T10:03:01Z</time>
      </trkpt>
      <trkpt lat="41.649344268" lon="2.468292087">
        <ele>353.90</ele>
        <time>2014-07-27T10:03:03Z</time>
      </trkpt>
      <trkpt lat="41.649232621" lon="2.468133083">
        <ele>354.86</ele>
        <time>2014-07-27T10:03:13Z</time>
      </trkpt>
      <trkpt lat="41.649133547" lon="2.467993105">
        <ele>356.31</ele>
        <time>2014-07-27T10:03:21Z</time>
      </trkpt>
      <trkpt lat="41.649034892" lon="2.467885481">
        <ele>357.27</ele>
        <time>2014-07-27T10:03:28Z</time>
      </trkpt>
      <trkpt lat="41.648918216" lon="2.467804093">
        <ele>357.75</ele>
        <time>2014-07-27T10:03:36Z</time>
      </trkpt>
      <trkpt lat="41.648814616" lon="2.467731003">
        <ele>358.71</ele>
        <time>2014-07-27T10:03:43Z</time>
      </trkpt>
      <trkpt lat="41.648684780" lon="2.467641149">
        <ele>359.67</ele>
        <time>2014-07-27T10:03:51Z</time>
      </trkpt>
      <trkpt lat="41.648585790" lon="2.467560515">
        <ele>361.59</ele>
        <time>2014-07-27T10:03:58Z</time>
      </trkpt>
      <trkpt lat="41.648476574" lon="2.467485078">
        <ele>362.55</ele>
        <time>2014-07-27T10:04:06Z</time>
      </trkpt>
      <trkpt lat="41.648382193" lon="2.467416514">
        <ele>363.52</ele>
        <time>2014-07-27T10:04:14Z</time>
      </trkpt>
      <trkpt lat="41.648285634" lon="2.467336299">
        <ele>364.48</ele>
        <time>2014-07-27T10:04:22Z</time>
      </trkpt>
      <trkpt lat="41.648174322" lon="2.467263209">
        <ele>365.92</ele>
        <time>2014-07-27T10:04:30Z</time>
      </trkpt>
      <trkpt lat="41.648072398" lon="2.467171008">
        <ele>367.36</ele>
        <time>2014-07-27T10:04:38Z</time>
      </trkpt>
      <trkpt lat="41.647982461" lon="2.467100516">
        <ele>368.80</ele>
        <time>2014-07-27T10:04:46Z</time>
      </trkpt>
      <trkpt lat="41.647948933" lon="2.467065480">
        <ele>369.28</ele>
        <time>2014-07-27T10:04:49Z</time>
      </trkpt>
      <trkpt lat="41.647884225" lon="2.467001861">
        <ele>370.24</ele>
        <time>2014-07-27T10:04:55Z</time>
      </trkpt>
      <trkpt lat="41.647789593" lon="2.466909325">
        <ele>371.69</ele>
        <time>2014-07-27T10:05:04Z</time>
      </trkpt>
      <trkpt lat="41.647623296" lon="2.466851490">
        <ele>372.17</ele>
        <time>2014-07-27T10:05:14Z</time>
      </trkpt>
      <trkpt lat="41.647513577" lon="2.466824668">
        <ele>374.09</ele>
        <time>2014-07-27T10:05:22Z</time>
      </trkpt>
      <trkpt lat="41.647397320" lon="2.466802623">
        <ele>375.53</ele>
        <time>2014-07-27T10:05:32Z</time>
      </trkpt>
      <trkpt lat="41.647289277" lon="2.466772532">
        <ele>377.94</ele>
        <time>2014-07-27T10:05:41Z</time>
      </trkpt>
      <trkpt lat="41.647169500" lon="2.466748225">
        <ele>378.90</ele>
        <time>2014-07-27T10:05:50Z</time>
      </trkpt>
      <trkpt lat="41.647047543" lon="2.466709668">
        <ele>381.78</ele>
        <time>2014-07-27T10:06:01Z</time>
      </trkpt>
      <trkpt lat="41.646910080" lon="2.466639260">
        <ele>383.70</ele>
        <time>2014-07-27T10:06:12Z</time>
      </trkpt>
      <trkpt lat="41.646784519" lon="2.466541695">
        <ele>384.18</ele>
        <time>2014-07-27T10:06:21Z</time>
      </trkpt>
      <trkpt lat="41.646642697" lon="2.466432395">
        <ele>385.15</ele>
        <time>2014-07-27T10:06:32Z</time>
      </trkpt>
      <trkpt lat="41.646543791" lon="2.466329968">
        <ele>386.59</ele>
        <time>2014-07-27T10:06:41Z</time>
      </trkpt>
      <trkpt lat="41.646419655" lon="2.466216644">
        <ele>387.55</ele>
        <time>2014-07-27T10:06:51Z</time>
      </trkpt>
      <trkpt lat="41.646306834" lon="2.466149422">
        <ele>388.51</ele>
        <time>2014-07-27T10:06:59Z</time>
      </trkpt>
      <trkpt lat="41.646176496" lon="2.466138441">
        <ele>389.47</ele>
        <time>2014-07-27T10:07:07Z</time>
      </trkpt>
      <trkpt lat="41.646035177" lon="2.466107093">
        <ele>390.43</ele>
        <time>2014-07-27T10:07:16Z</time>
      </trkpt>
      <trkpt lat="41.645952783" lon="2.466114804">
        <ele>391.87</ele>
        <time>2014-07-27T10:07:22Z</time>
      </trkpt>
      <trkpt lat="41.645824456" lon="2.466246568">
        <ele>392.36</ele>
        <time>2014-07-27T10:07:32Z</time>
      </trkpt>
      <trkpt lat="41.645752036" lon="2.466398029">
        <ele>393.80</ele>
        <time>2014-07-27T10:07:41Z</time>
      </trkpt>
      <trkpt lat="41.645677772" lon="2.466557788">
        <ele>394.76</ele>
        <time>2014-07-27T10:07:50Z</time>
      </trkpt>
      <trkpt lat="41.645662853" lon="2.466645211">
        <ele>396.68</ele>
        <time>2014-07-27T10:07:56Z</time>
      </trkpt>
      <trkpt lat="41.645633348" lon="2.466806227">
        <ele>399.08</ele>
        <time>2014-07-27T10:08:06Z</time>
      </trkpt>
      <trkpt lat="41.645618512" lon="2.466908319">
        <ele>400.53</ele>
        <time>2014-07-27T10:08:12Z</time>
      </trkpt>
      <trkpt lat="41.645630750" lon="2.467057182">
        <ele>401.49</ele>
        <time>2014-07-27T10:08:20Z</time>
      </trkpt>
      <trkpt lat="41.645674001" lon="2.467194729">
        <ele>403.41</ele>
        <time>2014-07-27T10:08:28Z</time>
      </trkpt>
      <trkpt lat="41.645729405" lon="2.467354152">
        <ele>406.29</ele>
        <time>2014-07-27T10:08:38Z</time>
      </trkpt>
      <trkpt lat="41.645763268" lon="2.467493963">
        <ele>407.26</ele>
        <time>2014-07-27T10:08:46Z</time>
      </trkpt>
      <trkpt lat="41.645754634" lon="2.467598150">
        <ele>408.22</ele>
        <time>2014-07-27T10:08:52Z</time>
      </trkpt>
      <trkpt lat="41.645707277" lon="2.467779786">
        <ele>410.14</ele>
        <time>2014-07-27T10:09:03Z</time>
      </trkpt>
      <trkpt lat="41.645631923" lon="2.467945831">
        <ele>411.58</ele>
        <time>2014-07-27T10:09:14Z</time>
      </trkpt>
      <trkpt lat="41.645587080" lon="2.468072314">
        <ele>412.54</ele>
        <time>2014-07-27T10:09:22Z</time>
      </trkpt>
      <trkpt lat="41.645570233" lon="2.468206927">
        <ele>413.98</ele>
        <time>2014-07-27T10:09:30Z</time>
      </trkpt>
      <trkpt lat="41.645552379" lon="2.468349420">
        <ele>415.43</ele>
        <time>2014-07-27T10:09:39Z</time>
      </trkpt>
      <trkpt lat="41.645516085" lon="2.468455032">
        <ele>416.87</ele>
        <time>2014-07-27T10:09:47Z</time>
      </trkpt>
      <trkpt lat="41.645485492" lon="2.468528289">
        <ele>417.83</ele>
        <time>2014-07-27T10:09:52Z</time>
      </trkpt>
      <trkpt lat="41.645421538" lon="2.468672793">
        <ele>418.31</ele>
        <time>2014-07-27T10:10:01Z</time>
      </trkpt>
      <trkpt lat="41.645404019" lon="2.468699448">
        <ele>418.79</ele>
        <time>2014-07-27T10:10:03Z</time>
      </trkpt>
      <trkpt lat="41.645349453" lon="2.468802964">
        <ele>419.75</ele>
        <time>2014-07-27T10:10:11Z</time>
      </trkpt>
      <trkpt lat="41.645341742" lon="2.468819058">
        <ele>419.75</ele>
        <time>2014-07-27T10:10:12Z</time>
      </trkpt>
      <trkpt lat="41.645300587" lon="2.468915366">
        <ele>419.75</ele>
        <time>2014-07-27T10:10:18Z</time>
      </trkpt>
      <trkpt lat="41.645231101" lon="2.469048219">
        <ele>420.71</ele>
        <time>2014-07-27T10:10:28Z</time>
      </trkpt>
      <trkpt lat="41.645218193" lon="2.469075879">
        <ele>421.19</ele>
        <time>2014-07-27T10:10:30Z</time>
      </trkpt>
      <trkpt lat="41.645174523" lon="2.469114017">
        <ele>421.68</ele>
        <time>2014-07-27T10:10:34Z</time>
      </trkpt>
      <trkpt lat="41.645091458" lon="2.469235638">
        <ele>423.60</ele>
        <time>2014-07-27T10:10:44Z</time>
      </trkpt>
      <trkpt lat="41.645003616" lon="2.469433786">
        <ele>424.56</ele>
        <time>2014-07-27T10:10:54Z</time>
      </trkpt>
      <trkpt lat="41.644975956" lon="2.469532693">
        <ele>426.48</ele>
        <time>2014-07-27T10:10:59Z</time>
      </trkpt>
      <trkpt lat="41.644977464" lon="2.469569909">
        <ele>426.48</ele>
        <time>2014-07-27T10:11:01Z</time>
      </trkpt>
      <trkpt lat="41.644944104" lon="2.469770655">
        <ele>426.96</ele>
        <time>2014-07-27T10:11:11Z</time>
      </trkpt>
      <trkpt lat="41.644937986" lon="2.469901161">
        <ele>427.44</ele>
        <time>2014-07-27T10:11:17Z</time>
      </trkpt>
      <trkpt lat="41.644918288" lon="2.469991518">
        <ele>427.92</ele>
        <time>2014-07-27T10:11:21Z</time>
      </trkpt>
      <trkpt lat="41.644870679" lon="2.470174411">
        <ele>428.89</ele>
        <time>2014-07-27T10:11:30Z</time>
      </trkpt>
      <trkpt lat="41.644839163" lon="2.470343894">
        <ele>431.29</ele>
        <time>2014-07-27T10:11:38Z</time>
      </trkpt>
      <trkpt lat="41.644790883" lon="2.470526032">
        <ele>432.25</ele>
        <time>2014-07-27T10:11:46Z</time>
      </trkpt>
      <trkpt lat="41.644686696" lon="2.470719403">
        <ele>432.25</ele>
        <time>2014-07-27T10:11:53Z</time>
      </trkpt>
      <trkpt lat="41.644676889" lon="2.470743626">
        <ele>432.25</ele>
        <time>2014-07-27T10:11:54Z</time>
      </trkpt>
      <trkpt lat="41.644695413" lon="2.470878072">
        <ele>432.25</ele>
        <time>2014-07-27T10:12:00Z</time>
      </trkpt>
      <trkpt lat="41.644795745" lon="2.471028863">
        <ele>433.21</ele>
        <time>2014-07-27T10:12:09Z</time>
      </trkpt>
      <trkpt lat="41.644815610" lon="2.471201614">
        <ele>435.13</ele>
        <time>2014-07-27T10:12:18Z</time>
      </trkpt>
      <trkpt lat="41.644787950" lon="2.471412419">
        <ele>435.13</ele>
        <time>2014-07-27T10:12:24Z</time>
      </trkpt>
      <trkpt lat="41.644770683" lon="2.471700002">
        <ele>435.13</ele>
        <time>2014-07-27T10:12:31Z</time>
      </trkpt>
      <trkpt lat="41.644841258" lon="2.471992698">
        <ele>435.61</ele>
        <time>2014-07-27T10:12:39Z</time>
      </trkpt>
      <trkpt lat="41.644875121" lon="2.472260416">
        <ele>436.10</ele>
        <time>2014-07-27T10:12:48Z</time>
      </trkpt>
      <trkpt lat="41.644902027" lon="2.472514052">
        <ele>436.10</ele>
        <time>2014-07-27T10:12:56Z</time>
      </trkpt>
      <trkpt lat="41.644926670" lon="2.472728042">
        <ele>436.10</ele>
        <time>2014-07-27T10:13:02Z</time>
      </trkpt>
      <trkpt lat="41.644932118" lon="2.472949576">
        <ele>436.10</ele>
        <time>2014-07-27T10:13:09Z</time>
      </trkpt>
      <trkpt lat="41.644900519" lon="2.473181000">
        <ele>436.10</ele>
        <time>2014-07-27T10:13:16Z</time>
      </trkpt>
      <trkpt lat="41.644843605" lon="2.473333299">
        <ele>436.10</ele>
        <time>2014-07-27T10:13:22Z</time>
      </trkpt>
      <trkpt lat="41.644828602" lon="2.473395828">
        <ele>436.10</ele>
        <time>2014-07-27T10:13:26Z</time>
      </trkpt>
      <trkpt lat="41.644847377" lon="2.473449975">
        <ele>436.10</ele>
        <time>2014-07-27T10:13:34Z</time>
      </trkpt>
      <trkpt lat="41.644856681" lon="2.473482330">
        <ele>436.10</ele>
        <time>2014-07-27T10:13:44Z</time>
      </trkpt>
      <trkpt lat="41.644847629" lon="2.473470427">
        <ele>436.10</ele>
        <time>2014-07-27T10:13:53Z</time>
      </trkpt>
      <trkpt lat="41.644853831" lon="2.473456178">
        <ele>436.10</ele>
        <time>2014-07-27T10:14:11Z</time>
      </trkpt>
      <trkpt lat="41.644824830" lon="2.473452574">
        <ele>436.10</ele>
        <time>2014-07-27T10:14:34Z</time>
      </trkpt>
      <trkpt lat="41.644827764" lon="2.473458273">
        <ele>436.58</ele>
        <time>2014-07-27T10:14:50Z</time>
      </trkpt>
      <trkpt lat="41.644829859" lon="2.473463889">
        <ele>436.58</ele>
        <time>2014-07-27T10:15:08Z</time>
      </trkpt>
      <trkpt lat="41.644834804" lon="2.473476043">
        <ele>436.58</ele>
        <time>2014-07-27T10:15:22Z</time>
      </trkpt>
      <trkpt lat="41.644821058" lon="2.473446371">
        <ele>437.06</ele>
        <time>2014-07-27T10:15:31Z</time>
      </trkpt>
      <trkpt lat="41.644819968" lon="2.473439330">
        <ele>437.06</ele>
        <time>2014-07-27T10:15:39Z</time>
      </trkpt>
      <trkpt lat="41.644811419" lon="2.473435642">
        <ele>437.06</ele>
        <time>2014-07-27T10:15:41Z</time>
      </trkpt>
      <trkpt lat="41.644780238" lon="2.473417537">
        <ele>437.06</ele>
        <time>2014-07-27T10:15:44Z</time>
      </trkpt>
      <trkpt lat="41.644534397" lon="2.473395828">
        <ele>437.06</ele>
        <time>2014-07-27T10:15:54Z</time>
      </trkpt>
      <trkpt lat="41.644366172" lon="2.473381328">
        <ele>437.06</ele>
        <time>2014-07-27T10:16:01Z</time>
      </trkpt>
      <trkpt lat="41.644243210" lon="2.473495657">
        <ele>437.06</ele>
        <time>2014-07-27T10:16:08Z</time>
      </trkpt>
      <trkpt lat="41.644121085" lon="2.473570759">
        <ele>437.06</ele>
        <time>2014-07-27T10:16:15Z</time>
      </trkpt>
      <trkpt lat="41.643992926" lon="2.473709814">
        <ele>437.06</ele>
        <time>2014-07-27T10:16:22Z</time>
      </trkpt>
      <trkpt lat="41.643804836" lon="2.473879967">
        <ele>437.06</ele>
        <time>2014-07-27T10:16:31Z</time>
      </trkpt>
      <trkpt lat="41.643657901" lon="2.473917769">
        <ele>438.02</ele>
        <time>2014-07-27T10:16:38Z</time>
      </trkpt>
      <trkpt lat="41.643578860" lon="2.473994631">
        <ele>438.50</ele>
        <time>2014-07-27T10:16:43Z</time>
      </trkpt>
      <trkpt lat="41.643637030" lon="2.474251202">
        <ele>438.50</ele>
        <time>2014-07-27T10:16:50Z</time>
      </trkpt>
      <trkpt lat="41.643678940" lon="2.474513890">
        <ele>438.02</ele>
        <time>2014-07-27T10:16:57Z</time>
      </trkpt>
      <trkpt lat="41.643652453" lon="2.474651018">
        <ele>438.50</ele>
        <time>2014-07-27T10:17:02Z</time>
      </trkpt>
      <trkpt lat="41.643524629" lon="2.474828882">
        <ele>440.42</ele>
        <time>2014-07-27T10:17:12Z</time>
      </trkpt>
      <trkpt lat="41.643383059" lon="2.474921335">
        <ele>443.31</ele>
        <time>2014-07-27T10:17:21Z</time>
      </trkpt>
      <trkpt lat="41.643269400" lon="2.475000795">
        <ele>445.23</ele>
        <time>2014-07-27T10:17:29Z</time>
      </trkpt>
      <trkpt lat="41.643182731" lon="2.475106659">
        <ele>447.15</ele>
        <time>2014-07-27T10:17:37Z</time>
      </trkpt>
      <trkpt lat="41.643110144" lon="2.475249235">
        <ele>448.11</ele>
        <time>2014-07-27T10:17:46Z</time>
      </trkpt>
      <trkpt lat="41.643041161" lon="2.475362139">
        <ele>448.11</ele>
        <time>2014-07-27T10:17:53Z</time>
      </trkpt>
      <trkpt lat="41.642968574" lon="2.475484263">
        <ele>449.07</ele>
        <time>2014-07-27T10:18:01Z</time>
      </trkpt>
      <trkpt lat="41.642922473" lon="2.475661708">
        <ele>449.55</ele>
        <time>2014-07-27T10:18:11Z</time>
      </trkpt>
      <trkpt lat="41.642917109" lon="2.475685429">
        <ele>449.55</ele>
        <time>2014-07-27T10:18:12Z</time>
      </trkpt>
      <trkpt lat="41.642914175" lon="2.475888606">
        <ele>450.03</ele>
        <time>2014-07-27T10:18:22Z</time>
      </trkpt>
      <trkpt lat="41.642855586" lon="2.476041073">
        <ele>451.48</ele>
        <time>2014-07-27T10:18:30Z</time>
      </trkpt>
      <trkpt lat="41.642781825" lon="2.476165293">
        <ele>452.92</ele>
        <time>2014-07-27T10:18:38Z</time>
      </trkpt>
      <trkpt lat="41.642773778" lon="2.476193372">
        <ele>452.92</ele>
        <time>2014-07-27T10:18:40Z</time>
      </trkpt>
      <trkpt lat="41.642734299" lon="2.476307618">
        <ele>454.36</ele>
        <time>2014-07-27T10:18:48Z</time>
      </trkpt>
      <trkpt lat="41.642680404" lon="2.476462012">
        <ele>456.28</ele>
        <time>2014-07-27T10:18:56Z</time>
      </trkpt>
      <trkpt lat="41.642606559" lon="2.476619173">
        <ele>457.24</ele>
        <time>2014-07-27T10:19:05Z</time>
      </trkpt>
      <trkpt lat="41.642576803" lon="2.476678601">
        <ele>458.21</ele>
        <time>2014-07-27T10:19:09Z</time>
      </trkpt>
      <trkpt lat="41.642529110" lon="2.476806173">
        <ele>459.17</ele>
        <time>2014-07-27T10:19:17Z</time>
      </trkpt>
      <trkpt lat="41.642457110" lon="2.476965429">
        <ele>459.17</ele>
        <time>2014-07-27T10:19:26Z</time>
      </trkpt>
      <trkpt lat="41.642367423" lon="2.477164835">
        <ele>459.65</ele>
        <time>2014-07-27T10:19:35Z</time>
      </trkpt>
      <trkpt lat="41.642257034" lon="2.477328617">
        <ele>460.13</ele>
        <time>2014-07-27T10:19:45Z</time>
      </trkpt>
      <trkpt lat="41.642169191" lon="2.477431882">
        <ele>461.09</ele>
        <time>2014-07-27T10:19:53Z</time>
      </trkpt>
      <trkpt lat="41.642065340" lon="2.477510756">
        <ele>462.53</ele>
        <time>2014-07-27T10:20:01Z</time>
      </trkpt>
      <trkpt lat="41.641940533" lon="2.477578901">
        <ele>464.93</ele>
        <time>2014-07-27T10:20:10Z</time>
      </trkpt>
      <trkpt lat="41.641852691" lon="2.477681747">
        <ele>466.86</ele>
        <time>2014-07-27T10:20:18Z</time>
      </trkpt>
      <trkpt lat="41.641774152" lon="2.477844523">
        <ele>468.78</ele>
        <time>2014-07-27T10:20:28Z</time>
      </trkpt>
      <trkpt lat="41.641663344" lon="2.477940580">
        <ele>470.70</ele>
        <time>2014-07-27T10:20:36Z</time>
      </trkpt>
      <trkpt lat="41.641639204" lon="2.477968911">
        <ele>471.18</ele>
        <time>2014-07-27T10:20:38Z</time>
      </trkpt>
      <trkpt lat="41.641515906" lon="2.478099752">
        <ele>472.63</ele>
        <time>2014-07-27T10:20:48Z</time>
      </trkpt>
      <trkpt lat="41.641415072" lon="2.478216512">
        <ele>473.11</ele>
        <time>2014-07-27T10:20:56Z</time>
      </trkpt>
      <trkpt lat="41.641371067" lon="2.478419606">
        <ele>473.11</ele>
        <time>2014-07-27T10:21:05Z</time>
      </trkpt>
      <trkpt lat="41.641360841" lon="2.478436872">
        <ele>473.11</ele>
        <time>2014-07-27T10:21:06Z</time>
      </trkpt>
      <trkpt lat="41.641336282" lon="2.478510549">
        <ele>473.11</ele>
        <time>2014-07-27T10:21:10Z</time>
      </trkpt>
      <trkpt lat="41.641306777" lon="2.478694029">
        <ele>473.11</ele>
        <time>2014-07-27T10:21:18Z</time>
      </trkpt>
      <trkpt lat="41.641287834" lon="2.478764186">
        <ele>471.66</ele>
        <time>2014-07-27T10:21:20Z</time>
      </trkpt>
      <trkpt lat="41.641258581" lon="2.478849430">
        <ele>470.70</ele>
        <time>2014-07-27T10:21:22Z</time>
      </trkpt>
      <trkpt lat="41.641105444" lon="2.479017319">
        <ele>469.26</ele>
        <time>2014-07-27T10:21:26Z</time>
      </trkpt>
      <trkpt lat="41.640879719" lon="2.479278416">
        <ele>466.86</ele>
        <time>2014-07-27T10:21:31Z</time>
      </trkpt>
      <trkpt lat="41.640757344" lon="2.479487209">
        <ele>466.38</ele>
        <time>2014-07-27T10:21:35Z</time>
      </trkpt>
      <trkpt lat="41.640633627" lon="2.479672114">
        <ele>465.90</ele>
        <time>2014-07-27T10:21:39Z</time>
      </trkpt>
      <trkpt lat="41.640511000" lon="2.479989955">
        <ele>465.42</ele>
        <time>2014-07-27T10:21:46Z</time>
      </trkpt>
      <trkpt lat="41.640483255" lon="2.480270330">
        <ele>465.42</ele>
        <time>2014-07-27T10:21:53Z</time>
      </trkpt>
      <trkpt lat="41.640457523" lon="2.480395723">
        <ele>466.86</ele>
        <time>2014-07-27T10:21:57Z</time>
      </trkpt>
      <trkpt lat="41.640346882" lon="2.480578700">
        <ele>468.30</ele>
        <time>2014-07-27T10:22:05Z</time>
      </trkpt>
      <trkpt lat="41.640225009" lon="2.480762851">
        <ele>468.78</ele>
        <time>2014-07-27T10:22:13Z</time>
      </trkpt>
      <trkpt lat="41.640081762" lon="2.481022857">
        <ele>468.78</ele>
        <time>2014-07-27T10:22:20Z</time>
      </trkpt>
      <trkpt lat="41.639968774" lon="2.481262328">
        <ele>465.42</ele>
        <time>2014-07-27T10:22:26Z</time>
      </trkpt>
      <trkpt lat="41.639961147" lon="2.481488723">
        <ele>464.93</ele>
        <time>2014-07-27T10:22:31Z</time>
      </trkpt>
      <trkpt lat="41.639968188" lon="2.481721321">
        <ele>464.93</ele>
        <time>2014-07-27T10:22:35Z</time>
      </trkpt>
      <trkpt lat="41.639831227" lon="2.482076462">
        <ele>464.45</ele>
        <time>2014-07-27T10:22:42Z</time>
      </trkpt>
      <trkpt lat="41.639529982" lon="2.482438309">
        <ele>463.01</ele>
        <time>2014-07-27T10:22:50Z</time>
      </trkpt>
      <trkpt lat="41.639407941" lon="2.482540820">
        <ele>462.53</ele>
        <time>2014-07-27T10:22:53Z</time>
      </trkpt>
      <trkpt lat="41.639206021" lon="2.482626399">
        <ele>462.53</ele>
        <time>2014-07-27T10:22:59Z</time>
      </trkpt>
      <trkpt lat="41.639021032" lon="2.482692532">
        <ele>464.45</ele>
        <time>2014-07-27T10:23:06Z</time>
      </trkpt>
      <trkpt lat="41.638907877" lon="2.482605612">
        <ele>465.90</ele>
        <time>2014-07-27T10:23:12Z</time>
      </trkpt>
      <trkpt lat="41.638844426" lon="2.482449122">
        <ele>466.86</ele>
        <time>2014-07-27T10:23:19Z</time>
      </trkpt>
      <trkpt lat="41.638776616" lon="2.482295817">
        <ele>468.30</ele>
        <time>2014-07-27T10:23:27Z</time>
      </trkpt>
      <trkpt lat="41.638683326" lon="2.482235383">
        <ele>470.22</ele>
        <time>2014-07-27T10:23:35Z</time>
      </trkpt>
      <trkpt lat="41.638562542" lon="2.482286764">
        <ele>472.14</ele>
        <time>2014-07-27T10:23:44Z</time>
      </trkpt>
      <trkpt lat="41.638466821" lon="2.482392628">
        <ele>473.59</ele>
        <time>2014-07-27T10:23:52Z</time>
      </trkpt>
      <trkpt lat="41.638381745" lon="2.482498910">
        <ele>475.03</ele>
        <time>2014-07-27T10:24:00Z</time>
      </trkpt>
      <trkpt lat="41.638286191" lon="2.482614162">
        <ele>476.47</ele>
        <time>2014-07-27T10:24:08Z</time>
      </trkpt>
      <trkpt lat="41.638157948" lon="2.482741902">
        <ele>477.43</ele>
        <time>2014-07-27T10:24:18Z</time>
      </trkpt>
      <trkpt lat="41.638077901" lon="2.482835109">
        <ele>478.87</ele>
        <time>2014-07-27T10:24:25Z</time>
      </trkpt>
      <trkpt lat="41.638036243" lon="2.482899230">
        <ele>479.84</ele>
        <time>2014-07-27T10:24:29Z</time>
      </trkpt>
      <trkpt lat="41.638008415" lon="2.483071394">
        <ele>482.24</ele>
        <time>2014-07-27T10:24:39Z</time>
      </trkpt>
      <trkpt lat="41.638015120" lon="2.483226376">
        <ele>484.16</ele>
        <time>2014-07-27T10:24:48Z</time>
      </trkpt>
      <trkpt lat="41.638014366" lon="2.483389404">
        <ele>486.08</ele>
        <time>2014-07-27T10:24:57Z</time>
      </trkpt>
      <trkpt lat="41.638026687" lon="2.483596856">
        <ele>488.01</ele>
        <time>2014-07-27T10:25:08Z</time>
      </trkpt>
      <trkpt lat="41.638017048" lon="2.483750999">
        <ele>489.45</ele>
        <time>2014-07-27T10:25:16Z</time>
      </trkpt>
      <trkpt lat="41.637987460" lon="2.483890390">
        <ele>489.93</ele>
        <time>2014-07-27T10:25:24Z</time>
      </trkpt>
      <trkpt lat="41.637916717" lon="2.484058615">
        <ele>490.41</ele>
        <time>2014-07-27T10:25:32Z</time>
      </trkpt>
      <trkpt lat="41.637864414" lon="2.484286687">
        <ele>491.37</ele>
        <time>2014-07-27T10:25:41Z</time>
      </trkpt>
      <trkpt lat="41.637852344" lon="2.484522805">
        <ele>493.29</ele>
        <time>2014-07-27T10:25:50Z</time>
      </trkpt>
      <trkpt lat="41.637794173" lon="2.484712571">
        <ele>495.22</ele>
        <time>2014-07-27T10:25:58Z</time>
      </trkpt>
      <trkpt lat="41.637714461" lon="2.484899236">
        <ele>496.66</ele>
        <time>2014-07-27T10:26:07Z</time>
      </trkpt>
      <trkpt lat="41.637732231" lon="2.485174246">
        <ele>497.62</ele>
        <time>2014-07-27T10:26:18Z</time>
      </trkpt>
      <trkpt lat="41.637771123" lon="2.485379687">
        <ele>498.10</ele>
        <time>2014-07-27T10:26:25Z</time>
      </trkpt>
      <trkpt lat="41.637749582" lon="2.485661822">
        <ele>498.10</ele>
        <time>2014-07-27T10:26:32Z</time>
      </trkpt>
      <trkpt lat="41.637745391" lon="2.485712951">
        <ele>498.10</ele>
        <time>2014-07-27T10:26:33Z</time>
      </trkpt>
      <trkpt lat="41.637729130" lon="2.485817809">
        <ele>497.14</ele>
        <time>2014-07-27T10:26:35Z</time>
      </trkpt>
      <trkpt lat="41.637706331" lon="2.486197677">
        <ele>496.66</ele>
        <time>2014-07-27T10:26:42Z</time>
      </trkpt>
      <trkpt lat="41.637733656" lon="2.486652060">
        <ele>496.18</ele>
        <time>2014-07-27T10:26:51Z</time>
      </trkpt>
      <trkpt lat="41.637749079" lon="2.486928160">
        <ele>496.18</ele>
        <time>2014-07-27T10:26:58Z</time>
      </trkpt>
      <trkpt lat="41.637727118" lon="2.486979876">
        <ele>496.18</ele>
        <time>2014-07-27T10:27:04Z</time>
      </trkpt>
      <trkpt lat="41.637717982" lon="2.486994879">
        <ele>496.18</ele>
        <time>2014-07-27T10:27:14Z</time>
      </trkpt>
      <trkpt lat="41.637711528" lon="2.487022456">
        <ele>496.18</ele>
        <time>2014-07-27T10:27:16Z</time>
      </trkpt>
      <trkpt lat="41.637587140" lon="2.487137707">
        <ele>496.66</ele>
        <time>2014-07-27T10:27:24Z</time>
      </trkpt>
      <trkpt lat="41.637508686" lon="2.487145586">
        <ele>497.62</ele>
        <time>2014-07-27T10:27:28Z</time>
      </trkpt>
      <trkpt lat="41.637486390" lon="2.487141060">
        <ele>497.62</ele>
        <time>2014-07-27T10:27:29Z</time>
      </trkpt>
      <trkpt lat="41.637250188" lon="2.487099318">
        <ele>499.06</ele>
        <time>2014-07-27T10:27:40Z</time>
      </trkpt>
      <trkpt lat="41.637061260" lon="2.487170899">
        <ele>499.54</ele>
        <time>2014-07-27T10:27:48Z</time>
      </trkpt>
      <trkpt lat="41.636841654" lon="2.487207696">
        <ele>499.54</ele>
        <time>2014-07-27T10:27:54Z</time>
      </trkpt>
      <trkpt lat="41.636547533" lon="2.487178275">
        <ele>499.54</ele>
        <time>2014-07-27T10:28:03Z</time>
      </trkpt>
      <trkpt lat="41.636394395" lon="2.487133097">
        <ele>499.54</ele>
        <time>2014-07-27T10:28:09Z</time>
      </trkpt>
      <trkpt lat="41.636188955" lon="2.487082303">
        <ele>500.02</ele>
        <time>2014-07-27T10:28:17Z</time>
      </trkpt>
      <trkpt lat="41.635961889" lon="2.487046680">
        <ele>500.50</ele>
        <time>2014-07-27T10:28:25Z</time>
      </trkpt>
      <trkpt lat="41.635776565" lon="2.486964956">
        <ele>500.98</ele>
        <time>2014-07-27T10:28:32Z</time>
      </trkpt>
      <trkpt lat="41.635648825" lon="2.486849202">
        <ele>501.46</ele>
        <time>2014-07-27T10:28:38Z</time>
      </trkpt>
      <trkpt lat="41.635480517" lon="2.486953976">
        <ele>501.46</ele>
        <time>2014-07-27T10:28:45Z</time>
      </trkpt>
      <trkpt lat="41.635384376" lon="2.487039136">
        <ele>501.46</ele>
        <time>2014-07-27T10:28:49Z</time>
      </trkpt>
      <trkpt lat="41.635217744" lon="2.487097474">
        <ele>501.95</ele>
        <time>2014-07-27T10:28:56Z</time>
      </trkpt>
      <trkpt lat="41.635061254" lon="2.487095295">
        <ele>503.39</ele>
        <time>2014-07-27T10:29:03Z</time>
      </trkpt>
      <trkpt lat="41.634910631" lon="2.487120440">
        <ele>503.87</ele>
        <time>2014-07-27T10:29:10Z</time>
      </trkpt>
      <trkpt lat="41.634768558" lon="2.487117674">
        <ele>504.83</ele>
        <time>2014-07-27T10:29:17Z</time>
      </trkpt>
      <trkpt lat="41.634630340" lon="2.487071574">
        <ele>505.31</ele>
        <time>2014-07-27T10:29:24Z</time>
      </trkpt>
      <trkpt lat="41.634526321" lon="2.487196380">
        <ele>505.31</ele>
        <time>2014-07-27T10:29:30Z</time>
      </trkpt>
      <trkpt lat="41.634534870" lon="2.487290844">
        <ele>505.31</ele>
        <time>2014-07-27T10:29:33Z</time>
      </trkpt>
      <trkpt lat="41.634502600" lon="2.487517156">
        <ele>505.79</ele>
        <time>2014-07-27T10:29:41Z</time>
      </trkpt>
      <trkpt lat="41.634430180" lon="2.487649338">
        <ele>508.19</ele>
        <time>2014-07-27T10:29:49Z</time>
      </trkpt>
      <trkpt lat="41.634389025" lon="2.487774145">
        <ele>511.08</ele>
        <time>2014-07-27T10:29:55Z</time>
      </trkpt>
      <trkpt lat="41.634349965" lon="2.487898784">
        <ele>512.04</ele>
        <time>2014-07-27T10:30:02Z</time>
      </trkpt>
      <trkpt lat="41.634270421" lon="2.488012945">
        <ele>513.96</ele>
        <time>2014-07-27T10:30:10Z</time>
      </trkpt>
      <trkpt lat="41.634238821" lon="2.488055945">
        <ele>513.96</ele>
        <time>2014-07-27T10:30:13Z</time>
      </trkpt>
      <trkpt lat="41.634158607" lon="2.488142865">
        <ele>516.37</ele>
        <time>2014-07-27T10:30:22Z</time>
      </trkpt>
      <trkpt lat="41.634147878" lon="2.488149487">
        <ele>516.37</ele>
        <time>2014-07-27T10:30:23Z</time>
      </trkpt>
      <trkpt lat="41.634024329" lon="2.488242526">
        <ele>517.81</ele>
        <time>2014-07-27T10:30:34Z</time>
      </trkpt>
      <trkpt lat="41.634005637" lon="2.488262056">
        <ele>518.29</ele>
        <time>2014-07-27T10:30:36Z</time>
      </trkpt>
      <trkpt lat="41.633952244" lon="2.488329446">
        <ele>518.29</ele>
        <time>2014-07-27T10:30:41Z</time>
      </trkpt>
      <trkpt lat="41.633879238" lon="2.488511250">
        <ele>519.73</ele>
        <time>2014-07-27T10:30:52Z</time>
      </trkpt>
      <trkpt lat="41.633839759" lon="2.488669081">
        <ele>521.17</ele>
        <time>2014-07-27T10:31:01Z</time>
      </trkpt>
      <trkpt lat="41.633772033" lon="2.488783578">
        <ele>522.13</ele>
        <time>2014-07-27T10:31:09Z</time>
      </trkpt>
      <trkpt lat="41.633667930" lon="2.488850465">
        <ele>524.06</ele>
        <time>2014-07-27T10:31:17Z</time>
      </trkpt>
      <trkpt lat="41.633655609" lon="2.488858679">
        <ele>524.06</ele>
        <time>2014-07-27T10:31:18Z</time>
      </trkpt>
      <trkpt lat="41.633586626" lon="2.489069820">
        <ele>524.06</ele>
        <time>2014-07-27T10:31:29Z</time>
      </trkpt>
      <trkpt lat="41.633582686" lon="2.489253132">
        <ele>524.06</ele>
        <time>2014-07-27T10:31:36Z</time>
      </trkpt>
      <trkpt lat="41.633607748" lon="2.489467792">
        <ele>522.61</ele>
        <time>2014-07-27T10:31:43Z</time>
      </trkpt>
      <trkpt lat="41.633605988" lon="2.489528813">
        <ele>522.13</ele>
        <time>2014-07-27T10:31:45Z</time>
      </trkpt>
      <trkpt lat="41.633519486" lon="2.489630485">
        <ele>520.21</ele>
        <time>2014-07-27T10:31:50Z</time>
      </trkpt>
      <trkpt lat="41.633335839" lon="2.489634592">
        <ele>518.29</ele>
        <time>2014-07-27T10:31:56Z</time>
      </trkpt>
      <trkpt lat="41.633294516" lon="2.489629898">
        <ele>517.33</ele>
        <time>2014-07-27T10:31:57Z</time>
      </trkpt>
      <trkpt lat="41.633086058" lon="2.489634508">
        <ele>513.48</ele>
        <time>2014-07-27T10:32:02Z</time>
      </trkpt>
      <trkpt lat="41.632991007" lon="2.489586815">
        <ele>512.04</ele>
        <time>2014-07-27T10:32:05Z</time>
      </trkpt>
      <trkpt lat="41.632823872" lon="2.489524705">
        <ele>508.67</ele>
        <time>2014-07-27T10:32:11Z</time>
      </trkpt>
      <trkpt lat="41.632678195" lon="2.489593437">
        <ele>505.31</ele>
        <time>2014-07-27T10:32:16Z</time>
      </trkpt>
      <trkpt lat="41.632658749" lon="2.489628976">
        <ele>505.31</ele>
        <time>2014-07-27T10:32:17Z</time>
      </trkpt>
      <trkpt lat="41.632595465" lon="2.489799380">
        <ele>501.95</ele>
        <time>2014-07-27T10:32:21Z</time>
      </trkpt>
      <trkpt lat="41.632607871" lon="2.489957715">
        <ele>500.50</ele>
        <time>2014-07-27T10:32:25Z</time>
      </trkpt>
      <trkpt lat="41.632610804" lon="2.490130298">
        <ele>498.58</ele>
        <time>2014-07-27T10:32:28Z</time>
      </trkpt>
      <trkpt lat="41.632556154" lon="2.490275473">
        <ele>494.74</ele>
        <time>2014-07-27T10:32:31Z</time>
      </trkpt>
      <trkpt lat="41.632448950" lon="2.490242867">
        <ele>494.26</ele>
        <time>2014-07-27T10:32:37Z</time>
      </trkpt>
      <trkpt lat="41.632432102" lon="2.490222331">
        <ele>494.26</ele>
        <time>2014-07-27T10:32:38Z</time>
      </trkpt>
      <trkpt lat="41.632352139" lon="2.489986213">
        <ele>494.26</ele>
        <time>2014-07-27T10:32:45Z</time>
      </trkpt>
      <trkpt lat="41.632320204" lon="2.489812037">
        <ele>493.77</ele>
        <time>2014-07-27T10:32:49Z</time>
      </trkpt>
      <trkpt lat="41.632214676" lon="2.489759985">
        <ele>493.77</ele>
        <time>2014-07-27T10:32:55Z</time>
      </trkpt>
      <trkpt lat="41.632200762" lon="2.489772307">
        <ele>493.77</ele>
        <time>2014-07-27T10:32:56Z</time>
      </trkpt>
      <trkpt lat="41.632151057" lon="2.489843553">
        <ele>494.74</ele>
        <time>2014-07-27T10:33:01Z</time>
      </trkpt>
      <trkpt lat="41.632032788" lon="2.489995517">
        <ele>494.26</ele>
        <time>2014-07-27T10:33:08Z</time>
      </trkpt>
      <trkpt lat="41.631826091" lon="2.490066009">
        <ele>490.89</ele>
        <time>2014-07-27T10:33:13Z</time>
      </trkpt>
      <trkpt lat="41.631710336" lon="2.490092496">
        <ele>489.93</ele>
        <time>2014-07-27T10:33:15Z</time>
      </trkpt>
      <trkpt lat="41.631528282" lon="2.490104985">
        <ele>487.53</ele>
        <time>2014-07-27T10:33:18Z</time>
      </trkpt>
      <trkpt lat="41.631375144" lon="2.490144882">
        <ele>486.56</ele>
        <time>2014-07-27T10:33:21Z</time>
      </trkpt>
      <trkpt lat="41.631297109" lon="2.490160724">
        <ele>484.64</ele>
        <time>2014-07-27T10:33:23Z</time>
      </trkpt>
      <trkpt lat="41.631208512" lon="2.490122000">
        <ele>483.68</ele>
        <time>2014-07-27T10:33:25Z</time>
      </trkpt>
      <trkpt lat="41.631023691" lon="2.489963414">
        <ele>480.80</ele>
        <time>2014-07-27T10:33:30Z</time>
      </trkpt>
      <trkpt lat="41.630901567" lon="2.489987303">
        <ele>480.32</ele>
        <time>2014-07-27T10:33:35Z</time>
      </trkpt>
      <trkpt lat="41.630790674" lon="2.490087886">
        <ele>480.32</ele>
        <time>2014-07-27T10:33:41Z</time>
      </trkpt>
      <trkpt lat="41.630752034" lon="2.490285112">
        <ele>480.32</ele>
        <time>2014-07-27T10:33:47Z</time>
      </trkpt>
      <trkpt lat="41.630737030" lon="2.490340516">
        <ele>480.32</ele>
        <time>2014-07-27T10:33:49Z</time>
      </trkpt>
      <trkpt lat="41.630666035" lon="2.490376894">
        <ele>480.32</ele>
        <time>2014-07-27T10:33:53Z</time>
      </trkpt>
      <trkpt lat="41.630580204" lon="2.490389886">
        <ele>480.32</ele>
        <time>2014-07-27T10:33:57Z</time>
      </trkpt>
      <trkpt lat="41.630486662" lon="2.490482422">
        <ele>480.32</ele>
        <time>2014-07-27T10:34:04Z</time>
      </trkpt>
      <trkpt lat="41.630470988" lon="2.490558865">
        <ele>480.32</ele>
        <time>2014-07-27T10:34:08Z</time>
      </trkpt>
      <trkpt lat="41.630459840" lon="2.490832199">
        <ele>476.95</ele>
        <time>2014-07-27T10:34:15Z</time>
      </trkpt>
      <trkpt lat="41.630453554" lon="2.490861870">
        <ele>476.47</ele>
        <time>2014-07-27T10:34:16Z</time>
      </trkpt>
      <trkpt lat="41.630398652" lon="2.490993969">
        <ele>475.99</ele>
        <time>2014-07-27T10:34:20Z</time>
      </trkpt>
      <trkpt lat="41.630168821" lon="2.491172923">
        <ele>475.03</ele>
        <time>2014-07-27T10:34:27Z</time>
      </trkpt>
      <trkpt lat="41.629995651" lon="2.491233105">
        <ele>475.03</ele>
        <time>2014-07-27T10:34:33Z</time>
      </trkpt>
      <trkpt lat="41.629909485" lon="2.491195135">
        <ele>475.03</ele>
        <time>2014-07-27T10:34:38Z</time>
      </trkpt>
      <trkpt lat="41.629860450" lon="2.491134869">
        <ele>475.03</ele>
        <time>2014-07-27T10:34:45Z</time>
      </trkpt>
      <trkpt lat="41.629846117" lon="2.491136126">
        <ele>476.47</ele>
        <time>2014-07-27T10:34:47Z</time>
      </trkpt>
      <trkpt lat="41.629819798" lon="2.491115842">
        <ele>476.47</ele>
        <time>2014-07-27T10:34:55Z</time>
      </trkpt>
      <trkpt lat="41.629751905" lon="2.491046021">
        <ele>476.47</ele>
        <time>2014-07-27T10:35:02Z</time>
      </trkpt>
      <trkpt lat="41.629643275" lon="2.490940409">
        <ele>477.43</ele>
        <time>2014-07-27T10:35:09Z</time>
      </trkpt>
      <trkpt lat="41.629556271" lon="2.490868241">
        <ele>478.39</ele>
        <time>2014-07-27T10:35:14Z</time>
      </trkpt>
      <trkpt lat="41.629463148" lon="2.490765730">
        <ele>478.87</ele>
        <time>2014-07-27T10:35:20Z</time>
      </trkpt>
      <trkpt lat="41.629359632" lon="2.490740417">
        <ele>478.87</ele>
        <time>2014-07-27T10:35:25Z</time>
      </trkpt>
      <trkpt lat="41.629244716" lon="2.490755001">
        <ele>478.87</ele>
        <time>2014-07-27T10:35:29Z</time>
      </trkpt>
      <trkpt lat="41.629158131" lon="2.490705380">
        <ele>478.87</ele>
        <time>2014-07-27T10:35:34Z</time>
      </trkpt>
      <trkpt lat="41.629136338" lon="2.490530366">
        <ele>476.95</ele>
        <time>2014-07-27T10:35:41Z</time>
      </trkpt>
      <trkpt lat="41.629128459" lon="2.490372703">
        <ele>475.51</ele>
        <time>2014-07-27T10:35:46Z</time>
      </trkpt>
      <trkpt lat="41.629111779" lon="2.490143960">
        <ele>473.11</ele>
        <time>2014-07-27T10:35:53Z</time>
      </trkpt>
      <trkpt lat="41.629088226" lon="2.490062907">
        <ele>472.63</ele>
        <time>2014-07-27T10:35:56Z</time>
      </trkpt>
      <trkpt lat="41.628950930" lon="2.489891833">
        <ele>468.30</ele>
        <time>2014-07-27T10:36:03Z</time>
      </trkpt>
      <trkpt lat="41.628761415" lon="2.489764260">
        <ele>464.93</ele>
        <time>2014-07-27T10:36:09Z</time>
      </trkpt>
      <trkpt lat="41.628670723" lon="2.489608860">
        <ele>462.53</ele>
        <time>2014-07-27T10:36:15Z</time>
      </trkpt>
      <trkpt lat="41.628624958" lon="2.489457734">
        <ele>462.05</ele>
        <time>2014-07-27T10:36:20Z</time>
      </trkpt>
      <trkpt lat="41.628618420" lon="2.489380537">
        <ele>462.05</ele>
        <time>2014-07-27T10:36:24Z</time>
      </trkpt>
      <trkpt lat="41.628605093" lon="2.489300322">
        <ele>463.49</ele>
        <time>2014-07-27T10:36:28Z</time>
      </trkpt>
      <trkpt lat="41.628638537" lon="2.489147436">
        <ele>463.49</ele>
        <time>2014-07-27T10:36:34Z</time>
      </trkpt>
      <trkpt lat="41.628675501" lon="2.488982732">
        <ele>463.49</ele>
        <time>2014-07-27T10:36:39Z</time>
      </trkpt>
      <trkpt lat="41.628542648" lon="2.488833031">
        <ele>461.09</ele>
        <time>2014-07-27T10:36:45Z</time>
      </trkpt>
      <trkpt lat="41.628508449" lon="2.488817692">
        <ele>460.61</ele>
        <time>2014-07-27T10:36:46Z</time>
      </trkpt>
      <trkpt lat="41.628352211" lon="2.488634547">
        <ele>458.21</ele>
        <time>2014-07-27T10:36:52Z</time>
      </trkpt>
      <trkpt lat="41.628355480" lon="2.488540335">
        <ele>457.72</ele>
        <time>2014-07-27T10:36:54Z</time>
      </trkpt>
      <trkpt lat="41.628377776" lon="2.488310335">
        <ele>456.76</ele>
        <time>2014-07-27T10:36:59Z</time>
      </trkpt>
      <trkpt lat="41.628284066" lon="2.488209082">
        <ele>456.28</ele>
        <time>2014-07-27T10:37:03Z</time>
      </trkpt>
      <trkpt lat="41.628122630" lon="2.488159796">
        <ele>456.28</ele>
        <time>2014-07-27T10:37:08Z</time>
      </trkpt>
      <trkpt lat="41.627983994" lon="2.487854444">
        <ele>455.32</ele>
        <time>2014-07-27T10:37:14Z</time>
      </trkpt>
      <trkpt lat="41.627871006" lon="2.487779593">
        <ele>455.32</ele>
        <time>2014-07-27T10:37:18Z</time>
      </trkpt>
      <trkpt lat="41.627853990" lon="2.487799794">
        <ele>455.32</ele>
        <time>2014-07-27T10:37:19Z</time>
      </trkpt>
      <trkpt lat="41.627827168" lon="2.487838434">
        <ele>455.32</ele>
        <time>2014-07-27T10:37:21Z</time>
      </trkpt>
      <trkpt lat="41.627757682" lon="2.487998612">
        <ele>455.32</ele>
        <time>2014-07-27T10:37:28Z</time>
      </trkpt>
      <trkpt lat="41.627695070" lon="2.488209836">
        <ele>455.32</ele>
        <time>2014-07-27T10:37:35Z</time>
      </trkpt>
      <trkpt lat="41.627692304" lon="2.488304719">
        <ele>454.36</ele>
        <time>2014-07-27T10:37:37Z</time>
      </trkpt>
      <trkpt lat="41.627667828" lon="2.488478057">
        <ele>452.92</ele>
        <time>2014-07-27T10:37:40Z</time>
      </trkpt>
      <trkpt lat="41.627521061" lon="2.488880891">
        <ele>450.03</ele>
        <time>2014-07-27T10:37:46Z</time>
      </trkpt>
      <trkpt lat="41.627351495" lon="2.489044003">
        <ele>450.52</ele>
        <time>2014-07-27T10:37:50Z</time>
      </trkpt>
      <trkpt lat="41.627228701" lon="2.489104437">
        <ele>449.55</ele>
        <time>2014-07-27T10:37:54Z</time>
      </trkpt>
      <trkpt lat="41.627210679" lon="2.489324043">
        <ele>449.55</ele>
        <time>2014-07-27T10:37:58Z</time>
      </trkpt>
      <trkpt lat="41.627239178" lon="2.489419680">
        <ele>450.03</ele>
        <time>2014-07-27T10:38:00Z</time>
      </trkpt>
      <trkpt lat="41.627292654" lon="2.489677927">
        <ele>450.03</ele>
        <time>2014-07-27T10:38:08Z</time>
      </trkpt>
      <trkpt lat="41.627248566" lon="2.489941118">
        <ele>450.03</ele>
        <time>2014-07-27T10:38:16Z</time>
      </trkpt>
      <trkpt lat="41.627198609" lon="2.489962492">
        <ele>451.00</ele>
        <time>2014-07-27T10:38:19Z</time>
      </trkpt>
      <trkpt lat="41.627145301" lon="2.489932904">
        <ele>451.96</ele>
        <time>2014-07-27T10:38:22Z</time>
      </trkpt>
      <trkpt lat="41.627039018" lon="2.489784880">
        <ele>452.92</ele>
        <time>2014-07-27T10:38:30Z</time>
      </trkpt>
      <trkpt lat="41.626988727" lon="2.489764596">
        <ele>452.92</ele>
        <time>2014-07-27T10:38:32Z</time>
      </trkpt>
      <trkpt lat="41.626880013" lon="2.489866268">
        <ele>453.88</ele>
        <time>2014-07-27T10:38:38Z</time>
      </trkpt>
      <trkpt lat="41.626856628" lon="2.489991494">
        <ele>454.36</ele>
        <time>2014-07-27T10:38:42Z</time>
      </trkpt>
      <trkpt lat="41.626818071" lon="2.490292907">
        <ele>451.00</ele>
        <time>2014-07-27T10:38:47Z</time>
      </trkpt>
      <trkpt lat="41.626835338" lon="2.490533384">
        <ele>451.00</ele>
        <time>2014-07-27T10:38:51Z</time>
      </trkpt>
      <trkpt lat="41.626773479" lon="2.490646372">
        <ele>451.00</ele>
        <time>2014-07-27T10:38:55Z</time>
      </trkpt>
      <trkpt lat="41.626655043" lon="2.490651485">
        <ele>452.92</ele>
        <time>2014-07-27T10:39:00Z</time>
      </trkpt>
      <trkpt lat="41.626512299" lon="2.490650814">
        <ele>454.36</ele>
        <time>2014-07-27T10:39:07Z</time>
      </trkpt>
      <trkpt lat="41.626391097" lon="2.490690544">
        <ele>455.80</ele>
        <time>2014-07-27T10:39:13Z</time>
      </trkpt>
      <trkpt lat="41.626270649" lon="2.490795151">
        <ele>456.76</ele>
        <time>2014-07-27T10:39:20Z</time>
      </trkpt>
      <trkpt lat="41.626257406" lon="2.490812920">
        <ele>457.24</ele>
        <time>2014-07-27T10:39:21Z</time>
      </trkpt>
      <trkpt lat="41.626269895" lon="2.490963711">
        <ele>457.24</ele>
        <time>2014-07-27T10:39:26Z</time>
      </trkpt>
      <trkpt lat="41.626413812" lon="2.491041746">
        <ele>455.80</ele>
        <time>2014-07-27T10:39:31Z</time>
      </trkpt>
      <trkpt lat="41.626527387" lon="2.491212821">
        <ele>453.40</ele>
        <time>2014-07-27T10:39:35Z</time>
      </trkpt>
      <trkpt lat="41.626641464" lon="2.491505936">
        <ele>450.52</ele>
        <time>2014-07-27T10:39:40Z</time>
      </trkpt>
      <trkpt lat="41.626569296" lon="2.491668042">
        <ele>449.55</ele>
        <time>2014-07-27T10:39:43Z</time>
      </trkpt>
      <trkpt lat="41.626380871" lon="2.491773989">
        <ele>448.59</ele>
        <time>2014-07-27T10:39:48Z</time>
      </trkpt>
      <trkpt lat="41.626345835" lon="2.491816234">
        <ele>448.11</ele>
        <time>2014-07-27T10:39:49Z</time>
      </trkpt>
      <trkpt lat="41.626242737" lon="2.492077498">
        <ele>447.63</ele>
        <time>2014-07-27T10:39:54Z</time>
      </trkpt>
      <trkpt lat="41.626120194" lon="2.492406069">
        <ele>446.19</ele>
        <time>2014-07-27T10:40:00Z</time>
      </trkpt>
      <trkpt lat="41.626035453" lon="2.492453510">
        <ele>445.71</ele>
        <time>2014-07-27T10:40:02Z</time>
      </trkpt>
      <trkpt lat="41.625841076" lon="2.492638750">
        <ele>444.75</ele>
        <time>2014-07-27T10:40:08Z</time>
      </trkpt>
      <trkpt lat="41.625854739" lon="2.492723324">
        <ele>444.75</ele>
        <time>2014-07-27T10:40:10Z</time>
      </trkpt>
      <trkpt lat="41.625883405" lon="2.492916610">
        <ele>444.75</ele>
        <time>2014-07-27T10:40:15Z</time>
      </trkpt>
      <trkpt lat="41.625826911" lon="2.493045105">
        <ele>446.19</ele>
        <time>2014-07-27T10:40:19Z</time>
      </trkpt>
      <trkpt lat="41.625785672" lon="2.493119871">
        <ele>446.19</ele>
        <time>2014-07-27T10:40:21Z</time>
      </trkpt>
      <trkpt lat="41.625810147" lon="2.493309386">
        <ele>444.75</ele>
        <time>2014-07-27T10:40:25Z</time>
      </trkpt>
      <trkpt lat="41.625841831" lon="2.493333778">
        <ele>444.75</ele>
        <time>2014-07-27T10:40:26Z</time>
      </trkpt>
      <trkpt lat="41.626050289" lon="2.493429331">
        <ele>443.79</ele>
        <time>2014-07-27T10:40:31Z</time>
      </trkpt>
      <trkpt lat="41.626307194" lon="2.493375268">
        <ele>442.34</ele>
        <time>2014-07-27T10:40:36Z</time>
      </trkpt>
      <trkpt lat="41.626572481" lon="2.493242247">
        <ele>440.42</ele>
        <time>2014-07-27T10:40:41Z</time>
      </trkpt>
      <trkpt lat="41.626666778" lon="2.493222466">
        <ele>440.42</ele>
        <time>2014-07-27T10:40:43Z</time>
      </trkpt>
      <trkpt lat="41.626924186" lon="2.493299412">
        <ele>438.50</ele>
        <time>2014-07-27T10:40:48Z</time>
      </trkpt>
      <trkpt lat="41.627008173" lon="2.493488507">
        <ele>438.50</ele>
        <time>2014-07-27T10:40:51Z</time>
      </trkpt>
      <trkpt lat="41.626973388" lon="2.493801907">
        <ele>438.02</ele>
        <time>2014-07-27T10:40:55Z</time>
      </trkpt>
      <trkpt lat="41.626841205" lon="2.494060069">
        <ele>437.06</ele>
        <time>2014-07-27T10:40:59Z</time>
      </trkpt>
      <trkpt lat="41.626729893" lon="2.494331559">
        <ele>434.65</ele>
        <time>2014-07-27T10:41:04Z</time>
      </trkpt>
      <trkpt lat="41.626707514" lon="2.494736238">
        <ele>434.17</ele>
        <time>2014-07-27T10:41:12Z</time>
      </trkpt>
      <trkpt lat="41.626548509" lon="2.495044524">
        <ele>434.17</ele>
        <time>2014-07-27T10:41:20Z</time>
      </trkpt>
      <trkpt lat="41.626384056" lon="2.495345015">
        <ele>434.17</ele>
        <time>2014-07-27T10:41:28Z</time>
      </trkpt>
      <trkpt lat="41.626268721" lon="2.495607620">
        <ele>434.17</ele>
        <time>2014-07-27T10:41:34Z</time>
      </trkpt>
      <trkpt lat="41.626338542" lon="2.495847259">
        <ele>433.69</ele>
        <time>2014-07-27T10:41:39Z</time>
      </trkpt>
      <trkpt lat="41.626491931" lon="2.495848181">
        <ele>433.69</ele>
        <time>2014-07-27T10:41:44Z</time>
      </trkpt>
      <trkpt lat="41.626542139" lon="2.495863352">
        <ele>434.65</ele>
        <time>2014-07-27T10:41:46Z</time>
      </trkpt>
      <trkpt lat="41.626692091" lon="2.495963516">
        <ele>434.65</ele>
        <time>2014-07-27T10:41:51Z</time>
      </trkpt>
      <trkpt lat="41.626773731" lon="2.496223774">
        <ele>434.65</ele>
        <time>2014-07-27T10:41:56Z</time>
      </trkpt>
      <trkpt lat="41.626732157" lon="2.496398201">
        <ele>433.69</ele>
        <time>2014-07-27T10:41:59Z</time>
      </trkpt>
      <trkpt lat="41.626576002" lon="2.496784607">
        <ele>433.69</ele>
        <time>2014-07-27T10:42:07Z</time>
      </trkpt>
      <trkpt lat="41.626551862" lon="2.496822996">
        <ele>433.69</ele>
        <time>2014-07-27T10:42:08Z</time>
      </trkpt>
      <trkpt lat="41.626437868" lon="2.496947970">
        <ele>435.13</ele>
        <time>2014-07-27T10:42:13Z</time>
      </trkpt>
      <trkpt lat="41.626443568" lon="2.496972362">
        <ele>435.13</ele>
        <time>2014-07-27T10:42:19Z</time>
      </trkpt>
      <trkpt lat="41.626474162" lon="2.496988287">
        <ele>435.13</ele>
        <time>2014-07-27T10:42:28Z</time>
      </trkpt>
      <trkpt lat="41.626467372" lon="2.497012679">
        <ele>435.13</ele>
        <time>2014-07-27T10:42:48Z</time>
      </trkpt>
      <trkpt lat="41.626448681" lon="2.497018797">
        <ele>435.13</ele>
        <time>2014-07-27T10:43:05Z</time>
      </trkpt>
      <trkpt lat="41.626453626" lon="2.496997005">
        <ele>435.13</ele>
        <time>2014-07-27T10:43:28Z</time>
      </trkpt>
      <trkpt lat="41.626478520" lon="2.496988204">
        <ele>435.13</ele>
        <time>2014-07-27T10:43:53Z</time>
      </trkpt>
      <trkpt lat="41.626456895" lon="2.496974792">
        <ele>435.13</ele>
        <time>2014-07-27T10:44:11Z</time>
      </trkpt>
      <trkpt lat="41.626443484" lon="2.496958280">
        <ele>435.13</ele>
        <time>2014-07-27T10:44:34Z</time>
      </trkpt>
      <trkpt lat="41.626458571" lon="2.496968255">
        <ele>435.13</ele>
        <time>2014-07-27T10:44:53Z</time>
      </trkpt>
      <trkpt lat="41.626447172" lon="2.496966159">
        <ele>435.13</ele>
        <time>2014-07-27T10:45:02Z</time>
      </trkpt>
      <trkpt lat="41.626460331" lon="2.496956101">
        <ele>435.13</ele>
        <time>2014-07-27T10:45:10Z</time>
      </trkpt>
      <trkpt lat="41.626536188" lon="2.496925842">
        <ele>432.25</ele>
        <time>2014-07-27T10:45:16Z</time>
      </trkpt>
      <trkpt lat="41.626562926" lon="2.497136815">
        <ele>431.29</ele>
        <time>2014-07-27T10:45:22Z</time>
      </trkpt>
      <trkpt lat="41.626589832" lon="2.497405706">
        <ele>430.81</ele>
        <time>2014-07-27T10:45:27Z</time>
      </trkpt>
      <trkpt lat="41.626564938" lon="2.497484412">
        <ele>430.33</ele>
        <time>2014-07-27T10:45:29Z</time>
      </trkpt>
      <trkpt lat="41.626552365" lon="2.497607794">
        <ele>429.85</ele>
        <time>2014-07-27T10:45:32Z</time>
      </trkpt>
      <trkpt lat="41.626596789" lon="2.497686919">
        <ele>429.85</ele>
        <time>2014-07-27T10:45:36Z</time>
      </trkpt>
      <trkpt lat="41.626615564" lon="2.497713573">
        <ele>429.85</ele>
        <time>2014-07-27T10:45:38Z</time>
      </trkpt>
      <trkpt lat="41.626716482" lon="2.497872075">
        <ele>429.85</ele>
        <time>2014-07-27T10:45:46Z</time>
      </trkpt>
      <trkpt lat="41.626811449" lon="2.497990847">
        <ele>429.85</ele>
        <time>2014-07-27T10:45:52Z</time>
      </trkpt>
      <trkpt lat="41.626914212" lon="2.498094447">
        <ele>429.85</ele>
        <time>2014-07-27T10:45:58Z</time>
      </trkpt>
      <trkpt lat="41.627105319" lon="2.498191593">
        <ele>429.85</ele>
        <time>2014-07-27T10:46:07Z</time>
      </trkpt>
      <trkpt lat="41.627217301" lon="2.498246243">
        <ele>429.85</ele>
        <time>2014-07-27T10:46:12Z</time>
      </trkpt>
      <trkpt lat="41.627252673" lon="2.498343138">
        <ele>431.29</ele>
        <time>2014-07-27T10:46:16Z</time>
      </trkpt>
      <trkpt lat="41.627185198" lon="2.498400973">
        <ele>431.29</ele>
        <time>2014-07-27T10:46:21Z</time>
      </trkpt>
      <trkpt lat="41.627000797" lon="2.498383958">
        <ele>431.77</ele>
        <time>2014-07-27T10:46:29Z</time>
      </trkpt>
      <trkpt lat="41.626824860" lon="2.498422934">
        <ele>431.77</ele>
        <time>2014-07-27T10:46:35Z</time>
      </trkpt>
      <trkpt lat="41.626702066" lon="2.498552686">
        <ele>430.33</ele>
        <time>2014-07-27T10:46:39Z</time>
      </trkpt>
      <trkpt lat="41.626585641" lon="2.498703309">
        <ele>429.85</ele>
        <time>2014-07-27T10:46:43Z</time>
      </trkpt>
      <trkpt lat="41.626595364" lon="2.498849908">
        <ele>429.37</ele>
        <time>2014-07-27T10:46:47Z</time>
      </trkpt>
      <trkpt lat="41.626646996" lon="2.498907743">
        <ele>430.33</ele>
        <time>2014-07-27T10:46:50Z</time>
      </trkpt>
      <trkpt lat="41.626663760" lon="2.498927022">
        <ele>430.33</ele>
        <time>2014-07-27T10:46:51Z</time>
      </trkpt>
      <trkpt lat="41.626759565" lon="2.499160709">
        <ele>430.33</ele>
        <time>2014-07-27T10:46:58Z</time>
      </trkpt>
      <trkpt lat="41.626758727" lon="2.499396492">
        <ele>431.77</ele>
        <time>2014-07-27T10:47:05Z</time>
      </trkpt>
      <trkpt lat="41.626734755" lon="2.499612661">
        <ele>431.77</ele>
        <time>2014-07-27T10:47:11Z</time>
      </trkpt>
      <trkpt lat="41.626702066" lon="2.499868477">
        <ele>432.25</ele>
        <time>2014-07-27T10:47:19Z</time>
      </trkpt>
      <trkpt lat="41.626782448" lon="2.499963444">
        <ele>432.73</ele>
        <time>2014-07-27T10:47:24Z</time>
      </trkpt>
      <trkpt lat="41.627019488" lon="2.499991775">
        <ele>432.73</ele>
        <time>2014-07-27T10:47:32Z</time>
      </trkpt>
      <trkpt lat="41.627203639" lon="2.500055477">
        <ele>432.73</ele>
        <time>2014-07-27T10:47:39Z</time>
      </trkpt>
      <trkpt lat="41.627355016" lon="2.500223702">
        <ele>432.73</ele>
        <time>2014-07-27T10:47:47Z</time>
      </trkpt>
      <trkpt lat="41.627397512" lon="2.500401314">
        <ele>433.69</ele>
        <time>2014-07-27T10:47:53Z</time>
      </trkpt>
      <trkpt lat="41.627355100" lon="2.500573730">
        <ele>434.65</ele>
        <time>2014-07-27T10:47:59Z</time>
      </trkpt>
      <trkpt lat="41.627376809" lon="2.500754193">
        <ele>435.61</ele>
        <time>2014-07-27T10:48:04Z</time>
      </trkpt>
      <trkpt lat="41.627481247" lon="2.500937672">
        <ele>436.10</ele>
        <time>2014-07-27T10:48:11Z</time>
      </trkpt>
      <trkpt lat="41.627629188" lon="2.501046805">
        <ele>436.58</ele>
        <time>2014-07-27T10:48:18Z</time>
      </trkpt>
      <trkpt lat="41.627773440" lon="2.501170270">
        <ele>437.54</ele>
        <time>2014-07-27T10:48:26Z</time>
      </trkpt>
      <trkpt lat="41.627753827" lon="2.501364982">
        <ele>438.98</ele>
        <time>2014-07-27T10:48:33Z</time>
      </trkpt>
      <trkpt lat="41.627719880" lon="2.501580564">
        <ele>439.46</ele>
        <time>2014-07-27T10:48:40Z</time>
      </trkpt>
      <trkpt lat="41.627705128" lon="2.501866052">
        <ele>439.94</ele>
        <time>2014-07-27T10:48:48Z</time>
      </trkpt>
      <trkpt lat="41.627645197" lon="2.502161682">
        <ele>439.94</ele>
        <time>2014-07-27T10:48:56Z</time>
      </trkpt>
      <trkpt lat="41.627590883" lon="2.502448511">
        <ele>439.94</ele>
        <time>2014-07-27T10:49:03Z</time>
      </trkpt>
      <trkpt lat="41.627573029" lon="2.502538951">
        <ele>439.94</ele>
        <time>2014-07-27T10:49:05Z</time>
      </trkpt>
      <trkpt lat="41.627502537" lon="2.502620256">
        <ele>438.98</ele>
        <time>2014-07-27T10:49:08Z</time>
      </trkpt>
      <trkpt lat="41.627394746" lon="2.502571641">
        <ele>438.02</ele>
        <time>2014-07-27T10:49:12Z</time>
      </trkpt>
      <trkpt lat="41.627243872" lon="2.502490671">
        <ele>439.46</ele>
        <time>2014-07-27T10:49:19Z</time>
      </trkpt>
      <trkpt lat="41.627198107" lon="2.502495365">
        <ele>439.94</ele>
        <time>2014-07-27T10:49:21Z</time>
      </trkpt>
      <trkpt lat="41.627082436" lon="2.502484301">
        <ele>440.42</ele>
        <time>2014-07-27T10:49:26Z</time>
      </trkpt>
      <trkpt lat="41.626877750" lon="2.502413390">
        <ele>438.98</ele>
        <time>2014-07-27T10:49:32Z</time>
      </trkpt>
      <trkpt lat="41.626609781" lon="2.502408277">
        <ele>435.13</ele>
        <time>2014-07-27T10:49:39Z</time>
      </trkpt>
      <trkpt lat="41.626461924" lon="2.502386401">
        <ele>434.17</ele>
        <time>2014-07-27T10:49:42Z</time>
      </trkpt>
      <trkpt lat="41.626170653" lon="2.502433507">
        <ele>431.77</ele>
        <time>2014-07-27T10:49:48Z</time>
      </trkpt>
      <trkpt lat="41.626057581" lon="2.502647665">
        <ele>430.81</ele>
        <time>2014-07-27T10:49:53Z</time>
      </trkpt>
      <trkpt lat="41.626069819" lon="2.502704745">
        <ele>430.81</ele>
        <time>2014-07-27T10:49:54Z</time>
      </trkpt>
      <trkpt lat="41.626066633" lon="2.502940947">
        <ele>430.81</ele>
        <time>2014-07-27T10:49:59Z</time>
      </trkpt>
      <trkpt lat="41.625971247" lon="2.503180167">
        <ele>430.81</ele>
        <time>2014-07-27T10:50:06Z</time>
      </trkpt>
      <trkpt lat="41.625933110" lon="2.503308829">
        <ele>431.77</ele>
        <time>2014-07-27T10:50:10Z</time>
      </trkpt>
      <trkpt lat="41.625802939" lon="2.503462050">
        <ele>432.25</ele>
        <time>2014-07-27T10:50:16Z</time>
      </trkpt>
      <trkpt lat="41.625669331" lon="2.503502870">
        <ele>430.81</ele>
        <time>2014-07-27T10:50:19Z</time>
      </trkpt>
      <trkpt lat="41.625475458" lon="2.503529357">
        <ele>428.89</ele>
        <time>2014-07-27T10:50:23Z</time>
      </trkpt>
      <trkpt lat="41.625352411" lon="2.503646955">
        <ele>427.92</ele>
        <time>2014-07-27T10:50:27Z</time>
      </trkpt>
      <trkpt lat="41.625375546" lon="2.503740078">
        <ele>427.92</ele>
        <time>2014-07-27T10:50:29Z</time>
      </trkpt>
      <trkpt lat="41.625460287" lon="2.504038893">
        <ele>426.48</ele>
        <time>2014-07-27T10:50:34Z</time>
      </trkpt>
      <trkpt lat="41.625447295" lon="2.504413396">
        <ele>426.96</ele>
        <time>2014-07-27T10:50:41Z</time>
      </trkpt>
      <trkpt lat="41.625366158" lon="2.504605258">
        <ele>426.96</ele>
        <time>2014-07-27T10:50:47Z</time>
      </trkpt>
      <trkpt lat="41.625311340" lon="2.504678181">
        <ele>426.96</ele>
        <time>2014-07-27T10:50:49Z</time>
      </trkpt>
      <trkpt lat="41.625220732" lon="2.504826792">
        <ele>425.52</ele>
        <time>2014-07-27T10:50:52Z</time>
      </trkpt>
      <trkpt lat="41.625050328" lon="2.504974481">
        <ele>424.08</ele>
        <time>2014-07-27T10:50:56Z</time>
      </trkpt>
      <trkpt lat="41.624961731" lon="2.505135246">
        <ele>424.08</ele>
        <time>2014-07-27T10:51:00Z</time>
      </trkpt>
      <trkpt lat="41.624982686" lon="2.505160559">
        <ele>424.08</ele>
        <time>2014-07-27T10:51:01Z</time>
      </trkpt>
      <trkpt lat="41.625100535" lon="2.505292239">
        <ele>422.64</ele>
        <time>2014-07-27T10:51:05Z</time>
      </trkpt>
      <trkpt lat="41.625172033" lon="2.505532716">
        <ele>421.68</ele>
        <time>2014-07-27T10:51:09Z</time>
      </trkpt>
      <trkpt lat="41.625187875" lon="2.505968575">
        <ele>421.19</ele>
        <time>2014-07-27T10:51:17Z</time>
      </trkpt>
      <trkpt lat="41.625244872" lon="2.506304018">
        <ele>419.75</ele>
        <time>2014-07-27T10:51:24Z</time>
      </trkpt>
      <trkpt lat="41.625214697" lon="2.506583136">
        <ele>416.39</ele>
        <time>2014-07-27T10:51:30Z</time>
      </trkpt>
      <trkpt lat="41.625276136" lon="2.506977672">
        <ele>413.98</ele>
        <time>2014-07-27T10:51:37Z</time>
      </trkpt>
      <trkpt lat="41.625390968" lon="2.507464325">
        <ele>412.54</ele>
        <time>2014-07-27T10:51:45Z</time>
      </trkpt>
      <trkpt lat="41.625422065" lon="2.507659456">
        <ele>412.54</ele>
        <time>2014-07-27T10:51:48Z</time>
      </trkpt>
      <trkpt lat="41.625441343" lon="2.507834302">
        <ele>412.06</ele>
        <time>2014-07-27T10:51:51Z</time>
      </trkpt>
      <trkpt lat="41.625575622" lon="2.507937065">
        <ele>412.06</ele>
        <time>2014-07-27T10:51:56Z</time>
      </trkpt>
      <trkpt lat="41.625606216" lon="2.507938909">
        <ele>412.06</ele>
        <time>2014-07-27T10:51:57Z</time>
      </trkpt>
      <trkpt lat="41.625771507" lon="2.507965731">
        <ele>412.06</ele>
        <time>2014-07-27T10:52:04Z</time>
      </trkpt>
      <trkpt lat="41.625963871" lon="2.507952906">
        <ele>413.50</ele>
        <time>2014-07-27T10:52:12Z</time>
      </trkpt>
      <trkpt lat="41.626100245" lon="2.507937903">
        <ele>414.47</ele>
        <time>2014-07-27T10:52:18Z</time>
      </trkpt>
      <trkpt lat="41.626271403" lon="2.507891216">
        <ele>415.43</ele>
        <time>2014-07-27T10:52:25Z</time>
      </trkpt>
      <trkpt lat="41.626415824" lon="2.507861795">
        <ele>416.87</ele>
        <time>2014-07-27T10:52:32Z</time>
      </trkpt>
      <trkpt lat="41.626565608" lon="2.507859700">
        <ele>417.83</ele>
        <time>2014-07-27T10:52:39Z</time>
      </trkpt>
      <trkpt lat="41.626726038" lon="2.507918541">
        <ele>418.79</ele>
        <time>2014-07-27T10:52:47Z</time>
      </trkpt>
      <trkpt lat="41.626768115" lon="2.508035300">
        <ele>420.23</ele>
        <time>2014-07-27T10:52:53Z</time>
      </trkpt>
      <trkpt lat="41.626711118" lon="2.508208554">
        <ele>421.68</ele>
        <time>2014-07-27T10:53:00Z</time>
      </trkpt>
      <trkpt lat="41.626677758" lon="2.508399997">
        <ele>422.16</ele>
        <time>2014-07-27T10:53:07Z</time>
      </trkpt>
      <trkpt lat="41.626610619" lon="2.508588590">
        <ele>423.60</ele>
        <time>2014-07-27T10:53:15Z</time>
      </trkpt>
      <trkpt lat="41.626518753" lon="2.508741308">
        <ele>424.56</ele>
        <time>2014-07-27T10:53:22Z</time>
      </trkpt>
      <trkpt lat="41.626430408" lon="2.508937361">
        <ele>425.04</ele>
        <time>2014-07-27T10:53:30Z</time>
      </trkpt>
      <trkpt lat="41.626425547" lon="2.509168953">
        <ele>426.00</ele>
        <time>2014-07-27T10:53:37Z</time>
      </trkpt>
      <trkpt lat="41.626471898" lon="2.509451339">
        <ele>426.48</ele>
        <time>2014-07-27T10:53:46Z</time>
      </trkpt>
      <trkpt lat="41.626471396" lon="2.509482017">
        <ele>426.48</ele>
        <time>2014-07-27T10:53:47Z</time>
      </trkpt>
      <trkpt lat="41.626446837" lon="2.509603303">
        <ele>426.48</ele>
        <time>2014-07-27T10:53:51Z</time>
      </trkpt>
      <trkpt lat="41.626357150" lon="2.509821149">
        <ele>427.92</ele>
        <time>2014-07-27T10:53:59Z</time>
      </trkpt>
      <trkpt lat="41.626256903" lon="2.510029607">
        <ele>428.40</ele>
        <time>2014-07-27T10:54:07Z</time>
      </trkpt>
      <trkpt lat="41.626180627" lon="2.510259438">
        <ele>429.85</ele>
        <time>2014-07-27T10:54:15Z</time>
      </trkpt>
      <trkpt lat="41.626093623" lon="2.510567390">
        <ele>430.81</ele>
        <time>2014-07-27T10:54:26Z</time>
      </trkpt>
      <trkpt lat="41.626031597" lon="2.510768220">
        <ele>432.73</ele>
        <time>2014-07-27T10:54:34Z</time>
      </trkpt>
      <trkpt lat="41.625969236" lon="2.510944240">
        <ele>434.17</ele>
        <time>2014-07-27T10:54:42Z</time>
      </trkpt>
      <trkpt lat="41.625916346" lon="2.511115482">
        <ele>435.13</ele>
        <time>2014-07-27T10:54:49Z</time>
      </trkpt>
      <trkpt lat="41.625850883" lon="2.511338692">
        <ele>436.58</ele>
        <time>2014-07-27T10:54:58Z</time>
      </trkpt>
      <trkpt lat="41.625818361" lon="2.511496524">
        <ele>438.02</ele>
        <time>2014-07-27T10:55:05Z</time>
      </trkpt>
      <trkpt lat="41.625849207" lon="2.511676232">
        <ele>439.46</ele>
        <time>2014-07-27T10:55:12Z</time>
      </trkpt>
      <trkpt lat="41.625953729" lon="2.511727194">
        <ele>440.42</ele>
        <time>2014-07-27T10:55:18Z</time>
      </trkpt>
      <trkpt lat="41.626083313" lon="2.511767091">
        <ele>442.82</ele>
        <time>2014-07-27T10:55:26Z</time>
      </trkpt>
      <trkpt lat="41.626117344" lon="2.511791818">
        <ele>442.82</ele>
        <time>2014-07-27T10:55:28Z</time>
      </trkpt>
      <trkpt lat="41.626203258" lon="2.511948727">
        <ele>444.27</ele>
        <time>2014-07-27T10:55:37Z</time>
      </trkpt>
      <trkpt lat="41.626224213" lon="2.512004383">
        <ele>444.75</ele>
        <time>2014-07-27T10:55:40Z</time>
      </trkpt>
      <trkpt lat="41.626280037" lon="2.512161711">
        <ele>446.19</ele>
        <time>2014-07-27T10:55:49Z</time>
      </trkpt>
      <trkpt lat="41.626294956" lon="2.512205213">
        <ele>446.67</ele>
        <time>2014-07-27T10:55:52Z</time>
      </trkpt>
      <trkpt lat="41.626313648" lon="2.512313424">
        <ele>447.63</ele>
        <time>2014-07-27T10:55:58Z</time>
      </trkpt>
      <trkpt lat="41.626340973" lon="2.512460191">
        <ele>448.11</ele>
        <time>2014-07-27T10:56:06Z</time>
      </trkpt>
      <trkpt lat="41.626354971" lon="2.512650544">
        <ele>448.59</ele>
        <time>2014-07-27T10:56:15Z</time>
      </trkpt>
      <trkpt lat="41.626363018" lon="2.512738889">
        <ele>449.55</ele>
        <time>2014-07-27T10:56:19Z</time>
      </trkpt>
      <trkpt lat="41.626403418" lon="2.512908958">
        <ele>451.00</ele>
        <time>2014-07-27T10:56:28Z</time>
      </trkpt>
      <trkpt lat="41.626415740" lon="2.512922956">
        <ele>451.00</ele>
        <time>2014-07-27T10:56:29Z</time>
      </trkpt>
      <trkpt lat="41.626542642" lon="2.512937121">
        <ele>451.96</ele>
        <time>2014-07-27T10:56:38Z</time>
      </trkpt>
      <trkpt lat="41.626557897" lon="2.512934942">
        <ele>451.96</ele>
        <time>2014-07-27T10:56:39Z</time>
      </trkpt>
      <trkpt lat="41.626697036" lon="2.512948018">
        <ele>452.44</ele>
        <time>2014-07-27T10:56:47Z</time>
      </trkpt>
      <trkpt lat="41.626857131" lon="2.512985401">
        <ele>452.92</ele>
        <time>2014-07-27T10:56:55Z</time>
      </trkpt>
      <trkpt lat="41.627016052" lon="2.513098305">
        <ele>453.40</ele>
        <time>2014-07-27T10:57:04Z</time>
      </trkpt>
      <trkpt lat="41.627122418" lon="2.513288323">
        <ele>453.88</ele>
        <time>2014-07-27T10:57:12Z</time>
      </trkpt>
      <trkpt lat="41.627229790" lon="2.513494853">
        <ele>455.32</ele>
        <time>2014-07-27T10:57:21Z</time>
      </trkpt>
      <trkpt lat="41.627323416" lon="2.513673220">
        <ele>455.32</ele>
        <time>2014-07-27T10:57:27Z</time>
      </trkpt>
      <trkpt lat="41.627420981" lon="2.513924677">
        <ele>453.88</ele>
        <time>2014-07-27T10:57:32Z</time>
      </trkpt>
      <trkpt lat="41.627469429" lon="2.514268084">
        <ele>451.48</ele>
        <time>2014-07-27T10:57:37Z</time>
      </trkpt>
      <trkpt lat="41.627489378" lon="2.514415102">
        <ele>450.52</ele>
        <time>2014-07-27T10:57:39Z</time>
      </trkpt>
      <trkpt lat="41.627418383" lon="2.514848530">
        <ele>448.11</ele>
        <time>2014-07-27T10:57:45Z</time>
      </trkpt>
      <trkpt lat="41.627393824" lon="2.514926231">
        <ele>448.11</ele>
        <time>2014-07-27T10:57:46Z</time>
      </trkpt>
      <trkpt lat="41.627215792" lon="2.515272236">
        <ele>444.75</ele>
        <time>2014-07-27T10:57:52Z</time>
      </trkpt>
      <trkpt lat="41.627043796" lon="2.515442807">
        <ele>442.82</ele>
        <time>2014-07-27T10:57:58Z</time>
      </trkpt>
      <trkpt lat="41.626906165" lon="2.515518077">
        <ele>440.42</ele>
        <time>2014-07-27T10:58:02Z</time>
      </trkpt>
      <trkpt lat="41.626665269" lon="2.515633831">
        <ele>436.58</ele>
        <time>2014-07-27T10:58:07Z</time>
      </trkpt>
      <trkpt lat="41.626561752" lon="2.515690325">
        <ele>435.13</ele>
        <time>2014-07-27T10:58:09Z</time>
      </trkpt>
      <trkpt lat="41.626512802" lon="2.515715303">
        <ele>434.17</ele>
        <time>2014-07-27T10:58:10Z</time>
      </trkpt>
      <trkpt lat="41.626369639" lon="2.515793674">
        <ele>432.25</ele>
        <time>2014-07-27T10:58:13Z</time>
      </trkpt>
      <trkpt lat="41.626269978" lon="2.515846145">
        <ele>430.81</ele>
        <time>2014-07-27T10:58:15Z</time>
      </trkpt>
      <trkpt lat="41.626197140" lon="2.515907584">
        <ele>429.85</ele>
        <time>2014-07-27T10:58:17Z</time>
      </trkpt>
      <trkpt lat="41.626132767" lon="2.516021326">
        <ele>429.37</ele>
        <time>2014-07-27T10:58:20Z</time>
      </trkpt>
      <trkpt lat="41.626054061" lon="2.516270856">
        <ele>428.89</ele>
        <time>2014-07-27T10:58:26Z</time>
      </trkpt>
      <trkpt lat="41.625969320" lon="2.516283009">
        <ele>427.92</ele>
        <time>2014-07-27T10:58:30Z</time>
      </trkpt>
      <trkpt lat="41.626005613" lon="2.516147474">
        <ele>426.00</ele>
        <time>2014-07-27T10:58:34Z</time>
      </trkpt>
      <trkpt lat="41.626029502" lon="2.516055105">
        <ele>426.00</ele>
        <time>2014-07-27T10:58:36Z</time>
      </trkpt>
      <trkpt lat="41.626165205" lon="2.515684206">
        <ele>422.64</ele>
        <time>2014-07-27T10:58:44Z</time>
      </trkpt>
      <trkpt lat="41.626207869" lon="2.515604075">
        <ele>421.19</ele>
        <time>2014-07-27T10:58:46Z</time>
      </trkpt>
      <trkpt lat="41.626324712" lon="2.515405424">
        <ele>418.31</ele>
        <time>2014-07-27T10:58:50Z</time>
      </trkpt>
      <trkpt lat="41.626427642" lon="2.515196799">
        <ele>416.87</ele>
        <time>2014-07-27T10:58:54Z</time>
      </trkpt>
      <trkpt lat="41.626504001" lon="2.515063610">
        <ele>414.95</ele>
        <time>2014-07-27T10:58:57Z</time>
      </trkpt>
      <trkpt lat="41.626567285" lon="2.514980462">
        <ele>413.98</ele>
        <time>2014-07-27T10:58:59Z</time>
      </trkpt>
      <trkpt lat="41.626594107" lon="2.514932266">
        <ele>413.50</ele>
        <time>2014-07-27T10:59:00Z</time>
      </trkpt>
      <trkpt lat="41.626626964" lon="2.514699835">
        <ele>411.58</ele>
        <time>2014-07-27T10:59:04Z</time>
      </trkpt>
      <trkpt lat="41.626592263" lon="2.514579052">
        <ele>410.62</ele>
        <time>2014-07-27T10:59:07Z</time>
      </trkpt>
      <trkpt lat="41.626479694" lon="2.514440918">
        <ele>409.18</ele>
        <time>2014-07-27T10:59:11Z</time>
      </trkpt>
      <trkpt lat="41.626386068" lon="2.514325416">
        <ele>407.74</ele>
        <time>2014-07-27T10:59:14Z</time>
      </trkpt>
      <trkpt lat="41.626265955" lon="2.514233885">
        <ele>406.29</ele>
        <time>2014-07-27T10:59:17Z</time>
      </trkpt>
      <trkpt lat="41.626156907" lon="2.514237322">
        <ele>404.85</ele>
        <time>2014-07-27T10:59:20Z</time>
      </trkpt>
      <trkpt lat="41.626084906" lon="2.514254170">
        <ele>403.41</ele>
        <time>2014-07-27T10:59:22Z</time>
      </trkpt>
      <trkpt lat="41.625874688" lon="2.514182421">
        <ele>400.53</ele>
        <time>2014-07-27T10:59:27Z</time>
      </trkpt>
      <trkpt lat="41.625797826" lon="2.514128693">
        <ele>399.57</ele>
        <time>2014-07-27T10:59:29Z</time>
      </trkpt>
      <trkpt lat="41.625580148" lon="2.514060883">
        <ele>395.72</ele>
        <time>2014-07-27T10:59:34Z</time>
      </trkpt>
      <trkpt lat="41.625419802" lon="2.514048394">
        <ele>392.84</ele>
        <time>2014-07-27T10:59:39Z</time>
      </trkpt>
      <trkpt lat="41.625309748" lon="2.514051411">
        <ele>391.39</ele>
        <time>2014-07-27T10:59:42Z</time>
      </trkpt>
      <trkpt lat="41.625240094" lon="2.514062727">
        <ele>389.95</ele>
        <time>2014-07-27T10:59:44Z</time>
      </trkpt>
      <trkpt lat="41.625058961" lon="2.514095333">
        <ele>386.11</ele>
        <time>2014-07-27T10:59:48Z</time>
      </trkpt>
      <trkpt lat="41.624878415" lon="2.514078401">
        <ele>381.78</ele>
        <time>2014-07-27T10:59:53Z</time>
      </trkpt>
      <trkpt lat="41.624832231" lon="2.514049065">
        <ele>380.34</ele>
        <time>2014-07-27T10:59:55Z</time>
      </trkpt>
      <trkpt lat="41.624849246" lon="2.513818814">
        <ele>379.38</ele>
        <time>2014-07-27T11:00:00Z</time>
      </trkpt>
      <trkpt lat="41.624880510" lon="2.513709262">
        <ele>377.94</ele>
        <time>2014-07-27T11:00:02Z</time>
      </trkpt>
      <trkpt lat="41.624988888" lon="2.513453614">
        <ele>376.49</ele>
        <time>2014-07-27T11:00:07Z</time>
      </trkpt>
      <trkpt lat="41.624997270" lon="2.513411453">
        <ele>376.01</ele>
        <time>2014-07-27T11:00:08Z</time>
      </trkpt>
      <trkpt lat="41.625007664" lon="2.513324114">
        <ele>375.53</ele>
        <time>2014-07-27T11:00:10Z</time>
      </trkpt>
      <trkpt lat="41.625007077" lon="2.513173156">
        <ele>374.09</ele>
        <time>2014-07-27T11:00:13Z</time>
      </trkpt>
      <trkpt lat="41.625004143" lon="2.513128732">
        <ele>373.61</ele>
        <time>2014-07-27T11:00:14Z</time>
      </trkpt>
      <trkpt lat="41.624925689" lon="2.512840226">
        <ele>371.21</ele>
        <time>2014-07-27T11:00:20Z</time>
      </trkpt>
      <trkpt lat="41.624780766" lon="2.512723215">
        <ele>369.28</ele>
        <time>2014-07-27T11:00:25Z</time>
      </trkpt>
      <trkpt lat="41.624534170" lon="2.512630344">
        <ele>366.88</ele>
        <time>2014-07-27T11:00:32Z</time>
      </trkpt>
      <trkpt lat="41.624430151" lon="2.512579968">
        <ele>365.92</ele>
        <time>2014-07-27T11:00:35Z</time>
      </trkpt>
      <trkpt lat="41.624354797" lon="2.512670325">
        <ele>363.04</ele>
        <time>2014-07-27T11:00:41Z</time>
      </trkpt>
      <trkpt lat="41.624400730" lon="2.512717348">
        <ele>362.07</ele>
        <time>2014-07-27T11:00:44Z</time>
      </trkpt>
      <trkpt lat="41.624437527" lon="2.512749199">
        <ele>361.11</ele>
        <time>2014-07-27T11:00:47Z</time>
      </trkpt>
      <trkpt lat="41.624573481" lon="2.512882136">
        <ele>357.75</ele>
        <time>2014-07-27T11:00:53Z</time>
      </trkpt>
      <trkpt lat="41.624595693" lon="2.512916669">
        <ele>357.27</ele>
        <time>2014-07-27T11:00:54Z</time>
      </trkpt>
      <trkpt lat="41.624536098" lon="2.513178520">
        <ele>354.38</ele>
        <time>2014-07-27T11:00:59Z</time>
      </trkpt>
      <trkpt lat="41.624414477" lon="2.513276002">
        <ele>352.94</ele>
        <time>2014-07-27T11:01:02Z</time>
      </trkpt>
      <trkpt lat="41.624197385" lon="2.513347751">
        <ele>349.10</ele>
        <time>2014-07-27T11:01:08Z</time>
      </trkpt>
      <trkpt lat="41.624078111" lon="2.513400305">
        <ele>346.21</ele>
        <time>2014-07-27T11:01:14Z</time>
      </trkpt>
      <trkpt lat="41.624054474" lon="2.513409609">
        <ele>346.21</ele>
        <time>2014-07-27T11:01:15Z</time>
      </trkpt>
      <trkpt lat="41.623935115" lon="2.513498457">
        <ele>344.77</ele>
        <time>2014-07-27T11:01:20Z</time>
      </trkpt>
      <trkpt lat="41.623892619" lon="2.513548246">
        <ele>343.81</ele>
        <time>2014-07-27T11:01:22Z</time>
      </trkpt>
      <trkpt lat="41.623708636" lon="2.513651678">
        <ele>340.92</ele>
        <time>2014-07-27T11:01:28Z</time>
      </trkpt>
      <trkpt lat="41.623571844" lon="2.513688224">
        <ele>337.08</ele>
        <time>2014-07-27T11:01:36Z</time>
      </trkpt>
      <trkpt lat="41.623462125" lon="2.513727786">
        <ele>334.20</ele>
        <time>2014-07-27T11:01:40Z</time>
      </trkpt>
      <trkpt lat="41.623433878" lon="2.513744047">
        <ele>333.23</ele>
        <time>2014-07-27T11:01:41Z</time>
      </trkpt>
      <trkpt lat="41.623387526" lon="2.513712866">
        <ele>332.75</ele>
        <time>2014-07-27T11:01:43Z</time>
      </trkpt>
      <trkpt lat="41.623397416" lon="2.513601639">
        <ele>331.31</ele>
        <time>2014-07-27T11:01:46Z</time>
      </trkpt>
      <trkpt lat="41.623499759" lon="2.513422517">
        <ele>329.39</ele>
        <time>2014-07-27T11:01:52Z</time>
      </trkpt>
      <trkpt lat="41.623574610" lon="2.513341548">
        <ele>327.47</ele>
        <time>2014-07-27T11:01:55Z</time>
      </trkpt>
      <trkpt lat="41.623607048" lon="2.513276253">
        <ele>326.02</ele>
        <time>2014-07-27T11:01:57Z</time>
      </trkpt>
      <trkpt lat="41.623606964" lon="2.513177766">
        <ele>324.58</ele>
        <time>2014-07-27T11:02:00Z</time>
      </trkpt>
      <trkpt lat="41.623601097" lon="2.513148178">
        <ele>324.10</ele>
        <time>2014-07-27T11:02:01Z</time>
      </trkpt>
      <trkpt lat="41.623525324" lon="2.513187908">
        <ele>322.18</ele>
        <time>2014-07-27T11:02:06Z</time>
      </trkpt>
      <trkpt lat="41.623399512" lon="2.513255047">
        <ele>319.30</ele>
        <time>2014-07-27T11:02:11Z</time>
      </trkpt>
      <trkpt lat="41.623335558" lon="2.513256388">
        <ele>318.33</ele>
        <time>2014-07-27T11:02:13Z</time>
      </trkpt>
      <trkpt lat="41.623132632" lon="2.513272649">
        <ele>314.97</ele>
        <time>2014-07-27T11:02:18Z</time>
      </trkpt>
      <trkpt lat="41.623003299" lon="2.513336016">
        <ele>311.12</ele>
        <time>2014-07-27T11:02:22Z</time>
      </trkpt>
      <trkpt lat="41.622984859" lon="2.513353367">
        <ele>311.12</ele>
        <time>2014-07-27T11:02:23Z</time>
      </trkpt>
      <trkpt lat="41.622866255" lon="2.513426960">
        <ele>309.20</ele>
        <time>2014-07-27T11:02:27Z</time>
      </trkpt>
      <trkpt lat="41.622678584" lon="2.513577331">
        <ele>305.36</ele>
        <time>2014-07-27T11:02:33Z</time>
      </trkpt>
      <trkpt lat="41.622566183" lon="2.513795847">
        <ele>301.51</ele>
        <time>2014-07-27T11:02:39Z</time>
      </trkpt>
      <trkpt lat="41.622439784" lon="2.513916463">
        <ele>299.11</ele>
        <time>2014-07-27T11:02:45Z</time>
      </trkpt>
      <trkpt lat="41.622356468" lon="2.513954684">
        <ele>297.18</ele>
        <time>2014-07-27T11:02:49Z</time>
      </trkpt>
      <trkpt lat="41.622253203" lon="2.514001539">
        <ele>293.82</ele>
        <time>2014-07-27T11:02:53Z</time>
      </trkpt>
      <trkpt lat="41.622127223" lon="2.514060967">
        <ele>290.94</ele>
        <time>2014-07-27T11:02:59Z</time>
      </trkpt>
      <trkpt lat="41.621984060" lon="2.514134560">
        <ele>287.09</ele>
        <time>2014-07-27T11:03:05Z</time>
      </trkpt>
      <trkpt lat="41.621943659" lon="2.514155682">
        <ele>286.61</ele>
        <time>2014-07-27T11:03:07Z</time>
      </trkpt>
      <trkpt lat="41.621839053" lon="2.514207818">
        <ele>283.73</ele>
        <time>2014-07-27T11:03:12Z</time>
      </trkpt>
      <trkpt lat="41.621726903" lon="2.514229862">
        <ele>282.28</ele>
        <time>2014-07-27T11:03:15Z</time>
      </trkpt>
      <trkpt lat="41.621566976" lon="2.514254840">
        <ele>279.40</ele>
        <time>2014-07-27T11:03:20Z</time>
      </trkpt>
      <trkpt lat="41.621508974" lon="2.514272777">
        <ele>277.96</ele>
        <time>2014-07-27T11:03:22Z</time>
      </trkpt>
      <trkpt lat="41.621404200" lon="2.514424238">
        <ele>274.11</ele>
        <time>2014-07-27T11:03:28Z</time>
      </trkpt>
      <trkpt lat="41.621359357" lon="2.514546782">
        <ele>272.19</ele>
        <time>2014-07-27T11:03:31Z</time>
      </trkpt>
      <trkpt lat="41.621308395" lon="2.514701093">
        <ele>269.79</ele>
        <time>2014-07-27T11:03:35Z</time>
      </trkpt>
      <trkpt lat="41.621181912" lon="2.514875688">
        <ele>266.42</ele>
        <time>2014-07-27T11:03:40Z</time>
      </trkpt>
      <trkpt lat="41.621060207" lon="2.515090935">
        <ele>264.02</ele>
        <time>2014-07-27T11:03:46Z</time>
      </trkpt>
      <trkpt lat="41.620912014" lon="2.515333591">
        <ele>263.06</ele>
        <time>2014-07-27T11:03:52Z</time>
      </trkpt>
      <trkpt lat="41.620821155" lon="2.515481364">
        <ele>261.62</ele>
        <time>2014-07-27T11:03:55Z</time>
      </trkpt>
      <trkpt lat="41.620710094" lon="2.515649002">
        <ele>258.73</ele>
        <time>2014-07-27T11:03:59Z</time>
      </trkpt>
      <trkpt lat="41.620682686" lon="2.515682362">
        <ele>258.25</ele>
        <time>2014-07-27T11:04:00Z</time>
      </trkpt>
      <trkpt lat="41.620571122" lon="2.515800882">
        <ele>255.37</ele>
        <time>2014-07-27T11:04:03Z</time>
      </trkpt>
      <trkpt lat="41.620456793" lon="2.516016381">
        <ele>251.04</ele>
        <time>2014-07-27T11:04:08Z</time>
      </trkpt>
      <trkpt lat="41.620372388" lon="2.516185444">
        <ele>247.68</ele>
        <time>2014-07-27T11:04:12Z</time>
      </trkpt>
      <trkpt lat="41.620288066" lon="2.516310418">
        <ele>244.31</ele>
        <time>2014-07-27T11:04:16Z</time>
      </trkpt>
      <trkpt lat="41.620235092" lon="2.516354088">
        <ele>241.91</ele>
        <time>2014-07-27T11:04:19Z</time>
      </trkpt>
      <trkpt lat="41.620038955" lon="2.516323410">
        <ele>238.54</ele>
        <time>2014-07-27T11:04:25Z</time>
      </trkpt>
      <trkpt lat="41.619941306" lon="2.516284015">
        <ele>236.62</ele>
        <time>2014-07-27T11:04:28Z</time>
      </trkpt>
      <trkpt lat="41.619871317" lon="2.516273873">
        <ele>236.14</ele>
        <time>2014-07-27T11:04:31Z</time>
      </trkpt>
      <trkpt lat="41.619729412" lon="2.516372193">
        <ele>234.22</ele>
        <time>2014-07-27T11:04:36Z</time>
      </trkpt>
      <trkpt lat="41.619640144" lon="2.516493647">
        <ele>232.30</ele>
        <time>2014-07-27T11:04:41Z</time>
      </trkpt>
      <trkpt lat="41.619547189" lon="2.516509656">
        <ele>232.30</ele>
        <time>2014-07-27T11:04:47Z</time>
      </trkpt>
      <trkpt lat="41.619511315" lon="2.516501777">
        <ele>231.81</ele>
        <time>2014-07-27T11:05:03Z</time>
      </trkpt>
      <trkpt lat="41.619493210" lon="2.516498424">
        <ele>230.85</ele>
        <time>2014-07-27T11:05:13Z</time>
      </trkpt>
      <trkpt lat="41.619461526" lon="2.516525330">
        <ele>230.85</ele>
        <time>2014-07-27T11:05:18Z</time>
      </trkpt>
      <trkpt lat="41.619437470" lon="2.516580986">
        <ele>230.85</ele>
        <time>2014-07-27T11:05:21Z</time>
      </trkpt>
      <trkpt lat="41.619420203" lon="2.516759101">
        <ele>229.89</ele>
        <time>2014-07-27T11:05:29Z</time>
      </trkpt>
      <trkpt lat="41.619407211" lon="2.516801179">
        <ele>229.41</ele>
        <time>2014-07-27T11:05:32Z</time>
      </trkpt>
      <trkpt lat="41.619349879" lon="2.516931685">
        <ele>227.97</ele>
        <time>2014-07-27T11:05:39Z</time>
      </trkpt>
      <trkpt lat="41.619321045" lon="2.516987760">
        <ele>227.97</ele>
        <time>2014-07-27T11:05:42Z</time>
      </trkpt>
      <trkpt lat="41.619294978" lon="2.517121703">
        <ele>227.01</ele>
        <time>2014-07-27T11:05:48Z</time>
      </trkpt>
      <trkpt lat="41.619270083" lon="2.517300153">
        <ele>225.57</ele>
        <time>2014-07-27T11:05:56Z</time>
      </trkpt>
      <trkpt lat="41.619244267" lon="2.517465864">
        <ele>224.61</ele>
        <time>2014-07-27T11:06:03Z</time>
      </trkpt>
      <trkpt lat="41.619253236" lon="2.517482963">
        <ele>224.61</ele>
        <time>2014-07-27T11:06:11Z</time>
      </trkpt>
      <trkpt lat="41.619251811" lon="2.517491764">
        <ele>224.61</ele>
        <time>2014-07-27T11:06:13Z</time>
      </trkpt>
      <trkpt lat="41.619233119" lon="2.517595112">
        <ele>224.12</ele>
        <time>2014-07-27T11:06:19Z</time>
      </trkpt>
      <trkpt lat="41.619229012" lon="2.517613050">
        <ele>224.12</ele>
        <time>2014-07-27T11:06:20Z</time>
      </trkpt>
      <trkpt lat="41.619232700" lon="2.517657558">
        <ele>224.12</ele>
        <time>2014-07-27T11:06:27Z</time>
      </trkpt>
      <trkpt lat="41.619216355" lon="2.517763253">
        <ele>224.12</ele>
        <time>2014-07-27T11:06:36Z</time>
      </trkpt>
      <trkpt lat="41.619178218" lon="2.517877583">
        <ele>223.64</ele>
        <time>2014-07-27T11:06:39Z</time>
      </trkpt>
      <trkpt lat="41.619038491" lon="2.518056955">
        <ele>222.20</ele>
        <time>2014-07-27T11:06:44Z</time>
      </trkpt>
      <trkpt lat="41.618963054" lon="2.518130465">
        <ele>221.72</ele>
        <time>2014-07-27T11:06:46Z</time>
      </trkpt>
      <trkpt lat="41.618862471" lon="2.518237921">
        <ele>219.80</ele>
        <time>2014-07-27T11:06:49Z</time>
      </trkpt>
      <trkpt lat="41.618807235" lon="2.518378234">
        <ele>218.84</ele>
        <time>2014-07-27T11:06:52Z</time>
      </trkpt>
      <trkpt lat="41.618770103" lon="2.518578561">
        <ele>217.88</ele>
        <time>2014-07-27T11:06:55Z</time>
      </trkpt>
      <trkpt lat="41.618666335" lon="2.519099413">
        <ele>214.03</ele>
        <time>2014-07-27T11:07:01Z</time>
      </trkpt>
      <trkpt lat="41.618620905" lon="2.519260848">
        <ele>213.55</ele>
        <time>2014-07-27T11:07:03Z</time>
      </trkpt>
      <trkpt lat="41.618594670" lon="2.519328071">
        <ele>212.59</ele>
        <time>2014-07-27T11:07:04Z</time>
      </trkpt>
      <trkpt lat="41.618401551" lon="2.519494703">
        <ele>211.15</ele>
        <time>2014-07-27T11:07:09Z</time>
      </trkpt>
      <trkpt lat="41.618108519" lon="2.519573242">
        <ele>209.70</ele>
        <time>2014-07-27T11:07:14Z</time>
      </trkpt>
      <trkpt lat="41.617808782" lon="2.519608446">
        <ele>208.26</ele>
        <time>2014-07-27T11:07:19Z</time>
      </trkpt>
      <trkpt lat="41.617757737" lon="2.519612804">
        <ele>208.26</ele>
        <time>2014-07-27T11:07:20Z</time>
      </trkpt>
      <trkpt lat="41.617209560" lon="2.519698803">
        <ele>206.34</ele>
        <time>2014-07-27T11:07:30Z</time>
      </trkpt>
      <trkpt lat="41.616862382" lon="2.519751776">
        <ele>204.90</ele>
        <time>2014-07-27T11:07:36Z</time>
      </trkpt>
      <trkpt lat="41.616647637" lon="2.519831488">
        <ele>202.49</ele>
        <time>2014-07-27T11:07:40Z</time>
      </trkpt>
      <trkpt lat="41.616373046" lon="2.520034079">
        <ele>201.53</ele>
        <time>2014-07-27T11:07:47Z</time>
      </trkpt>
      <trkpt lat="41.616344548" lon="2.520075485">
        <ele>201.53</ele>
        <time>2014-07-27T11:07:50Z</time>
      </trkpt>
      <trkpt lat="41.616248575" lon="2.520217810">
        <ele>201.53</ele>
        <time>2014-07-27T11:07:56Z</time>
      </trkpt>
      <trkpt lat="41.616174144" lon="2.520403050">
        <ele>201.53</ele>
        <time>2014-07-27T11:08:00Z</time>
      </trkpt>
      <trkpt lat="41.616114800" lon="2.520619638">
        <ele>201.53</ele>
        <time>2014-07-27T11:08:04Z</time>
      </trkpt>
      <trkpt lat="41.615999465" lon="2.520952232">
        <ele>200.57</ele>
        <time>2014-07-27T11:08:11Z</time>
      </trkpt>
      <trkpt lat="41.615919250" lon="2.521385996">
        <ele>199.61</ele>
        <time>2014-07-27T11:08:19Z</time>
      </trkpt>
      <trkpt lat="41.615806178" lon="2.521914223">
        <ele>198.17</ele>
        <time>2014-07-27T11:08:28Z</time>
      </trkpt>
      <trkpt lat="41.615794360" lon="2.521975998">
        <ele>198.17</ele>
        <time>2014-07-27T11:08:29Z</time>
      </trkpt>
      <trkpt lat="41.615775919" lon="2.522112120">
        <ele>197.69</ele>
        <time>2014-07-27T11:08:31Z</time>
      </trkpt>
      <trkpt lat="41.615670643" lon="2.522781750">
        <ele>195.28</ele>
        <time>2014-07-27T11:08:39Z</time>
      </trkpt>
      <trkpt lat="41.615631415" lon="2.523059107">
        <ele>194.80</ele>
        <time>2014-07-27T11:08:42Z</time>
      </trkpt>
      <trkpt lat="41.615579699" lon="2.523521286">
        <ele>193.36</ele>
        <time>2014-07-27T11:08:47Z</time>
      </trkpt>
      <trkpt lat="41.615548518" lon="2.524071474">
        <ele>191.44</ele>
        <time>2014-07-27T11:08:53Z</time>
      </trkpt>
      <trkpt lat="41.615529827" lon="2.524281608">
        <ele>190.96</ele>
        <time>2014-07-27T11:08:55Z</time>
      </trkpt>
      <trkpt lat="41.615481379" lon="2.524938833">
        <ele>188.56</ele>
        <time>2014-07-27T11:09:01Z</time>
      </trkpt>
      <trkpt lat="41.615448522" lon="2.525380811">
        <ele>186.63</ele>
        <time>2014-07-27T11:09:05Z</time>
      </trkpt>
      <trkpt lat="41.615461682" lon="2.526028648">
        <ele>185.19</ele>
        <time>2014-07-27T11:09:11Z</time>
      </trkpt>
      <trkpt lat="41.615509626" lon="2.526551930">
        <ele>183.27</ele>
        <time>2014-07-27T11:09:16Z</time>
      </trkpt>
      <trkpt lat="41.615523289" lon="2.526880501">
        <ele>182.31</ele>
        <time>2014-07-27T11:09:19Z</time>
      </trkpt>
      <trkpt lat="41.615403595" lon="2.527668735">
        <ele>179.42</ele>
        <time>2014-07-27T11:09:26Z</time>
      </trkpt>
      <trkpt lat="41.615363111" lon="2.527893622">
        <ele>178.46</ele>
        <time>2014-07-27T11:09:28Z</time>
      </trkpt>
      <trkpt lat="41.615214081" lon="2.528631732">
        <ele>176.54</ele>
        <time>2014-07-27T11:09:35Z</time>
      </trkpt>
      <trkpt lat="41.615144259" lon="2.529316953">
        <ele>174.62</ele>
        <time>2014-07-27T11:09:42Z</time>
      </trkpt>
      <trkpt lat="41.615119281" lon="2.530020362">
        <ele>172.69</ele>
        <time>2014-07-27T11:09:49Z</time>
      </trkpt>
      <trkpt lat="41.615092124" lon="2.530814296">
        <ele>169.81</ele>
        <time>2014-07-27T11:09:57Z</time>
      </trkpt>
      <trkpt lat="41.615066224" lon="2.531207491">
        <ele>168.85</ele>
        <time>2014-07-27T11:10:01Z</time>
      </trkpt>
      <trkpt lat="41.615174434" lon="2.531762792">
        <ele>166.45</ele>
        <time>2014-07-27T11:10:07Z</time>
      </trkpt>
      <trkpt lat="41.615174350" lon="2.532095889">
        <ele>164.52</ele>
        <time>2014-07-27T11:10:10Z</time>
      </trkpt>
      <trkpt lat="41.615050717" lon="2.532755712">
        <ele>163.56</ele>
        <time>2014-07-27T11:10:17Z</time>
      </trkpt>
      <trkpt lat="41.614828094" lon="2.533517376">
        <ele>162.12</ele>
        <time>2014-07-27T11:10:26Z</time>
      </trkpt>
      <trkpt lat="41.614651739" lon="2.534070162">
        <ele>158.75</ele>
        <time>2014-07-27T11:10:33Z</time>
      </trkpt>
      <trkpt lat="41.614633215" lon="2.534131937">
        <ele>158.75</ele>
        <time>2014-07-27T11:10:34Z</time>
      </trkpt>
      <trkpt lat="41.614561633" lon="2.534378030">
        <ele>158.27</ele>
        <time>2014-07-27T11:10:38Z</time>
      </trkpt>
      <trkpt lat="41.614472198" lon="2.534641724">
        <ele>157.79</ele>
        <time>2014-07-27T11:10:42Z</time>
      </trkpt>
      <trkpt lat="41.614252425" lon="2.535279168">
        <ele>155.87</ele>
        <time>2014-07-27T11:10:51Z</time>
      </trkpt>
      <trkpt lat="41.614020665" lon="2.535946535">
        <ele>153.47</ele>
        <time>2014-07-27T11:11:00Z</time>
      </trkpt>
      <trkpt lat="41.613910946" lon="2.536236381">
        <ele>152.03</ele>
        <time>2014-07-27T11:11:05Z</time>
      </trkpt>
      <trkpt lat="41.613782200" lon="2.536541902">
        <ele>150.58</ele>
        <time>2014-07-27T11:11:12Z</time>
      </trkpt>
      <trkpt lat="41.613596038" lon="2.536736194">
        <ele>150.10</ele>
        <time>2014-07-27T11:11:19Z</time>
      </trkpt>
      <trkpt lat="41.613567288" lon="2.536846668">
        <ele>149.62</ele>
        <time>2014-07-27T11:11:23Z</time>
      </trkpt>
      <trkpt lat="41.613423874" lon="2.537084378">
        <ele>148.66</ele>
        <time>2014-07-27T11:11:31Z</time>
      </trkpt>
      <trkpt lat="41.613228408" lon="2.537328627">
        <ele>147.70</ele>
        <time>2014-07-27T11:11:38Z</time>
      </trkpt>
      <trkpt lat="41.612975274" lon="2.537600368">
        <ele>146.74</ele>
        <time>2014-07-27T11:11:46Z</time>
      </trkpt>
      <trkpt lat="41.612749298" lon="2.537901279">
        <ele>146.26</ele>
        <time>2014-07-27T11:11:54Z</time>
      </trkpt>
      <trkpt lat="41.612684338" lon="2.537976800">
        <ele>145.78</ele>
        <time>2014-07-27T11:11:56Z</time>
      </trkpt>
      <trkpt lat="41.612552240" lon="2.538161285">
        <ele>144.82</ele>
        <time>2014-07-27T11:12:02Z</time>
      </trkpt>
      <trkpt lat="41.612533716" lon="2.538209733">
        <ele>144.34</ele>
        <time>2014-07-27T11:12:04Z</time>
      </trkpt>
      <trkpt lat="41.612427014" lon="2.538327834">
        <ele>144.34</ele>
        <time>2014-07-27T11:12:11Z</time>
      </trkpt>
      <trkpt lat="41.612308494" lon="2.538488934">
        <ele>143.37</ele>
        <time>2014-07-27T11:12:16Z</time>
      </trkpt>
      <trkpt lat="41.612146388" lon="2.538830497">
        <ele>141.93</ele>
        <time>2014-07-27T11:12:24Z</time>
      </trkpt>
      <trkpt lat="41.612102634" lon="2.538939545">
        <ele>141.45</ele>
        <time>2014-07-27T11:12:28Z</time>
      </trkpt>
      <trkpt lat="41.611924100" lon="2.539098969">
        <ele>140.97</ele>
        <time>2014-07-27T11:12:35Z</time>
      </trkpt>
      <trkpt lat="41.611872383" lon="2.538994195">
        <ele>140.97</ele>
        <time>2014-07-27T11:12:40Z</time>
      </trkpt>
      <trkpt lat="41.611811615" lon="2.538787497">
        <ele>142.41</ele>
        <time>2014-07-27T11:12:48Z</time>
      </trkpt>
      <trkpt lat="41.611665686" lon="2.538748689">
        <ele>143.37</ele>
        <time>2014-07-27T11:12:55Z</time>
      </trkpt>
      <trkpt lat="41.611362680" lon="2.538774254">
        <ele>141.45</ele>
        <time>2014-07-27T11:13:01Z</time>
      </trkpt>
      <trkpt lat="41.610992703" lon="2.538856816">
        <ele>139.53</ele>
        <time>2014-07-27T11:13:08Z</time>
      </trkpt>
      <trkpt lat="41.610890779" lon="2.538910711">
        <ele>139.53</ele>
        <time>2014-07-27T11:13:10Z</time>
      </trkpt>
      <trkpt lat="41.610614679" lon="2.539067621">
        <ele>138.09</ele>
        <time>2014-07-27T11:13:16Z</time>
      </trkpt>
      <trkpt lat="41.610455171" lon="2.539164348">
        <ele>137.13</ele>
        <time>2014-07-27T11:13:20Z</time>
      </trkpt>
      <trkpt lat="41.610175551" lon="2.539316815">
        <ele>135.68</ele>
        <time>2014-07-27T11:13:26Z</time>
      </trkpt>
      <trkpt lat="41.609853937" lon="2.539525775">
        <ele>134.24</ele>
        <time>2014-07-27T11:13:33Z</time>
      </trkpt>
      <trkpt lat="41.609715301" lon="2.539616048">
        <ele>133.28</ele>
        <time>2014-07-27T11:13:37Z</time>
      </trkpt>
      <trkpt lat="41.609430148" lon="2.539790979">
        <ele>132.32</ele>
        <time>2014-07-27T11:13:44Z</time>
      </trkpt>
      <trkpt lat="41.609343647" lon="2.539842695">
        <ele>131.36</ele>
        <time>2014-07-27T11:13:46Z</time>
      </trkpt>
      <trkpt lat="41.609204088" lon="2.539988037">
        <ele>130.88</ele>
        <time>2014-07-27T11:13:50Z</time>
      </trkpt>
      <trkpt lat="41.609123035" lon="2.540204458">
        <ele>129.92</ele>
        <time>2014-07-27T11:13:55Z</time>
      </trkpt>
      <trkpt lat="41.609065703" lon="2.540261623">
        <ele>129.43</ele>
        <time>2014-07-27T11:13:57Z</time>
      </trkpt>
      <trkpt lat="41.608921115" lon="2.540348878">
        <ele>129.43</ele>
        <time>2014-07-27T11:14:01Z</time>
      </trkpt>
      <trkpt lat="41.608862693" lon="2.540433200">
        <ele>129.43</ele>
        <time>2014-07-27T11:14:04Z</time>
      </trkpt>
      <trkpt lat="41.608802511" lon="2.540361283">
        <ele>128.47</ele>
        <time>2014-07-27T11:14:09Z</time>
      </trkpt>
      <trkpt lat="41.608679046" lon="2.540338233">
        <ele>127.99</ele>
        <time>2014-07-27T11:14:13Z</time>
      </trkpt>
      <trkpt lat="41.608524064" lon="2.540347118">
        <ele>127.51</ele>
        <time>2014-07-27T11:14:17Z</time>
      </trkpt>
      <trkpt lat="41.608180239" lon="2.540404366">
        <ele>127.03</ele>
        <time>2014-07-27T11:14:26Z</time>
      </trkpt>
      <trkpt lat="41.607991227" lon="2.540415682">
        <ele>126.55</ele>
        <time>2014-07-27T11:14:31Z</time>
      </trkpt>
      <trkpt lat="41.607762904" lon="2.540454826">
        <ele>126.07</ele>
        <time>2014-07-27T11:14:38Z</time>
      </trkpt>
      <trkpt lat="41.607627033" lon="2.540510230">
        <ele>125.11</ele>
        <time>2014-07-27T11:14:44Z</time>
      </trkpt>
      <trkpt lat="41.607587722" lon="2.540507045">
        <ele>124.63</ele>
        <time>2014-07-27T11:14:45Z</time>
      </trkpt>
      <trkpt lat="41.607196706" lon="2.540383747">
        <ele>122.71</ele>
        <time>2014-07-27T11:14:53Z</time>
      </trkpt>
      <trkpt lat="41.606776605" lon="2.540285427">
        <ele>121.74</ele>
        <time>2014-07-27T11:15:01Z</time>
      </trkpt>
      <trkpt lat="41.606400509" lon="2.540215606">
        <ele>121.26</ele>
        <time>2014-07-27T11:15:09Z</time>
      </trkpt>
      <trkpt lat="41.606190375" lon="2.540205715">
        <ele>120.30</ele>
        <time>2014-07-27T11:15:15Z</time>
      </trkpt>
      <trkpt lat="41.606093313" lon="2.540242931">
        <ele>119.82</ele>
        <time>2014-07-27T11:15:21Z</time>
      </trkpt>
      <trkpt lat="41.606065820" lon="2.540225999">
        <ele>119.82</ele>
        <time>2014-07-27T11:15:30Z</time>
      </trkpt>
      <trkpt lat="41.606059282" lon="2.540237399">
        <ele>119.82</ele>
        <time>2014-07-27T11:15:45Z</time>
      </trkpt>
      <trkpt lat="41.606051235" lon="2.540266819">
        <ele>119.82</ele>
        <time>2014-07-27T11:16:01Z</time>
      </trkpt>
      <trkpt lat="41.606034388" lon="2.540281571">
        <ele>119.82</ele>
        <time>2014-07-27T11:16:05Z</time>
      </trkpt>
      <trkpt lat="41.605991221" lon="2.540401097">
        <ele>119.82</ele>
        <time>2014-07-27T11:16:10Z</time>
      </trkpt>
      <trkpt lat="41.605890973" lon="2.540429344">
        <ele>121.26</ele>
        <time>2014-07-27T11:16:15Z</time>
      </trkpt>
      <trkpt lat="41.605932967" lon="2.540476954">
        <ele>121.26</ele>
        <time>2014-07-27T11:16:19Z</time>
      </trkpt>
      <trkpt lat="41.605948222" lon="2.540484916">
        <ele>121.26</ele>
        <time>2014-07-27T11:16:24Z</time>
      </trkpt>
      <trkpt lat="41.605951742" lon="2.540487263">
        <ele>121.26</ele>
        <time>2014-07-27T11:16:25Z</time>
      </trkpt>
      <trkpt lat="41.605946965" lon="2.540567059">
        <ele>121.26</ele>
        <time>2014-07-27T11:16:29Z</time>
      </trkpt>
      <trkpt lat="41.605985437" lon="2.540645849">
        <ele>120.78</ele>
        <time>2014-07-27T11:16:33Z</time>
      </trkpt>
      <trkpt lat="41.606174282" lon="2.540687172">
        <ele>121.74</ele>
        <time>2014-07-27T11:16:42Z</time>
      </trkpt>
      <trkpt lat="41.606339992" lon="2.540730171">
        <ele>122.22</ele>
        <time>2014-07-27T11:16:50Z</time>
      </trkpt>
      <trkpt lat="41.606489022" lon="2.540825892">
        <ele>122.71</ele>
        <time>2014-07-27T11:16:57Z</time>
      </trkpt>
      <trkpt lat="41.606582480" lon="2.540961763">
        <ele>123.67</ele>
        <time>2014-07-27T11:17:03Z</time>
      </trkpt>
      <trkpt lat="41.606601172" lon="2.541021023">
        <ele>124.15</ele>
        <time>2014-07-27T11:17:05Z</time>
      </trkpt>
      <trkpt lat="41.606705946" lon="2.541307097">
        <ele>125.59</ele>
        <time>2014-07-27T11:17:15Z</time>
      </trkpt>
      <trkpt lat="41.606772750" lon="2.541509520">
        <ele>127.03</ele>
        <time>2014-07-27T11:17:22Z</time>
      </trkpt>
      <trkpt lat="41.606818263" lon="2.541764414">
        <ele>128.47</ele>
        <time>2014-07-27T11:17:30Z</time>
      </trkpt>
      <trkpt lat="41.606892611" lon="2.542040179">
        <ele>129.92</ele>
        <time>2014-07-27T11:17:39Z</time>
      </trkpt>
      <trkpt lat="41.606968383" lon="2.542177642">
        <ele>130.88</ele>
        <time>2014-07-27T11:17:45Z</time>
      </trkpt>
      <trkpt lat="41.607031248" lon="2.542326840">
        <ele>131.84</ele>
        <time>2014-07-27T11:17:52Z</time>
      </trkpt>
      <trkpt lat="41.607063518" lon="2.542350058">
        <ele>132.32</ele>
        <time>2014-07-27T11:17:58Z</time>
      </trkpt>
      <trkpt lat="41.607074163" lon="2.542373192">
        <ele>132.80</ele>
        <time>2014-07-27T11:18:09Z</time>
      </trkpt>
      <trkpt lat="41.607083048" lon="2.542383166">
        <ele>132.80</ele>
        <time>2014-07-27T11:18:22Z</time>
      </trkpt>
      <trkpt lat="41.607094866" lon="2.542354584">
        <ele>133.28</ele>
        <time>2014-07-27T11:18:34Z</time>
      </trkpt>
    </trkseg>
  </trk>
</gpx>
